| time (UTC) | temp F | wind direction | speed knots | gust knots | rain 1hr in | rain 24hr in | rain mn in | humidity % | barometer mb |
| 20260509090420 | 72 | 80 | 0.9 | 2.6 | 0.01 | 0.01 | 0.01 | 92 | 1011.4 |
| 20260509090320 | 72 | 80 | 0.9 | 2.6 | 0.01 | 0.01 | 0.01 | 92 | 1011.4 |
| 20260509090224 | 72 | 81 | 0.9 | 2.6 | 0.01 | 0.01 | 0.01 | 92 | 1011.4 |
| 20260509090126 | 72 | 360 | 0.9 | 2.6 | 0.01 | 0.01 | 0.01 | 92 | 1011.4 |
| 20260509090025 | 72 | 77 | 0.0 | 1.7 | 0.01 | 0.01 | 0.01 | 92 | 1011.4 |
| 20260509085926 | 72 | 360 | 0.0 | 1.7 | 0.01 | 0.01 | 0.01 | 92 | 1011.4 |
| 20260509085847 | 72 | 360 | 0.0 | 0.9 | 0.01 | 0.01 | 0.01 | 92 | 1011.4 |
| 20260509085725 | 72 | 360 | 0.0 | 0.9 | 0.01 | 0.01 | 0.01 | 92 | 1011.5 |
| 20260509085625 | 72 | 360 | 0.9 | 0.9 | 0.01 | 0.01 | 0.01 | 92 | 1011.5 |
| 20260509085530 | 72 | 360 | 0.9 | 0.9 | 0.01 | 0.01 | 0.01 | 92 | 1011.5 |
| 20260509085431 | 72 | 360 | 0.9 | 0.9 | 0.01 | 0.01 | 0.01 | 92 | 1011.4 |
| 20260509085332 | 72 | 360 | 0.0 | 0.9 | 0.01 | 0.01 | 0.01 | 92 | 1011.4 |
| 20260509085231 | 72 | 360 | 0.0 | 0.9 | 0.01 | 0.01 | 0.01 | 92 | 1011.4 |
| 20260509085132 | 72 | 360 | 0.0 | 1.7 | 0.01 | 0.01 | 0.01 | 92 | 1011.4 |
| 20260509085033 | 72 | 360 | 0.0 | 1.7 | 0.01 | 0.01 | 0.01 | 92 | 1011.4 |
| 20260509084938 | 72 | 360 | 0.0 | 2.6 | 0.01 | 0.01 | 0.01 | 92 | 1011.4 |
| 20260509084838 | 72 | 360 | 0.0 | 2.6 | 0.01 | 0.01 | 0.01 | 92 | 1011.6 |
| 20260509084717 | 72 | 360 | 0.0 | 2.6 | 0.01 | 0.01 | 0.01 | 92 | 1011.5 |
| 20260509084617 | 72 | 360 | 0.9 | 2.6 | 0.01 | 0.01 | 0.01 | 92 | 1011.5 |
| 20260509084518 | 72 | 360 | 0.9 | 2.6 | 0.01 | 0.01 | 0.01 | 92 | 1011.5 |
| 20260509084419 | 72 | 360 | 0.9 | 3.5 | 0.01 | 0.01 | 0.01 | 92 | 1011.5 |
| 20260509084319 | 72 | 360 | 0.9 | 3.5 | 0.01 | 0.01 | 0.01 | 92 | 1011.4 |
| 20260509084225 | 72 | 360 | 1.7 | 3.5 | 0.01 | 0.01 | 0.01 | 92 | 1011.5 |
| 20260509084125 | 72 | 360 | 1.7 | 3.5 | 0.00 | 0.00 | 0.00 | 92 | 1011.6 |
| 20260509084026 | 72 | 77 | 1.7 | 3.5 | 0.00 | 0.00 | 0.00 | 92 | 1011.6 |
| 20260509083946 | 72 | 360 | 1.7 | 3.5 | 0.00 | 0.00 | 0.00 | 92 | 1011.5 |
| 20260509083826 | 72 | 360 | 1.7 | 3.5 | 0.00 | 0.00 | 0.00 | 92 | 1011.5 |
| 20260509083727 | 72 | 360 | 1.7 | 3.5 | 0.00 | 0.00 | 0.00 | 92 | 1011.6 |
| 20260509083647 | 72 | 74 | 1.7 | 3.5 | 0.00 | 0.00 | 0.00 | 92 | 1011.5 |
| 20260509083527 | 72 | 74 | 1.7 | 2.6 | 0.00 | 0.00 | 0.00 | 92 | 1011.5 |
| 20260509083431 | 72 | 360 | 1.7 | 2.6 | 0.00 | 0.00 | 0.00 | 92 | 1011.6 |
| 20260509083332 | 72 | 360 | 0.9 | 2.6 | 0.00 | 0.00 | 0.00 | 92 | 1011.7 |
| 20260509083233 | 72 | 68 | 0.9 | 2.6 | 0.00 | 0.00 | 0.00 | 92 | 1011.8 |
| 20260509083134 | 72 | 360 | 0.9 | 2.6 | 0.00 | 0.00 | 0.00 | 92 | 1011.8 |
| 20260509083033 | 72 | 360 | 0.9 | 2.6 | 0.00 | 0.00 | 0.00 | 92 | 1011.8 |
| 20260509082954 | 72 | 360 | 0.9 | 0.0 | 0.00 | 0.00 | 0.00 | 92 | 1011.8 |
| 20260509082853 | 72 | 29 | 0.9 | 0.0 | 0.00 | 0.00 | 0.00 | 91 | 1011.8 |
| 20260509082815 | 72 | 360 | 0.9 | 2.6 | 0.00 | 0.00 | 0.00 | 91 | 1011.8 |
| 20260509082241 | 72 | 30 | 0.9 | 2.6 | 0.00 | 0.00 | 0.00 | 91 | 1011.8 |
| 20260509082133 | 72 | 30 | 0.9 | 2.6 | 0.00 | 0.00 | 0.00 | 91 | 1011.8 |
| 20260509082034 | 72 | 30 | 0.9 | 2.6 | 0.00 | 0.00 | 0.00 | 91 | 1011.8 |
| 20260509081933 | 72 | 30 | 0.9 | 2.6 | 0.00 | 0.00 | 0.00 | 91 | 1011.8 |
| 20260509081854 | 72 | 360 | 0.9 | 2.6 | 0.00 | 0.00 | 0.00 | 91 | 1011.8 |
| 20260509081734 | 72 | 26 | 0.9 | 3.5 | 0.00 | 0.00 | 0.00 | 91 | 1011.8 |
| 20260509081618 | 72 | 360 | 0.9 | 3.5 | 0.00 | 0.00 | 0.00 | 91 | 1011.8 |
| 20260509081518 | 72 | 360 | 0.9 | 3.5 | 0.00 | 0.00 | 0.00 | 91 | 1011.9 |
| 20260509081439 | 72 | 30 | 0.9 | 3.5 | 0.00 | 0.00 | 0.00 | 91 | 1012.0 |
| 20260509081318 | 72 | 360 | 0.9 | 3.5 | 0.00 | 0.00 | 0.00 | 91 | 1012.1 |
| 20260509081238 | 72 | 360 | 0.9 | 3.5 | 0.00 | 0.00 | 0.00 | 91 | 1012.0 |
| 20260509081138 | 72 | 360 | 0.9 | 3.5 | 0.00 | 0.00 | 0.00 | 91 | 1012.0 |
| 20260509081017 | 72 | 360 | 0.9 | 3.5 | 0.00 | 0.00 | 0.00 | 91 | 1011.9 |
| 20260509080938 | 72 | 360 | 1.7 | 3.5 | 0.00 | 0.00 | 0.00 | 91 | 1011.9 |
| 20260509080837 | 72 | 360 | 1.7 | 3.5 | 0.00 | 0.00 | 0.00 | 91 | 1011.9 |
| 20260509080720 | 72 | 30 | 1.7 | 3.5 | 0.00 | 0.00 | 0.00 | 91 | 1011.9 |
| 20260509080621 | 72 | 27 | 1.7 | 3.5 | 0.00 | 0.00 | 0.00 | 91 | 1011.8 |
| 20260509080522 | 72 | 29 | 1.7 | 3.5 | 0.00 | 0.00 | 0.00 | 91 | 1011.8 |
| 20260509080442 | 72 | 360 | 1.7 | 3.5 | 0.00 | 0.00 | 0.00 | 91 | 1011.8 |
| 20260509080322 | 72 | 360 | 1.7 | 3.5 | 0.00 | 0.00 | 0.00 | 91 | 1011.7 |
| 20260509080224 | 72 | 360 | 1.7 | 3.5 | 0.00 | 0.00 | 0.00 | 91 | 1011.6 |
| 20260509080145 | 72 | 360 | 1.7 | 3.5 | 0.00 | 0.00 | 0.00 | 91 | 1011.6 |
| 20260509080027 | 72 | 360 | 1.7 | 3.5 | 0.00 | 0.00 | 0.00 | 91 | 1011.6 |
| 20260509075928 | 72 | 360 | 1.7 | 3.5 | 0.00 | 0.00 | 0.00 | 91 | 1011.7 |
| 20260509075848 | 72 | 360 | 1.7 | 3.5 | 0.00 | 0.00 | 0.00 | 91 | 1011.6 |
| 20260509075729 | 72 | 360 | 1.7 | 3.5 | 0.00 | 0.00 | 0.00 | 91 | 1011.6 |
| 20260509075629 | 72 | 360 | 0.9 | 3.5 | 0.00 | 0.00 | 0.00 | 91 | 1011.5 |
| 20260509075528 | 72 | 360 | 0.9 | 3.5 | 0.00 | 0.00 | 0.00 | 91 | 1011.6 |
| 20260509075429 | 72 | 360 | 0.9 | 2.6 | 0.00 | 0.00 | 0.00 | 91 | 1011.6 |
| 20260509075351 | 72 | 360 | 0.9 | 2.6 | 0.00 | 0.00 | 0.00 | 91 | 1011.6 |
| 20260509075235 | 72 | 360 | 0.9 | 2.6 | 0.00 | 0.00 | 0.00 | 91 | 1011.6 |
| 20260509075135 | 72 | 360 | 0.9 | 2.6 | 0.00 | 0.00 | 0.00 | 91 | 1011.7 |
| 20260509075035 | 72 | 360 | 0.9 | 2.6 | 0.00 | 0.00 | 0.00 | 91 | 1011.6 |
| 20260509074935 | 72 | 360 | 0.9 | 2.6 | 0.00 | 0.00 | 0.00 | 91 | 1011.7 |
| 20260509074855 | 72 | 360 | 0.9 | 2.6 | 0.00 | 0.00 | 0.00 | 91 | 1011.6 |
| 20260509074733 | 72 | 360 | 0.9 | 2.6 | 0.00 | 0.00 | 0.00 | 91 | 1011.6 |
| 20260509074633 | 73 | 360 | 0.9 | 2.6 | 0.00 | 0.00 | 0.00 | 91 | 1011.6 |
| 20260509074518 | 73 | 360 | 0.9 | 2.6 | 0.00 | 0.00 | 0.00 | 91 | 1011.6 |
| 20260509074419 | 73 | 360 | 0.9 | 2.6 | 0.00 | 0.00 | 0.00 | 91 | 1011.5 |
| 20260509074320 | 73 | 360 | 0.9 | 2.6 | 0.00 | 0.00 | 0.00 | 91 | 1011.5 |
| 20260509074221 | 72 | 360 | 0.9 | 2.6 | 0.00 | 0.00 | 0.00 | 91 | 1011.6 |
| 20260509074123 | 72 | 360 | 0.9 | 2.6 | 0.00 | 0.00 | 0.00 | 91 | 1011.7 |
| 20260509074023 | 72 | 360 | 0.9 | 2.6 | 0.00 | 0.00 | 0.00 | 91 | 1011.6 |
| 20260509073927 | 72 | 360 | 0.9 | 2.6 | 0.00 | 0.00 | 0.00 | 91 | 1011.6 |
| 20260509073828 | 72 | 360 | 0.9 | 2.6 | 0.00 | 0.00 | 0.00 | 91 | 1011.6 |
| 20260509073730 | 72 | 360 | 0.9 | 2.6 | 0.00 | 0.00 | 0.00 | 91 | 1011.7 |
| 20260509073632 | 72 | 360 | 0.9 | 2.6 | 0.00 | 0.00 | 0.00 | 91 | 1011.6 |
| 20260509073533 | 72 | 360 | 0.9 | 2.6 | 0.00 | 0.00 | 0.00 | 91 | 1011.6 |
| 20260509073434 | 72 | 360 | 0.9 | 2.6 | 0.00 | 0.00 | 0.00 | 91 | 1011.6 |
| 20260509073334 | 72 | 360 | 0.9 | 2.6 | 0.00 | 0.00 | 0.00 | 91 | 1011.6 |
| 20260509073219 | 72 | 360 | 0.9 | 2.6 | 0.00 | 0.00 | 0.00 | 91 | 1011.4 |
| 20260509073119 | 72 | 360 | 0.9 | 2.6 | 0.00 | 0.00 | 0.00 | 91 | 1011.5 |
| 20260509073040 | 72 | 360 | 0.9 | 2.6 | 0.00 | 0.00 | 0.00 | 91 | 1011.5 |
| 20260509072920 | 72 | 360 | 0.9 | 2.6 | 0.00 | 0.00 | 0.00 | 91 | 1011.6 |
| 20260509072822 | 72 | 360 | 1.7 | 2.6 | 0.00 | 0.00 | 0.00 | 91 | 1011.6 |
| 20260509072743 | 72 | 360 | 1.7 | 3.5 | 0.00 | 0.00 | 0.00 | 91 | 1011.7 |
| 20260509072623 | 72 | 360 | 1.7 | 3.5 | 0.00 | 0.00 | 0.00 | 91 | 1011.7 |
| 20260509072527 | 72 | 360 | 1.7 | 3.5 | 0.00 | 0.00 | 0.00 | 91 | 1011.7 |
| 20260509072448 | 72 | 360 | 1.7 | 3.5 | 0.00 | 0.00 | 0.00 | 91 | 1011.7 |
| 20260509072328 | 72 | 360 | 2.6 | 3.5 | 0.00 | 0.00 | 0.00 | 91 | 1011.7 |
| 20260509072249 | 72 | 360 | 2.6 | 4.3 | 0.00 | 0.00 | 0.00 | 91 | 1011.8 |
| 20260509072130 | 72 | 360 | 2.6 | 4.3 | 0.00 | 0.00 | 0.00 | 91 | 1011.7 |
| 20260509072030 | 72 | 360 | 2.6 | 4.3 | 0.00 | 0.00 | 0.00 | 91 | 1011.8 |
| 20260509071931 | 72 | 360 | 2.6 | 4.3 | 0.00 | 0.00 | 0.00 | 91 | 1011.7 |
| 20260509071833 | 72 | 360 | 2.6 | 4.3 | 0.00 | 0.00 | 0.00 | 91 | 1011.8 |
| 20260509071757 | 72 | 360 | 2.6 | 4.3 | 0.00 | 0.00 | 0.00 | 91 | 1011.7 |
| 20260509071656 | 72 | 360 | 2.6 | 4.3 | 0.00 | 0.00 | 0.00 | 90 | 1011.8 |
| 20260509071516 | 72 | 360 | 2.6 | 4.3 | 0.00 | 0.00 | 0.00 | 90 | 1011.7 |
| 20260509071418 | 72 | 360 | 2.6 | 4.3 | 0.00 | 0.00 | 0.00 | 90 | 1011.8 |
| 20260509071318 | 72 | 360 | 2.6 | 4.3 | 0.00 | 0.00 | 0.00 | 90 | 1011.7 |
| 20260509071219 | 72 | 360 | 2.6 | 4.3 | 0.00 | 0.00 | 0.00 | 90 | 1011.7 |
| 20260509071119 | 72 | 360 | 2.6 | 4.3 | 0.00 | 0.00 | 0.00 | 90 | 1011.8 |
| 20260509071040 | 72 | 360 | 2.6 | 4.3 | 0.00 | 0.00 | 0.00 | 90 | 1011.8 |
| 20260509070922 | 72 | 360 | 2.6 | 5.2 | 0.00 | 0.00 | 0.00 | 90 | 1011.8 |
| 20260509070843 | 72 | 360 | 2.6 | 5.2 | 0.00 | 0.00 | 0.00 | 90 | 1011.7 |
| 20260509070722 | 72 | 360 | 2.6 | 5.2 | 0.00 | 0.00 | 0.00 | 90 | 1011.8 |
| 20260509070622 | 72 | 360 | 2.6 | 5.2 | 0.00 | 0.00 | 0.00 | 90 | 1011.8 |
| 20260509070543 | 72 | 360 | 2.6 | 5.2 | 0.00 | 0.00 | 0.00 | 90 | 1011.8 |
| 20260509070424 | 72 | 360 | 2.6 | 5.2 | 0.00 | 0.00 | 0.00 | 90 | 1011.8 |
| 20260509070325 | 72 | 360 | 2.6 | 5.2 | 0.00 | 0.00 | 0.00 | 90 | 1011.8 |
| 20260509070226 | 72 | 360 | 2.6 | 5.2 | 0.00 | 0.00 | 0.00 | 90 | 1011.8 |
| 20260509070131 | 73 | 360 | 2.6 | 7.0 | 0.00 | 0.00 | 0.00 | 90 | 1011.9 |
| 20260509070029 | 72 | 360 | 2.6 | 8.7 | 0.00 | 0.00 | 0.00 | 90 | 1011.8 |
| 20260509065929 | 73 | 360 | 2.6 | 8.7 | 0.00 | 0.00 | 0.00 | 90 | 1011.7 |
| 20260509065827 | 72 | 360 | 2.6 | 8.7 | 0.00 | 0.00 | 0.00 | 90 | 1011.8 |
| 20260509065729 | 72 | 360 | 2.6 | 8.7 | 0.00 | 0.00 | 0.00 | 90 | 1011.8 |
| 20260509065629 | 72 | 360 | 2.6 | 8.7 | 0.00 | 0.00 | 0.00 | 90 | 1011.8 |
| 20260509065550 | 72 | 360 | 2.6 | 8.7 | 0.00 | 0.00 | 0.00 | 90 | 1011.9 |
| 20260509065430 | 73 | 360 | 3.5 | 8.7 | 0.00 | 0.00 | 0.00 | 90 | 1011.9 |
| 20260509065316 | 73 | 360 | 4.3 | 8.7 | 0.00 | 0.00 | 0.00 | 90 | 1011.8 |
| 20260509065216 | 73 | 360 | 4.3 | 8.7 | 0.00 | 0.00 | 0.00 | 90 | 1011.9 |
| 20260509065138 | 73 | 360 | 3.5 | 8.7 | 0.00 | 0.00 | 0.00 | 90 | 1011.9 |
| 20260509065018 | 73 | 360 | 3.5 | 7.8 | 0.00 | 0.00 | 0.00 | 90 | 1011.9 |
| 20260509064917 | 73 | 360 | 3.5 | 7.8 | 0.00 | 0.00 | 0.00 | 90 | 1011.9 |
| 20260509064818 | 73 | 360 | 3.5 | 7.8 | 0.00 | 0.00 | 0.00 | 90 | 1011.9 |
| 20260509064719 | 73 | 360 | 3.5 | 7.8 | 0.00 | 0.00 | 0.00 | 90 | 1011.9 |
| 20260509064624 | 73 | 360 | 3.5 | 7.8 | 0.00 | 0.00 | 0.00 | 90 | 1011.8 |
| 20260509064524 | 73 | 360 | 3.5 | 7.0 | 0.00 | 0.00 | 0.00 | 90 | 1011.9 |
| 20260509064423 | 73 | 360 | 3.5 | 7.0 | 0.00 | 0.00 | 0.00 | 90 | 1011.8 |
| 20260509064344 | 73 | 360 | 3.5 | 7.0 | 0.00 | 0.00 | 0.00 | 90 | 1011.7 |
| 20260509064243 | 73 | 360 | 3.5 | 7.0 | 0.00 | 0.00 | 0.00 | 90 | 1011.7 |
| 20260509064142 | 73 | 360 | 3.5 | 7.0 | 0.00 | 0.00 | 0.00 | 90 | 1011.7 |
| 20260509064016 | 73 | 360 | 3.5 | 7.0 | 0.00 | 0.00 | 0.00 | 90 | 1011.6 |
| 20260509063917 | 73 | 360 | 3.5 | 7.8 | 0.00 | 0.00 | 0.00 | 90 | 1011.6 |
| 20260509063816 | 73 | 360 | 2.6 | 7.8 | 0.00 | 0.00 | 0.00 | 90 | 1011.6 |
| 20260509063721 | 73 | 360 | 3.5 | 7.8 | 0.00 | 0.00 | 0.00 | 90 | 1011.5 |
| 20260509063620 | 73 | 360 | 3.5 | 7.8 | 0.00 | 0.00 | 0.00 | 90 | 1011.4 |
| 20260509063521 | 73 | 360 | 3.5 | 8.7 | 0.00 | 0.00 | 0.00 | 90 | 1011.4 |
| 20260509063442 | 73 | 360 | 3.5 | 8.7 | 0.00 | 0.00 | 0.00 | 90 | 1011.4 |
| 20260509063321 | 73 | 360 | 4.3 | 8.7 | 0.00 | 0.00 | 0.00 | 90 | 1011.5 |
| 20260509063241 | 73 | 360 | 4.3 | 11.3 | 0.00 | 0.00 | 0.00 | 90 | 1011.5 |
| 20260509063122 | 73 | 360 | 5.2 | 11.3 | 0.00 | 0.00 | 0.00 | 90 | 1011.5 |
| 20260509063022 | 73 | 360 | 5.2 | 11.3 | 0.00 | 0.00 | 0.00 | 90 | 1011.5 |
| 20260509062927 | 73 | 360 | 5.2 | 11.3 | 0.00 | 0.00 | 0.00 | 90 | 1011.5 |
| 20260509062828 | 73 | 360 | 6.1 | 11.3 | 0.00 | 0.00 | 0.00 | 90 | 1011.5 |
| 20260509062749 | 73 | 360 | 6.1 | 11.3 | 0.00 | 0.00 | 0.00 | 90 | 1011.4 |
| 20260509062626 | 73 | 360 | 6.1 | 11.3 | 0.00 | 0.00 | 0.00 | 90 | 1011.5 |
| 20260509062526 | 73 | 360 | 6.1 | 11.3 | 0.00 | 0.00 | 0.00 | 90 | 1011.4 |
| 20260509062426 | 73 | 360 | 6.1 | 10.4 | 0.00 | 0.00 | 0.00 | 89 | 1011.5 |
| 20260509062327 | 73 | 360 | 6.1 | 10.4 | 0.00 | 0.00 | 0.00 | 89 | 1011.5 |
| 20260509062230 | 73 | 360 | 5.2 | 10.4 | 0.00 | 0.00 | 0.00 | 89 | 1011.5 |
| 20260509062131 | 73 | 360 | 5.2 | 10.4 | 0.00 | 0.00 | 0.00 | 89 | 1011.5 |
| 20260509062033 | 73 | 360 | 4.3 | 8.7 | 0.00 | 0.00 | 0.00 | 89 | 1011.6 |
| 20260509061933 | 73 | 360 | 5.2 | 8.7 | 0.00 | 0.00 | 0.00 | 89 | 1011.5 |
| 20260509061833 | 73 | 360 | 4.3 | 10.4 | 0.00 | 0.00 | 0.00 | 89 | 1011.6 |
| 20260509061733 | 73 | 360 | 4.3 | 10.4 | 0.00 | 0.00 | 0.00 | 89 | 1011.6 |
| 20260509061618 | 73 | 360 | 4.3 | 11.3 | 0.00 | 0.00 | 0.00 | 89 | 1011.5 |
| 20260509061518 | 73 | 360 | 4.3 | 11.3 | 0.00 | 0.00 | 0.00 | 89 | 1011.6 |
| 20260509061419 | 73 | 360 | 4.3 | 11.3 | 0.00 | 0.00 | 0.00 | 89 | 1011.6 |
| 20260509061319 | 73 | 360 | 4.3 | 11.3 | 0.00 | 0.00 | 0.00 | 89 | 1011.4 |
| 20260509061220 | 73 | 360 | 4.3 | 11.3 | 0.00 | 0.00 | 0.00 | 89 | 1011.4 |
| 20260509061120 | 73 | 360 | 4.3 | 11.3 | 0.00 | 0.00 | 0.00 | 89 | 1011.3 |
| 20260509061020 | 73 | 360 | 4.3 | 11.3 | 0.00 | 0.00 | 0.00 | 89 | 1011.3 |
| 20260509060925 | 73 | 360 | 4.3 | 11.3 | 0.00 | 0.00 | 0.00 | 89 | 1011.3 |
| 20260509060826 | 73 | 360 | 5.2 | 11.3 | 0.00 | 0.00 | 0.00 | 89 | 1011.3 |
| 20260509060727 | 73 | 360 | 5.2 | 11.3 | 0.00 | 0.00 | 0.00 | 89 | 1011.4 |
| 20260509060627 | 73 | 360 | 5.2 | 11.3 | 0.00 | 0.00 | 0.00 | 89 | 1011.4 |
| 20260509060527 | 73 | 360 | 5.2 | 11.3 | 0.00 | 0.00 | 0.00 | 89 | 1011.3 |
| 20260509060428 | 73 | 360 | 6.1 | 13.0 | 0.00 | 0.00 | 0.00 | 89 | 1011.4 |
| 20260509060332 | 73 | 360 | 5.2 | 13.0 | 0.00 | 0.00 | 0.00 | 89 | 1011.4 |
| 20260509060233 | 73 | 360 | 5.2 | 13.0 | 0.00 | 0.00 | 0.00 | 89 | 1011.4 |
| 20260509060134 | 73 | 360 | 4.3 | 13.0 | 0.00 | 0.00 | 0.00 | 89 | 1011.4 |
| 20260509060054 | 73 | 360 | 5.2 | 13.0 | 0.00 | 0.00 | 0.00 | 89 | 1011.4 |
| 20260509055934 | 73 | 360 | 5.2 | 13.0 | 0.00 | 0.00 | 0.00 | 89 | 1011.4 |
| 20260509055834 | 73 | 360 | 6.1 | 13.0 | 0.00 | 0.00 | 0.00 | 89 | 1011.4 |
| 20260509055735 | 73 | 360 | 6.1 | 13.0 | 0.00 | 0.00 | 0.00 | 89 | 1011.4 |
| 20260509055619 | 73 | 360 | 7.0 | 13.0 | 0.00 | 0.00 | 0.00 | 89 | 1011.4 |
| 20260509055519 | 73 | 360 | 7.8 | 13.0 | 0.00 | 0.00 | 0.00 | 89 | 1011.4 |
| 20260509055420 | 73 | 360 | 7.8 | 13.0 | 0.00 | 0.00 | 0.00 | 89 | 1011.3 |
| 20260509055321 | 73 | 360 | 7.8 | 13.0 | 0.00 | 0.00 | 0.00 | 89 | 1011.3 |
| 20260509055220 | 73 | 360 | 7.8 | 15.6 | 0.00 | 0.00 | 0.00 | 89 | 1011.4 |
| 20260509055141 | 73 | 360 | 7.0 | 15.6 | 0.00 | 0.00 | 0.00 | 89 | 1011.4 |
| 20260509055041 | 73 | 360 | 7.0 | 15.6 | 0.00 | 0.00 | 0.00 | 89 | 1011.3 |
| 20260509054924 | 73 | 360 | 6.1 | 15.6 | 0.00 | 0.00 | 0.00 | 88 | 1011.3 |
| 20260509054825 | 73 | 360 | 6.1 | 15.6 | 0.00 | 0.00 | 0.00 | 88 | 1011.2 |
| 20260509054725 | 73 | 360 | 6.1 | 15.6 | 0.00 | 0.00 | 0.00 | 88 | 1011.3 |
| 20260509054624 | 73 | 360 | 6.1 | 15.6 | 0.00 | 0.00 | 0.00 | 88 | 1011.3 |
| 20260509054525 | 73 | 360 | 7.0 | 15.6 | 0.00 | 0.00 | 0.00 | 88 | 1011.3 |
| 20260509054426 | 73 | 360 | 7.0 | 15.6 | 0.00 | 0.00 | 0.00 | 88 | 1011.3 |
| 20260509054346 | 73 | 360 | 6.1 | 15.6 | 0.00 | 0.00 | 0.00 | 88 | 1011.2 |
| 20260509054226 | 73 | 360 | 5.2 | 15.6 | 0.00 | 0.00 | 0.00 | 88 | 1011.3 |
| 20260509054151 | 73 | 360 | 6.1 | 15.6 | 0.00 | 0.00 | 0.00 | 88 | 1011.3 |
| 20260509054050 | 73 | 360 | 5.2 | 11.3 | 0.00 | 0.00 | 0.00 | 88 | 1011.3 |
| 20260509053929 | 73 | 360 | 5.2 | 11.3 | 0.00 | 0.00 | 0.00 | 88 | 1011.3 |
| 20260509053828 | 73 | 360 | 5.2 | 11.3 | 0.00 | 0.00 | 0.00 | 88 | 1011.2 |
| 20260509053729 | 73 | 360 | 5.2 | 11.3 | 0.00 | 0.00 | 0.00 | 88 | 1011.3 |
| 20260509053629 | 73 | 360 | 5.2 | 11.3 | 0.00 | 0.00 | 0.00 | 88 | 1011.3 |
| 20260509053529 | 73 | 360 | 5.2 | 11.3 | 0.00 | 0.00 | 0.00 | 88 | 1011.3 |
| 20260509053449 | 73 | 360 | 4.3 | 11.3 | 0.00 | 0.00 | 0.00 | 88 | 1011.3 |
| 20260509053327 | 73 | 360 | 5.2 | 13.9 | 0.00 | 0.00 | 0.00 | 88 | 1011.3 |
| 20260509053252 | 73 | 360 | 4.3 | 13.9 | 0.00 | 0.00 | 0.00 | 88 | 1011.3 |
| 20260509053131 | 73 | 360 | 5.2 | 13.9 | 0.00 | 0.00 | 0.00 | 88 | 1011.3 |
| 20260509053031 | 73 | 360 | 5.2 | 13.9 | 0.00 | 0.00 | 0.00 | 88 | 1011.3 |
| 20260509052932 | 73 | 360 | 6.1 | 13.9 | 0.00 | 0.00 | 0.00 | 88 | 1011.3 |
| 20260509052833 | 73 | 360 | 6.1 | 13.9 | 0.00 | 0.00 | 0.00 | 88 | 1011.3 |
| 20260509052735 | 73 | 360 | 6.1 | 13.9 | 0.00 | 0.00 | 0.00 | 88 | 1011.2 |
| 20260509052618 | 73 | 360 | 6.1 | 13.9 | 0.00 | 0.00 | 0.00 | 88 | 1011.3 |
| 20260509052518 | 73 | 360 | 6.1 | 13.9 | 0.00 | 0.00 | 0.00 | 88 | 1011.2 |
| 20260509052419 | 73 | 360 | 6.1 | 13.9 | 0.00 | 0.00 | 0.00 | 88 | 1011.2 |
| 20260509052320 | 73 | 360 | 5.2 | 13.9 | 0.00 | 0.00 | 0.00 | 88 | 1011.2 |
| 20260509052220 | 73 | 360 | 5.2 | 13.9 | 0.00 | 0.00 | 0.00 | 88 | 1011.3 |
| 20260509052121 | 73 | 360 | 5.2 | 11.3 | 0.00 | 0.00 | 0.00 | 88 | 1011.2 |
| 20260509052021 | 73 | 360 | 4.3 | 11.3 | 0.00 | 0.00 | 0.00 | 88 | 1011.3 |
| 20260509051926 | 73 | 360 | 4.3 | 11.3 | 0.00 | 0.00 | 0.00 | 88 | 1011.2 |
| 20260509051826 | 73 | 360 | 4.3 | 11.3 | 0.00 | 0.00 | 0.00 | 88 | 1011.3 |
| 20260509051727 | 73 | 360 | 5.2 | 11.3 | 0.00 | 0.00 | 0.00 | 88 | 1011.3 |
| 20260509051627 | 73 | 360 | 5.2 | 11.3 | 0.00 | 0.00 | 0.00 | 88 | 1011.3 |
| 20260509051525 | 73 | 360 | 6.1 | 11.3 | 0.00 | 0.00 | 0.00 | 88 | 1011.2 |
| 20260509051426 | 73 | 360 | 6.1 | 11.3 | 0.00 | 0.00 | 0.00 | 88 | 1011.2 |
| 20260509051326 | 73 | 360 | 6.1 | 11.3 | 0.00 | 0.00 | 0.00 | 88 | 1011.2 |
| 20260509051251 | 73 | 360 | 7.0 | 11.3 | 0.00 | 0.00 | 0.00 | 88 | 1011.2 |
| 20260509051150 | 73 | 360 | 7.0 | 11.3 | 0.00 | 0.00 | 0.00 | 88 | 1011.0 |
| 20260509051030 | 73 | 360 | 7.0 | 11.3 | 0.00 | 0.00 | 0.00 | 88 | 1010.9 |
| 20260509050930 | 73 | 360 | 7.0 | 11.3 | 0.00 | 0.00 | 0.00 | 88 | 1010.9 |
| 20260509050831 | 73 | 360 | 7.8 | 12.2 | 0.00 | 0.00 | 0.00 | 88 | 1010.9 |
| 20260509050731 | 73 | 360 | 7.8 | 12.2 | 0.00 | 0.00 | 0.00 | 88 | 1010.9 |
| 20260509050652 | 73 | 360 | 7.8 | 12.2 | 0.00 | 0.00 | 0.00 | 88 | 1010.9 |
| 20260509050531 | 73 | 360 | 7.8 | 12.2 | 0.00 | 0.00 | 0.00 | 88 | 1010.8 |
| 20260509050435 | 73 | 360 | 7.8 | 12.2 | 0.00 | 0.00 | 0.00 | 88 | 1010.9 |
| 20260509050316 | 73 | 360 | 7.0 | 12.2 | 0.00 | 0.00 | 0.00 | 88 | 1010.8 |
| 20260509050217 | 73 | 360 | 7.0 | 12.2 | 0.00 | 0.00 | 0.00 | 88 | 1011.0 |
| 20260509050117 | 73 | 360 | 6.1 | 12.2 | 0.00 | 0.00 | 0.00 | 88 | 1010.9 |
| 20260509050038 | 73 | 360 | 6.1 | 12.2 | 0.00 | 0.00 | 0.00 | 88 | 1010.9 |
| 20260509045952 | 73 | 360 | 5.2 | 10.4 | 0.00 | 0.00 | 0.00 | 88 | 1011.0 |
| 20260509045831 | 73 | 360 | 5.2 | 10.4 | 0.00 | 0.00 | 0.00 | 88 | 1010.9 |
| 20260509045736 | 73 | 360 | 5.2 | 10.4 | 0.00 | 0.00 | 0.00 | 88 | 1010.9 |
| 20260509045635 | 73 | 360 | 5.2 | 10.4 | 0.00 | 0.00 | 0.00 | 88 | 1011.0 |
| 20260509045555 | 73 | 360 | 5.2 | 10.4 | 0.00 | 0.00 | 0.00 | 88 | 1011.0 |
| 20260509045455 | 73 | 360 | 5.2 | 10.4 | 0.00 | 0.00 | 0.00 | 88 | 1011.0 |
| 20260509045334 | 73 | 360 | 6.1 | 10.4 | 0.00 | 0.00 | 0.00 | 88 | 1011.0 |
| 20260509045234 | 73 | 360 | 6.1 | 10.4 | 0.00 | 0.00 | 0.00 | 88 | 1011.0 |
| 20260509045134 | 73 | 360 | 7.0 | 11.3 | 0.00 | 0.00 | 0.00 | 88 | 1011.0 |
| 20260509045056 | 73 | 360 | 7.0 | 11.3 | 0.00 | 0.00 | 0.00 | 88 | 1011.0 |
| 20260509044918 | 73 | 360 | 7.0 | 11.3 | 0.00 | 0.00 | 0.00 | 88 | 1010.8 |
| 20260509044819 | 73 | 360 | 7.8 | 11.3 | 0.00 | 0.00 | 0.00 | 88 | 1010.9 |
| 20260509044718 | 73 | 360 | 7.0 | 11.3 | 0.00 | 0.00 | 0.00 | 88 | 1010.8 |
| 20260509044619 | 73 | 360 | 7.0 | 11.3 | 0.00 | 0.00 | 0.00 | 88 | 1010.9 |
| 20260509044519 | 73 | 360 | 7.0 | 11.3 | 0.00 | 0.00 | 0.00 | 88 | 1010.8 |
| 20260509044438 | 73 | 360 | 6.1 | 11.3 | 0.00 | 0.00 | 0.00 | 88 | 1010.9 |
| 20260509044338 | 73 | 360 | 6.1 | 11.3 | 0.00 | 0.00 | 0.00 | 88 | 1010.9 |
| 20260509044217 | 73 | 360 | 6.1 | 10.4 | 0.00 | 0.00 | 0.00 | 88 | 1010.8 |
| 20260509044122 | 73 | 360 | 6.1 | 10.4 | 0.00 | 0.00 | 0.00 | 88 | 1010.8 |
| 20260509044022 | 73 | 360 | 6.1 | 10.4 | 0.00 | 0.00 | 0.00 | 88 | 1010.9 |
| 20260509043921 | 73 | 360 | 6.1 | 12.2 | 0.00 | 0.00 | 0.00 | 88 | 1010.9 |
| 20260509043822 | 73 | 360 | 6.1 | 12.2 | 0.00 | 0.00 | 0.00 | 88 | 1011.0 |
| 20260509043743 | 73 | 360 | 6.1 | 12.2 | 0.00 | 0.00 | 0.00 | 88 | 1011.0 |
| 20260509043623 | 73 | 360 | 6.1 | 12.2 | 0.00 | 0.00 | 0.00 | 88 | 1011.0 |
| 20260509043523 | 73 | 360 | 7.0 | 12.2 | 0.00 | 0.00 | 0.00 | 88 | 1011.0 |
| 20260509043423 | 73 | 360 | 7.0 | 12.2 | 0.00 | 0.00 | 0.00 | 88 | 1011.0 |
| 20260509043349 | 73 | 360 | 7.0 | 12.2 | 0.00 | 0.00 | 0.00 | 88 | 1011.0 |
| 20260509043228 | 73 | 360 | 7.0 | 12.2 | 0.00 | 0.00 | 0.00 | 88 | 1011.0 |
| 20260509043129 | 73 | 360 | 7.0 | 12.2 | 0.00 | 0.00 | 0.00 | 88 | 1010.9 |
| 20260509043029 | 73 | 360 | 7.0 | 12.2 | 0.00 | 0.00 | 0.00 | 88 | 1010.9 |
| 20260509042930 | 73 | 360 | 7.0 | 12.2 | 0.00 | 0.00 | 0.00 | 88 | 1010.9 |
| 20260509042831 | 73 | 360 | 7.0 | 12.2 | 0.00 | 0.00 | 0.00 | 88 | 1010.9 |
| 20260509042732 | 73 | 360 | 7.0 | 12.2 | 0.00 | 0.00 | 0.00 | 88 | 1010.9 |
| 20260509042616 | 73 | 360 | 7.0 | 12.2 | 0.00 | 0.00 | 0.00 | 88 | 1010.9 |
| 20260509042517 | 73 | 360 | 6.1 | 12.2 | 0.00 | 0.00 | 0.00 | 88 | 1011.0 |
| 20260509042417 | 73 | 360 | 6.1 | 12.2 | 0.00 | 0.00 | 0.00 | 88 | 1011.0 |
| 20260509042317 | 73 | 360 | 6.1 | 12.2 | 0.00 | 0.00 | 0.00 | 87 | 1011.0 |
| 20260509042218 | 73 | 360 | 6.1 | 12.2 | 0.00 | 0.00 | 0.00 | 87 | 1011.1 |
| 20260509042119 | 73 | 360 | 6.1 | 9.6 | 0.00 | 0.00 | 0.00 | 87 | 1011.1 |
| 20260509042022 | 73 | 360 | 6.1 | 9.6 | 0.00 | 0.00 | 0.00 | 87 | 1011.1 |
| 20260509041923 | 73 | 360 | 6.1 | 9.6 | 0.00 | 0.00 | 0.00 | 88 | 1011.1 |
| 20260509041823 | 73 | 360 | 6.1 | 9.6 | 0.00 | 0.00 | 0.00 | 88 | 1011.1 |
| 20260509041723 | 73 | 360 | 6.1 | 9.6 | 0.00 | 0.00 | 0.00 | 88 | 1011.2 |
| 20260509041623 | 73 | 360 | 5.2 | 9.6 | 0.00 | 0.00 | 0.00 | 87 | 1011.1 |
| 20260509041523 | 73 | 360 | 6.1 | 9.6 | 0.00 | 0.00 | 0.00 | 87 | 1011.1 |
| 20260509041422 | 73 | 360 | 5.2 | 9.6 | 0.00 | 0.00 | 0.00 | 87 | 1011.1 |
| 20260509041323 | 73 | 360 | 5.2 | 9.6 | 0.00 | 0.00 | 0.00 | 87 | 1011.1 |
| 20260509041248 | 73 | 360 | 5.2 | 9.6 | 0.00 | 0.00 | 0.00 | 87 | 1011.1 |
| 20260509041146 | 73 | 360 | 5.2 | 9.6 | 0.00 | 0.00 | 0.00 | 87 | 1011.1 |
| 20260509041026 | 73 | 360 | 5.2 | 9.6 | 0.00 | 0.00 | 0.00 | 87 | 1011.2 |
| 20260509040928 | 73 | 360 | 5.2 | 9.6 | 0.00 | 0.00 | 0.00 | 87 | 1011.2 |
| 20260509040828 | 73 | 360 | 5.2 | 9.6 | 0.00 | 0.00 | 0.00 | 87 | 1011.2 |
| 20260509040729 | 73 | 360 | 4.3 | 8.7 | 0.00 | 0.00 | 0.00 | 87 | 1011.2 |
| 20260509040627 | 73 | 360 | 4.3 | 8.7 | 0.00 | 0.00 | 0.00 | 87 | 1011.2 |
| 20260509040547 | 73 | 360 | 4.3 | 8.7 | 0.00 | 0.00 | 0.00 | 87 | 1011.2 |
| 20260509040431 | 73 | 360 | 4.3 | 8.7 | 0.00 | 0.00 | 0.00 | 87 | 1011.2 |
| 20260509040331 | 73 | 360 | 4.3 | 7.8 | 0.00 | 0.00 | 0.00 | 87 | 1011.3 |
| 20260509040231 | 73 | 360 | 3.5 | 7.0 | 0.00 | 0.00 | 0.00 | 87 | 1011.3 |
| 20260509040132 | 73 | 360 | 3.5 | 7.0 | 0.00 | 0.00 | 0.00 | 87 | 1011.3 |
| 20260509040033 | 73 | 360 | 4.3 | 7.0 | 0.00 | 0.00 | 0.00 | 87 | 1011.3 |
| 20260509035934 | 73 | 360 | 3.5 | 7.0 | 0.00 | 0.00 | 0.00 | 87 | 1011.3 |
| 20260509035819 | 73 | 360 | 3.5 | 7.0 | 0.00 | 0.00 | 0.00 | 87 | 1011.3 |
| 20260509035719 | 73 | 360 | 3.5 | 7.0 | 0.00 | 0.00 | 0.00 | 87 | 1011.4 |
| 20260509035618 | 73 | 360 | 3.5 | 7.0 | 0.00 | 0.00 | 0.00 | 87 | 1011.4 |
| 20260509035519 | 73 | 360 | 3.5 | 7.0 | 0.00 | 0.00 | 0.00 | 87 | 1011.3 |
| 20260509035419 | 73 | 360 | 3.5 | 7.0 | 0.00 | 0.00 | 0.00 | 87 | 1011.4 |
| 20260509035320 | 73 | 360 | 2.6 | 5.2 | 0.00 | 0.00 | 0.00 | 86 | 1011.4 |
| 20260509035241 | 73 | 360 | 2.6 | 5.2 | 0.00 | 0.00 | 0.00 | 86 | 1011.4 |
| 20260509035120 | 73 | 360 | 2.6 | 4.3 | 0.00 | 0.00 | 0.00 | 86 | 1011.4 |
| 20260509035025 | 73 | 360 | 2.6 | 5.2 | 0.00 | 0.00 | 0.00 | 86 | 1011.3 |
| 20260509034925 | 73 | 360 | 2.6 | 5.2 | 0.00 | 0.00 | 0.00 | 86 | 1011.3 |
| 20260509034846 | 73 | 360 | 2.6 | 5.2 | 0.00 | 0.00 | 0.00 | 86 | 1011.3 |
| 20260509034746 | 73 | 360 | 2.6 | 5.2 | 0.00 | 0.00 | 0.00 | 86 | 1011.3 |
| 20260509034624 | 73 | 360 | 2.6 | 5.2 | 0.00 | 0.00 | 0.00 | 86 | 1011.4 |
| 20260509034525 | 73 | 360 | 2.6 | 5.2 | 0.00 | 0.00 | 0.00 | 86 | 1011.3 |
| 20260509034426 | 73 | 360 | 2.6 | 5.2 | 0.00 | 0.00 | 0.00 | 86 | 1011.3 |
| 20260509034330 | 73 | 360 | 2.6 | 5.2 | 0.00 | 0.00 | 0.00 | 86 | 1011.3 |
| 20260509034230 | 73 | 360 | 1.7 | 5.2 | 0.00 | 0.00 | 0.00 | 86 | 1011.3 |
| 20260509034131 | 73 | 360 | 1.7 | 3.5 | 0.00 | 0.00 | 0.00 | 86 | 1011.3 |
| 20260509034030 | 73 | 360 | 1.7 | 3.5 | 0.00 | 0.00 | 0.00 | 86 | 1011.3 |
| 20260509033931 | 73 | 360 | 1.7 | 3.5 | 0.00 | 0.00 | 0.00 | 86 | 1011.2 |
| 20260509033831 | 73 | 360 | 1.7 | 3.5 | 0.00 | 0.00 | 0.00 | 86 | 1011.2 |
| 20260509033732 | 73 | 360 | 1.7 | 4.3 | 0.00 | 0.00 | 0.00 | 86 | 1011.3 |
| 20260509033616 | 73 | 360 | 1.7 | 4.3 | 0.00 | 0.00 | 0.00 | 86 | 1011.3 |
| 20260509033517 | 73 | 360 | 1.7 | 4.3 | 0.00 | 0.00 | 0.00 | 86 | 1011.3 |
| 20260509033418 | 73 | 360 | 1.7 | 4.3 | 0.00 | 0.00 | 0.00 | 86 | 1011.4 |
| 20260509033318 | 73 | 360 | 1.7 | 4.3 | 0.00 | 0.00 | 0.00 | 86 | 1011.3 |
| 20260509033220 | 73 | 360 | 1.7 | 4.3 | 0.00 | 0.00 | 0.00 | 86 | 1011.3 |
| 20260509033140 | 73 | 360 | 1.7 | 4.3 | 0.00 | 0.00 | 0.00 | 86 | 1011.4 |
| 20260509033021 | 73 | 360 | 1.7 | 4.3 | 0.00 | 0.00 | 0.00 | 86 | 1011.4 |
| 20260509032923 | 73 | 360 | 1.7 | 4.3 | 0.00 | 0.00 | 0.00 | 86 | 1011.4 |
| 20260509032825 | 73 | 360 | 1.7 | 4.3 | 0.00 | 0.00 | 0.00 | 86 | 1011.3 |
| 20260509032725 | 73 | 360 | 1.7 | 4.3 | 0.00 | 0.00 | 0.00 | 86 | 1011.3 |
| 20260509032626 | 73 | 360 | 1.7 | 4.3 | 0.00 | 0.00 | 0.00 | 86 | 1011.2 |
| 20260509032526 | 73 | 360 | 1.7 | 4.3 | 0.00 | 0.00 | 0.00 | 86 | 1011.2 |
| 20260509032427 | 73 | 360 | 1.7 | 3.5 | 0.00 | 0.00 | 0.00 | 86 | 1011.2 |
| 20260509032327 | 74 | 360 | 1.7 | 3.5 | 0.00 | 0.00 | 0.00 | 85 | 1011.3 |
| 20260509032231 | 74 | 360 | 1.7 | 3.5 | 0.00 | 0.00 | 0.00 | 85 | 1011.3 |
| 20260509032132 | 73 | 360 | 1.7 | 3.5 | 0.00 | 0.00 | 0.00 | 85 | 1011.2 |
| 20260509032035 | 74 | 360 | 1.7 | 3.5 | 0.00 | 0.00 | 0.00 | 85 | 1011.3 |
| 20260509031933 | 74 | 360 | 1.7 | 3.5 | 0.00 | 0.00 | 0.00 | 85 | 1011.2 |
| 20260509031835 | 74 | 360 | 1.7 | 3.5 | 0.00 | 0.00 | 0.00 | 85 | 1011.3 |
| 20260509031735 | 74 | 360 | 1.7 | 3.5 | 0.00 | 0.00 | 0.00 | 85 | 1011.3 |
| 20260509031655 | 74 | 360 | 2.6 | 4.3 | 0.00 | 0.00 | 0.00 | 85 | 1011.2 |
| 20260509031519 | 74 | 360 | 2.6 | 5.2 | 0.00 | 0.00 | 0.00 | 85 | 1011.3 |
| 20260509031419 | 74 | 360 | 2.6 | 5.2 | 0.00 | 0.00 | 0.00 | 85 | 1011.3 |
| 20260509031319 | 74 | 360 | 2.6 | 5.2 | 0.00 | 0.00 | 0.00 | 85 | 1011.2 |
| 20260509031220 | 74 | 360 | 2.6 | 5.2 | 0.00 | 0.00 | 0.00 | 85 | 1011.2 |
| 20260509031120 | 74 | 360 | 3.5 | 5.2 | 0.00 | 0.00 | 0.00 | 85 | 1011.2 |
| 20260509031020 | 74 | 360 | 3.5 | 5.2 | 0.00 | 0.00 | 0.00 | 85 | 1011.2 |
| 20260509030941 | 74 | 360 | 3.5 | 5.2 | 0.00 | 0.00 | 0.00 | 85 | 1011.1 |
| 20260509030824 | 74 | 360 | 3.5 | 5.2 | 0.00 | 0.00 | 0.00 | 85 | 1011.2 |
| 20260509030725 | 74 | 360 | 3.5 | 5.2 | 0.00 | 0.00 | 0.00 | 85 | 1011.2 |
| 20260509030624 | 74 | 360 | 3.5 | 5.2 | 0.00 | 0.00 | 0.00 | 85 | 1011.1 |
| 20260509030524 | 74 | 360 | 3.5 | 5.2 | 0.00 | 0.00 | 0.00 | 85 | 1011.1 |
| 20260509030424 | 74 | 360 | 3.5 | 5.2 | 0.00 | 0.00 | 0.00 | 85 | 1011.1 |
| 20260509030325 | 74 | 360 | 3.5 | 5.2 | 0.00 | 0.00 | 0.00 | 85 | 1011.0 |
| 20260509030226 | 74 | 360 | 3.5 | 5.2 | 0.00 | 0.00 | 0.00 | 85 | 1011.0 |
| 20260509030150 | 74 | 360 | 3.5 | 5.2 | 0.00 | 0.00 | 0.00 | 85 | 1011.0 |
| 20260509030110 | 74 | 360 | 3.5 | 5.2 | 0.00 | 0.00 | 0.00 | 85 | 1010.9 |
| 20260509025827 | 74 | 360 | 3.5 | 5.2 | 0.00 | 0.00 | 0.00 | 84 | 1010.8 |
| 20260509025729 | 74 | 360 | 3.5 | 5.2 | 0.00 | 0.00 | 0.00 | 84 | 1011.0 |
| 20260509025629 | 74 | 360 | 3.5 | 5.2 | 0.00 | 0.00 | 0.00 | 84 | 1010.9 |
| 20260509025550 | 74 | 360 | 3.5 | 5.2 | 0.00 | 0.00 | 0.00 | 84 | 1010.8 |
| 20260509025428 | 74 | 360 | 3.5 | 5.2 | 0.00 | 0.00 | 0.00 | 84 | 1010.8 |
| 20260509025329 | 74 | 360 | 3.5 | 5.2 | 0.00 | 0.00 | 0.00 | 84 | 1010.8 |
| 20260509025232 | 74 | 360 | 3.5 | 5.2 | 0.00 | 0.00 | 0.00 | 84 | 1010.8 |
| 20260509025132 | 74 | 360 | 2.6 | 5.2 | 0.00 | 0.00 | 0.00 | 84 | 1010.8 |
| 20260509025053 | 74 | 360 | 2.6 | 4.3 | 0.00 | 0.00 | 0.00 | 84 | 1010.7 |
| 20260509024953 | 74 | 360 | 2.6 | 4.3 | 0.00 | 0.00 | 0.00 | 84 | 1010.8 |
| 20260509024832 | 74 | 360 | 1.7 | 4.3 | 0.00 | 0.00 | 0.00 | 84 | 1010.8 |
| 20260509024753 | 74 | 360 | 1.7 | 4.3 | 0.00 | 0.00 | 0.00 | 84 | 1010.8 |
| 20260509024633 | 74 | 360 | 1.7 | 4.3 | 0.00 | 0.00 | 0.00 | 84 | 1010.9 |
| 20260509024517 | 74 | 360 | 2.6 | 4.3 | 0.00 | 0.00 | 0.00 | 84 | 1010.8 |
| 20260509024417 | 74 | 360 | 2.6 | 4.3 | 0.00 | 0.00 | 0.00 | 84 | 1010.7 |
| 20260509024338 | 74 | 360 | 2.6 | 4.3 | 0.00 | 0.00 | 0.00 | 84 | 1010.7 |
| 20260509024217 | 74 | 360 | 2.6 | 4.3 | 0.00 | 0.00 | 0.00 | 84 | 1010.8 |
| 20260509024117 | 74 | 360 | 2.6 | 4.3 | 0.00 | 0.00 | 0.00 | 84 | 1010.7 |
| 20260509024018 | 74 | 360 | 2.6 | 4.3 | 0.00 | 0.00 | 0.00 | 83 | 1010.7 |
| 20260509023918 | 74 | 360 | 2.6 | 4.3 | 0.00 | 0.00 | 0.00 | 83 | 1010.7 |
| 20260509023823 | 74 | 360 | 2.6 | 4.3 | 0.00 | 0.00 | 0.00 | 83 | 1010.7 |
| 20260509023723 | 74 | 360 | 2.6 | 4.3 | 0.00 | 0.00 | 0.00 | 83 | 1010.6 |
| 20260509023622 | 74 | 360 | 2.6 | 4.3 | 0.00 | 0.00 | 0.00 | 83 | 1010.7 |
| 20260509023520 | 74 | 360 | 2.6 | 4.3 | 0.00 | 0.00 | 0.00 | 83 | 1010.8 |
| 20260509023421 | 74 | 360 | 2.6 | 4.3 | 0.00 | 0.00 | 0.00 | 83 | 1010.7 |
| 20260509023321 | 75 | 360 | 2.6 | 4.3 | 0.00 | 0.00 | 0.00 | 83 | 1010.8 |
| 20260509023242 | 75 | 360 | 2.6 | 4.3 | 0.00 | 0.00 | 0.00 | 83 | 1010.8 |
| 20260509023121 | 75 | 360 | 2.6 | 4.3 | 0.00 | 0.00 | 0.00 | 83 | 1010.8 |
| 20260509023025 | 75 | 360 | 2.6 | 4.3 | 0.00 | 0.00 | 0.00 | 83 | 1010.8 |
| 20260509022946 | 75 | 360 | 1.7 | 4.3 | 0.00 | 0.00 | 0.00 | 83 | 1010.8 |
| 20260509022847 | 75 | 360 | 1.7 | 4.3 | 0.00 | 0.00 | 0.00 | 83 | 1010.8 |
| 20260509022745 | 75 | 360 | 1.7 | 3.5 | 0.00 | 0.00 | 0.00 | 83 | 1010.7 |
| 20260509022645 | 75 | 360 | 1.7 | 2.6 | 0.00 | 0.00 | 0.00 | 83 | 1010.7 |
| 20260509022524 | 75 | 360 | 0.9 | 2.6 | 0.00 | 0.00 | 0.00 | 83 | 1010.8 |
| 20260509022424 | 75 | 360 | 0.9 | 2.6 | 0.00 | 0.00 | 0.00 | 83 | 1010.8 |
| 20260509022325 | 75 | 360 | 0.9 | 2.6 | 0.00 | 0.00 | 0.00 | 83 | 1010.8 |
| 20260509022224 | 75 | 360 | 0.9 | 2.6 | 0.00 | 0.00 | 0.00 | 83 | 1010.7 |
| 20260509022149 | 75 | 360 | 0.9 | 2.6 | 0.00 | 0.00 | 0.00 | 83 | 1010.7 |
| 20260509022028 | 75 | 360 | 0.9 | 2.6 | 0.00 | 0.00 | 0.00 | 83 | 1010.8 |
| 20260509021929 | 75 | 360 | 0.9 | 2.6 | 0.00 | 0.00 | 0.00 | 83 | 1010.8 |
| 20260509021828 | 75 | 360 | 1.7 | 2.6 | 0.00 | 0.00 | 0.00 | 83 | 1010.8 |
| 20260509021729 | 75 | 360 | 1.7 | 5.2 | 0.00 | 0.00 | 0.00 | 83 | 1010.7 |
| 20260509021628 | 75 | 360 | 1.7 | 5.2 | 0.00 | 0.00 | 0.00 | 83 | 1010.8 |
| 20260509021529 | 75 | 360 | 1.7 | 5.2 | 0.00 | 0.00 | 0.00 | 83 | 1010.7 |
| 20260509021432 | 75 | 360 | 1.7 | 5.2 | 0.00 | 0.00 | 0.00 | 83 | 1010.6 |
| 20260509021333 | 75 | 360 | 1.7 | 5.2 | 0.00 | 0.00 | 0.00 | 82 | 1010.7 |
| 20260509021234 | 75 | 360 | 1.7 | 5.2 | 0.00 | 0.00 | 0.00 | 82 | 1010.5 |
| 20260509021135 | 75 | 360 | 1.7 | 5.2 | 0.00 | 0.00 | 0.00 | 82 | 1010.5 |
| 20260509021035 | 75 | 360 | 1.7 | 9.6 | 0.00 | 0.00 | 0.00 | 82 | 1010.5 |
| 20260509020935 | 75 | 360 | 2.6 | 9.6 | 0.00 | 0.00 | 0.00 | 82 | 1010.5 |
| 20260509020819 | 75 | 360 | 2.6 | 9.6 | 0.00 | 0.00 | 0.00 | 82 | 1010.4 |
| 20260509020740 | 75 | 360 | 2.6 | 9.6 | 0.00 | 0.00 | 0.00 | 82 | 1010.4 |
| 20260509020619 | 75 | 360 | 3.5 | 9.6 | 0.00 | 0.00 | 0.00 | 82 | 1010.4 |
| 20260509020520 | 75 | 360 | 3.5 | 9.6 | 0.00 | 0.00 | 0.00 | 82 | 1010.4 |
| 20260509020440 | 75 | 360 | 3.5 | 12.2 | 0.00 | 0.00 | 0.00 | 82 | 1010.3 |
| 20260509020319 | 75 | 360 | 3.5 | 12.2 | 0.00 | 0.00 | 0.00 | 82 | 1010.3 |
| 20260509020219 | 75 | 360 | 4.3 | 12.2 | 0.00 | 0.00 | 0.00 | 82 | 1010.3 |
| 20260509020119 | 75 | 360 | 4.3 | 12.2 | 0.00 | 0.00 | 0.00 | 82 | 1010.2 |
| 20260509020019 | 75 | 360 | 5.2 | 12.2 | 0.00 | 0.00 | 0.00 | 82 | 1010.2 |
| 20260509015923 | 75 | 360 | 5.2 | 12.2 | 0.00 | 0.00 | 0.00 | 82 | 1010.2 |
| 20260509015827 | 75 | 360 | 6.1 | 12.2 | 0.00 | 0.00 | 0.00 | 82 | 1010.2 |
| 20260509015725 | 75 | 360 | 6.1 | 12.2 | 0.00 | 0.00 | 0.00 | 82 | 1010.2 |
| 20260509015646 | 75 | 360 | 6.1 | 12.2 | 0.00 | 0.00 | 0.00 | 82 | 1010.1 |
| 20260509015525 | 75 | 360 | 6.1 | 11.3 | 0.00 | 0.00 | 0.00 | 82 | 1010.1 |
| 20260509015425 | 75 | 360 | 7.0 | 11.3 | 0.00 | 0.00 | 0.00 | 82 | 1010.1 |
| 20260509015346 | 75 | 360 | 7.0 | 11.3 | 0.00 | 0.00 | 0.00 | 82 | 1010.0 |
| 20260509015230 | 75 | 360 | 6.1 | 11.3 | 0.00 | 0.00 | 0.00 | 82 | 1010.0 |
| 20260509015131 | 76 | 360 | 6.1 | 11.3 | 0.00 | 0.00 | 0.00 | 81 | 1010.0 |
| 20260509015030 | 76 | 360 | 6.1 | 10.4 | 0.00 | 0.00 | 0.00 | 81 | 1010.0 |
| 20260509014932 | 76 | 360 | 5.2 | 10.4 | 0.00 | 0.00 | 0.00 | 81 | 1009.9 |
| 20260509014832 | 76 | 360 | 5.2 | 10.4 | 0.00 | 0.00 | 0.00 | 81 | 1010.0 |
| 20260509014753 | 76 | 360 | 5.2 | 10.4 | 0.00 | 0.00 | 0.00 | 81 | 1010.0 |
| 20260509014631 | 76 | 360 | 5.2 | 10.4 | 0.00 | 0.00 | 0.00 | 81 | 1010.0 |
| 20260509014530 | 76 | 360 | 5.2 | 10.4 | 0.00 | 0.00 | 0.00 | 81 | 1009.9 |
| 20260509014434 | 76 | 360 | 5.2 | 10.4 | 0.00 | 0.00 | 0.00 | 81 | 1010.0 |
| 20260509014335 | 76 | 360 | 5.2 | 10.4 | 0.00 | 0.00 | 0.00 | 81 | 1010.0 |
| 20260509014235 | 76 | 360 | 5.2 | 10.4 | 0.00 | 0.00 | 0.00 | 81 | 1010.0 |
| 20260509014155 | 76 | 360 | 5.2 | 8.7 | 0.00 | 0.00 | 0.00 | 81 | 1009.9 |
| 20260509014054 | 76 | 360 | 4.3 | 8.7 | 0.00 | 0.00 | 0.00 | 81 | 1009.9 |
| 20260509013933 | 76 | 360 | 4.3 | 8.7 | 0.00 | 0.00 | 0.00 | 81 | 1010.0 |
| 20260509013833 | 76 | 360 | 4.3 | 8.7 | 0.00 | 0.00 | 0.00 | 81 | 1009.9 |
| 20260509013732 | 76 | 360 | 4.3 | 8.7 | 0.00 | 0.00 | 0.00 | 81 | 1010.0 |
| 20260509013631 | 76 | 360 | 4.3 | 8.7 | 0.00 | 0.00 | 0.00 | 81 | 1010.0 |
| 20260509013535 | 76 | 360 | 4.3 | 8.7 | 0.00 | 0.00 | 0.00 | 81 | 1010.0 |
| 20260509013434 | 76 | 360 | 4.3 | 9.6 | 0.00 | 0.00 | 0.00 | 81 | 1010.0 |
| 20260509013333 | 76 | 360 | 4.3 | 9.6 | 0.00 | 0.00 | 0.00 | 81 | 1009.9 |
| 20260509013234 | 76 | 360 | 3.5 | 9.6 | 0.00 | 0.00 | 0.00 | 81 | 1010.0 |
| 20260509013135 | 76 | 360 | 3.5 | 9.6 | 0.00 | 0.00 | 0.00 | 81 | 1010.0 |
| 20260509013055 | 76 | 360 | 4.3 | 9.6 | 0.00 | 0.00 | 0.00 | 81 | 1010.1 |
| 20260509012935 | 76 | 360 | 4.3 | 9.6 | 0.00 | 0.00 | 0.00 | 81 | 1010.0 |
| 20260509012836 | 76 | 360 | 4.3 | 9.6 | 0.00 | 0.00 | 0.00 | 80 | 1010.0 |
| 20260509012718 | 76 | 360 | 4.3 | 7.8 | 0.00 | 0.00 | 0.00 | 80 | 1010.1 |
| 20260509012619 | 76 | 360 | 4.3 | 7.8 | 0.00 | 0.00 | 0.00 | 80 | 1010.0 |
| 20260509012519 | 76 | 360 | 4.3 | 7.8 | 0.00 | 0.00 | 0.00 | 80 | 1010.1 |
| 20260509012419 | 76 | 360 | 4.3 | 7.8 | 0.00 | 0.00 | 0.00 | 80 | 1010.0 |
| 20260509012320 | 76 | 360 | 4.3 | 7.8 | 0.00 | 0.00 | 0.00 | 80 | 1010.1 |
| 20260509012218 | 76 | 360 | 4.3 | 7.8 | 0.00 | 0.00 | 0.00 | 80 | 1010.1 |
| 20260509012119 | 76 | 360 | 3.5 | 7.8 | 0.00 | 0.00 | 0.00 | 80 | 1010.0 |
| 20260509012023 | 76 | 360 | 3.5 | 7.8 | 0.00 | 0.00 | 0.00 | 80 | 1010.1 |
| 20260509011924 | 76 | 360 | 3.5 | 7.8 | 0.00 | 0.00 | 0.00 | 80 | 1010.0 |
| 20260509011824 | 76 | 360 | 2.6 | 7.8 | 0.00 | 0.00 | 0.00 | 80 | 1010.1 |
| 20260509011724 | 76 | 360 | 3.5 | 7.8 | 0.00 | 0.00 | 0.00 | 80 | 1010.1 |
| 20260509011625 | 76 | 360 | 3.5 | 7.8 | 0.00 | 0.00 | 0.00 | 80 | 1010.1 |
| 20260509011525 | 76 | 360 | 3.5 | 8.7 | 0.00 | 0.00 | 0.00 | 80 | 1010.0 |
| 20260509011430 | 76 | 360 | 3.5 | 8.7 | 0.00 | 0.00 | 0.00 | 80 | 1010.0 |
| 20260509011330 | 76 | 360 | 3.5 | 8.7 | 0.00 | 0.00 | 0.00 | 80 | 1010.0 |
| 20260509011231 | 76 | 360 | 3.5 | 8.7 | 0.00 | 0.00 | 0.00 | 80 | 1010.0 |
| 20260509011132 | 76 | 360 | 4.3 | 8.7 | 0.00 | 0.00 | 0.00 | 80 | 1010.0 |
| 20260509011032 | 76 | 360 | 4.3 | 8.7 | 0.00 | 0.00 | 0.00 | 80 | 1010.1 |
| 20260509010933 | 76 | 360 | 4.3 | 8.7 | 0.00 | 0.00 | 0.00 | 80 | 1010.0 |
| 20260509010818 | 76 | 360 | 4.3 | 8.7 | 0.00 | 0.00 | 0.00 | 80 | 1010.0 |
| 20260509010719 | 76 | 360 | 4.3 | 8.7 | 0.00 | 0.00 | 0.00 | 80 | 1009.9 |
| 20260509010619 | 76 | 360 | 3.5 | 8.7 | 0.00 | 0.00 | 0.00 | 80 | 1010.0 |
| 20260509010520 | 76 | 360 | 3.5 | 8.7 | 0.00 | 0.00 | 0.00 | 80 | 1010.0 |
| 20260509010440 | 77 | 360 | 3.5 | 7.8 | 0.00 | 0.00 | 0.00 | 80 | 1010.1 |
| 20260509010320 | 77 | 360 | 3.5 | 7.8 | 0.00 | 0.00 | 0.00 | 80 | 1010.0 |
| 20260509010220 | 77 | 360 | 2.6 | 7.0 | 0.00 | 0.00 | 0.00 | 80 | 1010.0 |
| 20260509010125 | 77 | 360 | 2.6 | 10.4 | 0.00 | 0.00 | 0.00 | 80 | 1010.0 |
| 20260509010025 | 77 | 360 | 3.5 | 10.4 | 0.00 | 0.00 | 0.00 | 80 | 1010.0 |
| 20260509005924 | 77 | 360 | 3.5 | 10.4 | 0.00 | 0.00 | 0.00 | 80 | 1009.9 |
| 20260509005825 | 77 | 360 | 4.3 | 10.4 | 0.00 | 0.00 | 0.00 | 80 | 1010.0 |
| 20260509005746 | 76 | 360 | 5.2 | 10.4 | 0.00 | 0.00 | 0.00 | 80 | 1009.9 |
| 20260509005625 | 77 | 360 | 5.2 | 10.4 | 0.00 | 0.00 | 0.00 | 80 | 1009.8 |
| 20260509005525 | 77 | 360 | 5.2 | 10.4 | 0.00 | 0.00 | 0.00 | 80 | 1009.9 |
| 20260509005425 | 77 | 360 | 5.2 | 10.4 | 0.00 | 0.00 | 0.00 | 80 | 1009.9 |
| 20260509005330 | 77 | 360 | 5.2 | 10.4 | 0.00 | 0.00 | 0.00 | 80 | 1009.9 |
| 20260509005231 | 77 | 360 | 5.2 | 10.4 | 0.00 | 0.00 | 0.00 | 79 | 1009.9 |
| 20260509005129 | 77 | 360 | 5.2 | 10.4 | 0.00 | 0.00 | 0.00 | 79 | 1009.9 |
| 20260509005029 | 77 | 360 | 4.3 | 10.4 | 0.00 | 0.00 | 0.00 | 79 | 1009.9 |
| 20260509004930 | 77 | 360 | 4.3 | 10.4 | 0.00 | 0.00 | 0.00 | 79 | 1009.8 |
| 20260509004831 | 77 | 360 | 4.3 | 10.4 | 0.00 | 0.00 | 0.00 | 79 | 1009.8 |
| 20260509004752 | 77 | 360 | 5.2 | 10.4 | 0.00 | 0.00 | 0.00 | 79 | 1009.8 |
| 20260509004616 | 77 | 360 | 5.2 | 10.4 | 0.00 | 0.00 | 0.00 | 79 | 1009.9 |
| 20260509004517 | 77 | 360 | 5.2 | 10.4 | 0.00 | 0.00 | 0.00 | 79 | 1009.8 |
| 20260509004417 | 77 | 360 | 6.1 | 10.4 | 0.00 | 0.00 | 0.00 | 79 | 1009.8 |
| 20260509004318 | 77 | 360 | 6.1 | 10.4 | 0.00 | 0.00 | 0.00 | 79 | 1009.8 |
| 20260509004219 | 77 | 360 | 7.0 | 10.4 | 0.00 | 0.00 | 0.00 | 79 | 1009.8 |
| 20260509004120 | 77 | 360 | 6.1 | 10.4 | 0.00 | 0.00 | 0.00 | 79 | 1009.8 |
| 20260509004040 | 77 | 360 | 6.1 | 10.4 | 0.00 | 0.00 | 0.00 | 79 | 1009.8 |
| 20260509003924 | 77 | 360 | 6.1 | 10.4 | 0.00 | 0.00 | 0.00 | 79 | 1009.8 |
| 20260509003823 | 77 | 360 | 5.2 | 9.6 | 0.00 | 0.00 | 0.00 | 79 | 1009.9 |
| 20260509003724 | 77 | 360 | 5.2 | 9.6 | 0.00 | 0.00 | 0.00 | 79 | 1009.8 |
| 20260509003624 | 77 | 360 | 6.1 | 9.6 | 0.00 | 0.00 | 0.00 | 79 | 1009.8 |
| 20260509003545 | 77 | 360 | 6.1 | 9.6 | 0.00 | 0.00 | 0.00 | 79 | 1009.8 |
| 20260509003424 | 77 | 360 | 6.1 | 10.4 | 0.00 | 0.00 | 0.00 | 79 | 1009.7 |
| 20260509003345 | 77 | 360 | 6.1 | 10.4 | 0.00 | 0.00 | 0.00 | 79 | 1009.8 |
| 20260509003243 | 77 | 360 | 6.1 | 12.2 | 0.00 | 0.00 | 0.00 | 79 | 1009.8 |
| 20260509003127 | 77 | 360 | 7.0 | 12.2 | 0.00 | 0.00 | 0.00 | 79 | 1009.8 |
| 20260509003027 | 77 | 360 | 7.0 | 12.2 | 0.00 | 0.00 | 0.00 | 79 | 1009.8 |
| 20260509002928 | 77 | 360 | 7.0 | 11.3 | 0.00 | 0.00 | 0.00 | 79 | 1009.8 |
| 20260509002828 | 77 | 360 | 7.0 | 11.3 | 0.00 | 0.00 | 0.00 | 79 | 1009.8 |
| 20260509002730 | 77 | 360 | 7.8 | 11.3 | 0.00 | 0.00 | 0.00 | 79 | 1009.8 |
| 20260509002629 | 77 | 360 | 7.0 | 11.3 | 0.00 | 0.00 | 0.00 | 79 | 1009.8 |
| 20260509002535 | 77 | 360 | 7.0 | 11.3 | 0.00 | 0.00 | 0.00 | 79 | 1009.9 |
| 20260509002455 | 77 | 360 | 7.0 | 11.3 | 0.00 | 0.00 | 0.00 | 79 | 1009.9 |
| 20260509002334 | 77 | 360 | 6.1 | 9.6 | 0.00 | 0.00 | 0.00 | 78 | 1009.9 |
| 20260509002235 | 77 | 360 | 6.1 | 9.6 | 0.00 | 0.00 | 0.00 | 78 | 1009.9 |
| 20260509002156 | 77 | 360 | 6.1 | 9.6 | 0.00 | 0.00 | 0.00 | 78 | 1009.8 |
| 20260509002056 | 77 | 360 | 6.1 | 9.6 | 0.00 | 0.00 | 0.00 | 78 | 1009.9 |
| 20260509001934 | 77 | 360 | 5.2 | 7.8 | 0.00 | 0.00 | 0.00 | 78 | 1009.9 |
| 20260509001835 | 77 | 360 | 5.2 | 8.7 | 0.00 | 0.00 | 0.00 | 78 | 1009.9 |
| 20260509001720 | 77 | 360 | 5.2 | 8.7 | 0.00 | 0.00 | 0.00 | 78 | 1010.0 |
| 20260509001620 | 77 | 360 | 4.3 | 8.7 | 0.00 | 0.00 | 0.00 | 78 | 1009.9 |
| 20260509001522 | 77 | 360 | 4.3 | 8.7 | 0.00 | 0.00 | 0.00 | 78 | 1009.9 |
| 20260509001421 | 77 | 360 | 4.3 | 8.7 | 0.00 | 0.00 | 0.00 | 78 | 1009.9 |
| 20260509001322 | 77 | 360 | 4.3 | 8.7 | 0.00 | 0.00 | 0.00 | 79 | 1010.0 |
| 20260509001223 | 77 | 360 | 5.2 | 13.0 | 0.00 | 0.00 | 0.00 | 78 | 1009.9 |
| 20260509001127 | 77 | 360 | 5.2 | 13.0 | 0.00 | 0.00 | 0.00 | 78 | 1010.0 |
| 20260509001028 | 77 | 360 | 5.2 | 13.0 | 0.00 | 0.00 | 0.00 | 78 | 1010.0 |
| 20260509000948 | 77 | 360 | 6.1 | 13.0 | 0.00 | 0.00 | 0.00 | 78 | 1009.9 |
| 20260509000828 | 77 | 360 | 6.1 | 13.0 | 0.00 | 0.00 | 0.00 | 78 | 1009.9 |
| 20260509000729 | 77 | 360 | 7.0 | 13.0 | 0.00 | 0.00 | 0.00 | 78 | 1010.0 |
| 20260509000630 | 77 | 360 | 7.0 | 13.0 | 0.00 | 0.00 | 0.00 | 78 | 1010.0 |
| 20260509000549 | 77 | 360 | 7.0 | 13.0 | 0.00 | 0.00 | 0.00 | 78 | 1010.0 |
| 20260509000429 | 78 | 360 | 7.0 | 13.0 | 0.00 | 0.00 | 0.00 | 78 | 1009.9 |
| 20260509000333 | 78 | 360 | 6.1 | 13.0 | 0.00 | 0.00 | 0.00 | 78 | 1010.0 |
| 20260509000234 | 78 | 360 | 6.1 | 13.0 | 0.00 | 0.00 | 0.00 | 77 | 1010.0 |
| 20260509000135 | 78 | 360 | 6.1 | 12.2 | 0.00 | 0.00 | 0.00 | 77 | 1010.0 |
| 20260509000016 | 78 | 360 | 6.1 | 12.2 | 0.00 | 0.00 | 0.00 | 77 | 1010.0 |
| 20260508235917 | 78 | 360 | 7.8 | 12.2 | 0.00 | 0.00 | 0.00 | 77 | 1009.9 |
| 20260508235819 | 78 | 360 | 7.8 | 12.2 | 0.00 | 0.00 | 0.00 | 77 | 1009.9 |
| 20260508235742 | 78 | 360 | 7.8 | 12.2 | 0.00 | 0.00 | 0.00 | 77 | 1010.0 |
| 20260508235621 | 78 | 360 | 7.8 | 12.2 | 0.00 | 0.00 | 0.00 | 77 | 1009.9 |
| 20260508235521 | 78 | 360 | 7.0 | 11.3 | 0.00 | 0.00 | 0.00 | 77 | 1009.9 |
| 20260508235442 | 78 | 360 | 6.1 | 11.3 | 0.00 | 0.00 | 0.00 | 77 | 1009.8 |
| 20260508235341 | 78 | 360 | 5.2 | 10.4 | 0.00 | 0.00 | 0.00 | 77 | 1009.9 |
| 20260508235221 | 78 | 360 | 5.2 | 10.4 | 0.00 | 0.00 | 0.00 | 77 | 1009.9 |
| 20260508235122 | 78 | 360 | 5.2 | 10.4 | 0.00 | 0.00 | 0.00 | 77 | 1009.9 |
| 20260508235021 | 78 | 360 | 5.2 | 10.4 | 0.00 | 0.00 | 0.00 | 77 | 1009.9 |
| 20260508234926 | 78 | 360 | 6.1 | 10.4 | 0.00 | 0.00 | 0.00 | 77 | 1009.9 |
| 20260508234847 | 78 | 360 | 6.1 | 10.4 | 0.00 | 0.00 | 0.00 | 77 | 1009.9 |
| 20260508234727 | 78 | 360 | 6.1 | 10.4 | 0.00 | 0.00 | 0.00 | 77 | 1009.9 |
| 20260508234627 | 78 | 360 | 6.1 | 10.4 | 0.00 | 0.00 | 0.00 | 76 | 1009.9 |
| 20260508234527 | 78 | 360 | 6.1 | 10.4 | 0.00 | 0.00 | 0.00 | 76 | 1009.9 |
| 20260508234427 | 78 | 360 | 6.1 | 10.4 | 0.00 | 0.00 | 0.00 | 76 | 1009.9 |
| 20260508234327 | 78 | 360 | 6.1 | 10.4 | 0.00 | 0.00 | 0.00 | 76 | 1009.8 |
| 20260508234232 | 78 | 360 | 5.2 | 10.4 | 0.00 | 0.00 | 0.00 | 76 | 1009.8 |
| 20260508234133 | 78 | 360 | 6.1 | 10.4 | 0.00 | 0.00 | 0.00 | 76 | 1009.9 |
| 20260508234033 | 78 | 360 | 5.2 | 10.4 | 0.00 | 0.00 | 0.00 | 76 | 1009.9 |
| 20260508233934 | 78 | 360 | 5.2 | 10.4 | 0.00 | 0.00 | 0.00 | 76 | 1009.8 |
| 20260508233835 | 78 | 360 | 5.2 | 11.3 | 0.00 | 0.00 | 0.00 | 76 | 1009.9 |
| 20260508233734 | 78 | 360 | 6.1 | 13.0 | 0.00 | 0.00 | 0.00 | 76 | 1009.8 |
| 20260508233619 | 78 | 360 | 7.0 | 13.0 | 0.00 | 0.00 | 0.00 | 76 | 1009.9 |
| 20260508233520 | 78 | 360 | 6.1 | 13.0 | 0.00 | 0.00 | 0.00 | 76 | 1009.9 |
| 20260508233441 | 78 | 360 | 7.0 | 13.0 | 0.00 | 0.00 | 0.00 | 76 | 1009.9 |
| 20260508233320 | 78 | 360 | 7.0 | 13.0 | 0.00 | 0.00 | 0.00 | 76 | 1009.9 |
| 20260508233220 | 78 | 360 | 7.0 | 13.0 | 0.00 | 0.00 | 0.00 | 76 | 1009.9 |
| 20260508233121 | 78 | 360 | 7.0 | 13.0 | 0.00 | 0.00 | 0.00 | 76 | 1009.9 |
| 20260508233022 | 78 | 360 | 7.0 | 13.0 | 0.00 | 0.00 | 0.00 | 76 | 1009.9 |
| 20260508232927 | 78 | 360 | 7.0 | 13.0 | 0.00 | 0.00 | 0.00 | 76 | 1009.9 |
| 20260508232828 | 78 | 360 | 7.8 | 13.0 | 0.00 | 0.00 | 0.00 | 76 | 1009.9 |
| 20260508232747 | 78 | 360 | 7.8 | 13.0 | 0.00 | 0.00 | 0.00 | 76 | 1009.9 |
| 20260508232626 | 78 | 360 | 7.0 | 13.0 | 0.00 | 0.00 | 0.00 | 76 | 1009.8 |
| 20260508232526 | 78 | 360 | 7.0 | 13.0 | 0.00 | 0.00 | 0.00 | 76 | 1009.8 |
| 20260508232426 | 78 | 360 | 7.0 | 11.3 | 0.00 | 0.00 | 0.00 | 76 | 1009.8 |
| 20260508232326 | 78 | 360 | 7.0 | 13.0 | 0.00 | 0.00 | 0.00 | 76 | 1009.7 |
| 20260508232231 | 78 | 360 | 7.8 | 13.0 | 0.00 | 0.00 | 0.00 | 76 | 1009.7 |
| 20260508232152 | 78 | 360 | 7.0 | 13.0 | 0.00 | 0.00 | 0.00 | 76 | 1009.8 |
| 20260508232031 | 78 | 360 | 7.0 | 13.0 | 0.00 | 0.00 | 0.00 | 76 | 1009.8 |
| 20260508231931 | 78 | 360 | 7.0 | 13.0 | 0.00 | 0.00 | 0.00 | 76 | 1009.8 |
| 20260508231831 | 78 | 360 | 7.0 | 13.0 | 0.00 | 0.00 | 0.00 | 76 | 1009.8 |
| 20260508231730 | 78 | 360 | 7.8 | 13.0 | 0.00 | 0.00 | 0.00 | 76 | 1009.7 |
| 20260508231630 | 78 | 360 | 7.8 | 13.0 | 0.00 | 0.00 | 0.00 | 76 | 1009.8 |
| 20260508231531 | 78 | 360 | 7.8 | 13.0 | 0.00 | 0.00 | 0.00 | 76 | 1009.8 |
| 20260508231435 | 78 | 360 | 7.0 | 13.0 | 0.00 | 0.00 | 0.00 | 76 | 1009.8 |
| 20260508231335 | 78 | 360 | 6.1 | 11.3 | 0.00 | 0.00 | 0.00 | 76 | 1009.8 |
| 20260508231256 | 78 | 360 | 6.1 | 11.3 | 0.00 | 0.00 | 0.00 | 76 | 1009.8 |
| 20260508231134 | 78 | 360 | 6.1 | 11.3 | 0.00 | 0.00 | 0.00 | 76 | 1009.8 |
| 20260508231035 | 78 | 360 | 7.0 | 11.3 | 0.00 | 0.00 | 0.00 | 76 | 1009.8 |
| 20260508230916 | 78 | 360 | 7.0 | 13.0 | 0.00 | 0.00 | 0.00 | 75 | 1009.8 |
| 20260508230818 | 78 | 360 | 7.0 | 13.0 | 0.00 | 0.00 | 0.00 | 75 | 1009.8 |
| 20260508230722 | 78 | 360 | 7.0 | 13.0 | 0.00 | 0.00 | 0.00 | 75 | 1009.9 |
| 20260508230621 | 78 | 360 | 7.0 | 13.0 | 0.00 | 0.00 | 0.00 | 75 | 1010.0 |
| 20260508230541 | 78 | 360 | 7.8 | 13.0 | 0.00 | 0.00 | 0.00 | 75 | 1009.9 |
| 20260508230422 | 78 | 360 | 7.8 | 13.0 | 0.00 | 0.00 | 0.00 | 75 | 1010.0 |
| 20260508230321 | 78 | 360 | 7.8 | 13.0 | 0.00 | 0.00 | 0.00 | 75 | 1009.8 |
| 20260508230222 | 78 | 360 | 7.8 | 13.0 | 0.00 | 0.00 | 0.00 | 75 | 1009.9 |
| 20260508230123 | 78 | 360 | 7.8 | 13.0 | 0.00 | 0.00 | 0.00 | 75 | 1009.9 |
| 20260508230023 | 78 | 360 | 7.8 | 12.2 | 0.00 | 0.00 | 0.00 | 75 | 1009.9 |
| 20260508225927 | 78 | 360 | 7.8 | 12.2 | 0.00 | 0.00 | 0.00 | 75 | 1009.9 |
| 20260508225829 | 78 | 360 | 7.8 | 12.2 | 0.00 | 0.00 | 0.00 | 75 | 1010.0 |
| 20260508225727 | 78 | 360 | 7.8 | 12.2 | 0.00 | 0.00 | 0.00 | 75 | 1009.9 |
| 20260508225628 | 78 | 360 | 7.8 | 12.2 | 0.00 | 0.00 | 0.00 | 75 | 1009.9 |
| 20260508225528 | 78 | 360 | 7.8 | 12.2 | 0.00 | 0.00 | 0.00 | 75 | 1009.9 |
| 20260508225428 | 78 | 360 | 7.0 | 12.2 | 0.00 | 0.00 | 0.00 | 75 | 1009.9 |
| 20260508225332 | 78 | 360 | 7.0 | 11.3 | 0.00 | 0.00 | 0.00 | 75 | 1010.0 |
| 20260508225232 | 78 | 360 | 7.0 | 12.2 | 0.00 | 0.00 | 0.00 | 75 | 1009.9 |
| 20260508225134 | 78 | 360 | 7.0 | 12.2 | 0.00 | 0.00 | 0.00 | 75 | 1009.9 |
| 20260508225035 | 78 | 360 | 7.0 | 12.2 | 0.00 | 0.00 | 0.00 | 75 | 1010.0 |
| 20260508224956 | 78 | 360 | 7.8 | 12.2 | 0.00 | 0.00 | 0.00 | 75 | 1009.9 |
| 20260508224836 | 78 | 360 | 7.0 | 12.2 | 0.00 | 0.00 | 0.00 | 75 | 1009.9 |
| 20260508224716 | 78 | 360 | 7.0 | 12.2 | 0.00 | 0.00 | 0.00 | 75 | 1009.9 |
| 20260508224621 | 78 | 360 | 7.0 | 12.2 | 0.00 | 0.00 | 0.00 | 75 | 1010.0 |
| 20260508224541 | 79 | 360 | 7.8 | 13.0 | 0.00 | 0.00 | 0.00 | 75 | 1009.9 |
| 20260508224421 | 79 | 360 | 7.8 | 13.0 | 0.00 | 0.00 | 0.00 | 75 | 1009.9 |
| 20260508224321 | 79 | 360 | 8.7 | 13.0 | 0.00 | 0.00 | 0.00 | 74 | 1009.8 |
| 20260508224222 | 79 | 360 | 7.8 | 13.0 | 0.00 | 0.00 | 0.00 | 74 | 1009.8 |
| 20260508224143 | 79 | 360 | 7.8 | 13.0 | 0.00 | 0.00 | 0.00 | 74 | 1009.9 |
| 20260508224022 | 79 | 360 | 8.7 | 13.0 | 0.00 | 0.00 | 0.00 | 74 | 1009.8 |
| 20260508223927 | 79 | 360 | 8.7 | 13.0 | 0.00 | 0.00 | 0.00 | 74 | 1009.8 |
| 20260508223847 | 79 | 360 | 8.7 | 13.0 | 0.00 | 0.00 | 0.00 | 74 | 1009.8 |
| 20260508223727 | 79 | 360 | 7.8 | 13.0 | 0.00 | 0.00 | 0.00 | 74 | 1009.8 |
| 20260508223627 | 79 | 360 | 7.8 | 10.4 | 0.00 | 0.00 | 0.00 | 74 | 1009.8 |
| 20260508223528 | 79 | 360 | 7.0 | 10.4 | 0.00 | 0.00 | 0.00 | 74 | 1009.8 |
| 20260508223448 | 79 | 360 | 6.1 | 11.3 | 0.00 | 0.00 | 0.00 | 74 | 1009.8 |
| 20260508223328 | 79 | 360 | 6.1 | 12.2 | 0.00 | 0.00 | 0.00 | 74 | 1009.9 |
| 20260508223228 | 79 | 360 | 5.2 | 12.2 | 0.00 | 0.00 | 0.00 | 74 | 1009.9 |
| 20260508223132 | 79 | 360 | 5.2 | 12.2 | 0.00 | 0.00 | 0.00 | 74 | 1009.9 |
| 20260508223032 | 79 | 360 | 6.1 | 12.2 | 0.00 | 0.00 | 0.00 | 74 | 1009.9 |
| 20260508222954 | 79 | 360 | 7.0 | 12.2 | 0.00 | 0.00 | 0.00 | 74 | 1009.9 |
| 20260508222852 | 79 | 360 | 7.8 | 12.2 | 0.00 | 0.00 | 0.00 | 74 | 1010.0 |
| 20260508222753 | 79 | 360 | 7.0 | 13.0 | 0.00 | 0.00 | 0.00 | 74 | 1009.9 |
| 20260508222632 | 79 | 360 | 7.0 | 13.0 | 0.00 | 0.00 | 0.00 | 74 | 1009.9 |
| 20260508222533 | 79 | 360 | 6.1 | 13.0 | 0.00 | 0.00 | 0.00 | 74 | 1009.9 |
| 20260508222416 | 79 | 360 | 4.3 | 13.0 | 0.00 | 0.00 | 0.00 | 74 | 1009.8 |
| 20260508222316 | 79 | 360 | 5.2 | 13.0 | 0.00 | 0.00 | 0.00 | 74 | 1009.8 |
| 20260508222216 | 79 | 360 | 6.1 | 13.0 | 0.00 | 0.00 | 0.00 | 74 | 1009.9 |
| 20260508222137 | 79 | 360 | 7.0 | 13.0 | 0.00 | 0.00 | 0.00 | 74 | 1009.9 |
| 20260508222016 | 79 | 360 | 7.0 | 13.0 | 0.00 | 0.00 | 0.00 | 74 | 1009.9 |
| 20260508221937 | 79 | 360 | 7.0 | 13.0 | 0.00 | 0.00 | 0.00 | 74 | 1009.9 |
| 20260508221857 | 79 | 360 | 7.0 | 13.0 | 0.00 | 0.00 | 0.00 | 74 | 1009.9 |
| 20260508221716 | 79 | 360 | 6.1 | 10.4 | 0.00 | 0.00 | 0.00 | 73 | 1009.9 |
| 20260508221620 | 79 | 360 | 6.1 | 10.4 | 0.00 | 0.00 | 0.00 | 73 | 1010.0 |
| 20260508221521 | 79 | 360 | 5.2 | 10.4 | 0.00 | 0.00 | 0.00 | 74 | 1010.0 |
| 20260508221421 | 79 | 360 | 4.3 | 10.4 | 0.00 | 0.00 | 0.00 | 74 | 1010.0 |
| 20260508221320 | 79 | 360 | 4.3 | 10.4 | 0.00 | 0.00 | 0.00 | 74 | 1010.0 |
| 20260508221220 | 79 | 360 | 3.5 | 11.3 | 0.00 | 0.00 | 0.00 | 74 | 1010.0 |
| 20260508221121 | 79 | 360 | 3.5 | 11.3 | 0.00 | 0.00 | 0.00 | 74 | 1010.0 |
| 20260508221022 | 79 | 360 | 3.5 | 11.3 | 0.00 | 0.00 | 0.00 | 74 | 1010.1 |
| 20260508220943 | 79 | 360 | 4.3 | 11.3 | 0.00 | 0.00 | 0.00 | 74 | 1010.0 |
| 20260508220826 | 79 | 360 | 6.1 | 11.3 | 0.00 | 0.00 | 0.00 | 74 | 1010.0 |
| 20260508220748 | 79 | 360 | 7.0 | 11.3 | 0.00 | 0.00 | 0.00 | 74 | 1010.0 |
| 20260508220627 | 79 | 360 | 7.8 | 13.0 | 0.00 | 0.00 | 0.00 | 73 | 1010.0 |
| 20260508220547 | 79 | 360 | 7.0 | 13.0 | 0.00 | 0.00 | 0.00 | 74 | 1010.1 |
| 20260508220427 | 79 | 360 | 7.0 | 13.0 | 0.00 | 0.00 | 0.00 | 74 | 1010.1 |
| 20260508220328 | 79 | 360 | 6.1 | 13.0 | 0.00 | 0.00 | 0.00 | 73 | 1010.1 |
| 20260508220228 | 79 | 360 | 5.2 | 13.0 | 0.00 | 0.00 | 0.00 | 73 | 1010.0 |
| 20260508220132 | 79 | 360 | 6.1 | 13.0 | 0.00 | 0.00 | 0.00 | 73 | 1010.0 |
| 20260508220053 | 79 | 360 | 7.0 | 13.0 | 0.00 | 0.00 | 0.00 | 73 | 1010.0 |
| 20260508215933 | 79 | 360 | 6.1 | 13.0 | 0.00 | 0.00 | 0.00 | 73 | 1010.0 |
| 20260508215833 | 79 | 360 | 6.1 | 13.0 | 0.00 | 0.00 | 0.00 | 73 | 1010.1 |
| 20260508215735 | 79 | 360 | 7.0 | 13.0 | 0.00 | 0.00 | 0.00 | 73 | 1010.1 |
| 20260508215635 | 80 | 360 | 6.1 | 13.0 | 0.00 | 0.00 | 0.00 | 73 | 1010.1 |
| 20260508215516 | 80 | 360 | 5.2 | 10.4 | 0.00 | 0.00 | 0.00 | 73 | 1010.1 |
| 20260508215420 | 80 | 360 | 6.1 | 10.4 | 0.00 | 0.00 | 0.00 | 73 | 1010.0 |
| 20260508215321 | 80 | 360 | 6.1 | 10.4 | 0.00 | 0.00 | 0.00 | 73 | 1010.1 |
| 20260508215219 | 79 | 360 | 7.0 | 10.4 | 0.00 | 0.00 | 0.00 | 73 | 1010.1 |
| 20260508215121 | 79 | 360 | 7.0 | 10.4 | 0.00 | 0.00 | 0.00 | 73 | 1010.0 |
| 20260508215021 | 79 | 360 | 7.0 | 10.4 | 0.00 | 0.00 | 0.00 | 72 | 1010.1 |
| 20260508214921 | 79 | 360 | 6.1 | 10.4 | 0.00 | 0.00 | 0.00 | 72 | 1010.1 |
| 20260508214822 | 80 | 360 | 6.1 | 10.4 | 0.00 | 0.00 | 0.00 | 73 | 1010.1 |
| 20260508214726 | 80 | 360 | 5.2 | 10.4 | 0.00 | 0.00 | 0.00 | 73 | 1010.1 |
| 20260508214627 | 80 | 360 | 5.2 | 10.4 | 0.00 | 0.00 | 0.00 | 73 | 1010.1 |
| 20260508214548 | 79 | 360 | 5.2 | 10.4 | 0.00 | 0.00 | 0.00 | 73 | 1010.1 |
| 20260508214447 | 79 | 360 | 5.2 | 10.4 | 0.00 | 0.00 | 0.00 | 73 | 1010.1 |
| 20260508214326 | 79 | 360 | 4.3 | 11.3 | 0.00 | 0.00 | 0.00 | 73 | 1010.1 |
| 20260508214226 | 79 | 360 | 4.3 | 11.3 | 0.00 | 0.00 | 0.00 | 73 | 1010.1 |
| 20260508214127 | 79 | 360 | 4.3 | 11.3 | 0.00 | 0.00 | 0.00 | 73 | 1010.1 |
| 20260508214028 | 79 | 360 | 4.3 | 12.2 | 0.00 | 0.00 | 0.00 | 73 | 1010.2 |
| 20260508213931 | 79 | 360 | 4.3 | 12.2 | 0.00 | 0.00 | 0.00 | 73 | 1010.1 |
| 20260508213832 | 79 | 360 | 5.2 | 12.2 | 0.00 | 0.00 | 0.00 | 73 | 1010.1 |
| 20260508213749 | 79 | 360 | 6.1 | 12.2 | 0.00 | 0.00 | 0.00 | 73 | 1010.1 |
| 20260508213649 | 79 | 360 | 6.1 | 12.2 | 0.00 | 0.00 | 0.00 | 73 | 1010.1 |
| 20260508213549 | 79 | 360 | 6.1 | 12.2 | 0.00 | 0.00 | 0.00 | 73 | 1010.1 |
| 20260508213428 | 79 | 360 | 7.0 | 12.2 | 0.00 | 0.00 | 0.00 | 73 | 1010.2 |
| 20260508213349 | 79 | 360 | 6.1 | 11.3 | 0.00 | 0.00 | 0.00 | 73 | 1010.1 |
| 20260508213248 | 79 | 360 | 6.1 | 11.3 | 0.00 | 0.00 | 0.00 | 73 | 1010.1 |
| 20260508213128 | 79 | 360 | 5.2 | 10.4 | 0.00 | 0.00 | 0.00 | 73 | 1010.1 |
| 20260508213031 | 79 | 360 | 5.2 | 10.4 | 0.00 | 0.00 | 0.00 | 73 | 1010.1 |
| 20260508212932 | 79 | 360 | 4.3 | 10.4 | 0.00 | 0.00 | 0.00 | 73 | 1010.2 |
| 20260508212832 | 79 | 360 | 3.5 | 10.4 | 0.00 | 0.00 | 0.00 | 73 | 1010.2 |
| 20260508212735 | 79 | 360 | 4.3 | 10.4 | 0.00 | 0.00 | 0.00 | 73 | 1010.2 |
| 20260508212654 | 79 | 360 | 5.2 | 10.4 | 0.00 | 0.00 | 0.00 | 73 | 1010.2 |
| 20260508212534 | 79 | 360 | 5.2 | 10.4 | 0.00 | 0.00 | 0.00 | 73 | 1010.2 |
| 20260508212419 | 79 | 360 | 6.1 | 10.4 | 0.00 | 0.00 | 0.00 | 73 | 1010.2 |
| 20260508212319 | 78 | 360 | 6.1 | 10.4 | 0.00 | 0.00 | 0.00 | 73 | 1010.3 |
| 20260508212219 | 78 | 360 | 6.1 | 10.4 | 0.00 | 0.00 | 0.00 | 74 | 1010.3 |
| 20260508212119 | 78 | 360 | 6.1 | 10.4 | 0.00 | 0.00 | 0.00 | 74 | 1010.3 |
| 20260508212019 | 78 | 360 | 5.2 | 10.4 | 0.00 | 0.00 | 0.00 | 74 | 1010.4 |
| 20260508211919 | 79 | 360 | 6.1 | 10.4 | 0.00 | 0.00 | 0.00 | 74 | 1010.4 |
| 20260508211820 | 79 | 360 | 6.1 | 10.4 | 0.00 | 0.00 | 0.00 | 74 | 1010.4 |
| 20260508211725 | 78 | 360 | 6.1 | 10.4 | 0.00 | 0.00 | 0.00 | 74 | 1010.4 |
| 20260508211623 | 78 | 360 | 6.1 | 10.4 | 0.00 | 0.00 | 0.00 | 74 | 1010.4 |
| 20260508211543 | 78 | 360 | 6.1 | 10.4 | 0.00 | 0.00 | 0.00 | 74 | 1010.5 |
| 20260508211423 | 78 | 360 | 6.1 | 10.4 | 0.00 | 0.00 | 0.00 | 74 | 1010.5 |
| 20260508211343 | 78 | 360 | 6.1 | 10.4 | 0.00 | 0.00 | 0.00 | 74 | 1010.5 |
| 20260508211222 | 78 | 360 | 6.1 | 10.4 | 0.00 | 0.00 | 0.00 | 74 | 1010.5 |
| 20260508211142 | 78 | 360 | 6.1 | 10.4 | 0.00 | 0.00 | 0.00 | 74 | 1010.5 |
| 20260508211022 | 78 | 360 | 6.1 | 10.4 | 0.00 | 0.00 | 0.00 | 74 | 1010.6 |
| 20260508210942 | 78 | 360 | 6.1 | 10.4 | 0.00 | 0.00 | 0.00 | 74 | 1010.6 |
| 20260508210827 | 78 | 360 | 6.1 | 10.4 | 0.00 | 0.00 | 0.00 | 74 | 1010.6 |
| 20260508210727 | 78 | 360 | 6.1 | 10.4 | 0.00 | 0.00 | 0.00 | 74 | 1010.6 |
| 20260508210627 | 78 | 360 | 6.1 | 10.4 | 0.00 | 0.00 | 0.00 | 74 | 1010.6 |
| 20260508210528 | 78 | 360 | 6.1 | 10.4 | 0.00 | 0.00 | 0.00 | 74 | 1010.6 |
| 20260508210428 | 78 | 360 | 5.2 | 10.4 | 0.00 | 0.00 | 0.00 | 74 | 1010.7 |
| 20260508210329 | 78 | 360 | 5.2 | 9.6 | 0.00 | 0.00 | 0.00 | 74 | 1010.8 |
| 20260508210229 | 78 | 360 | 5.2 | 9.6 | 0.00 | 0.00 | 0.00 | 74 | 1010.7 |
| 20260508210134 | 78 | 360 | 4.3 | 9.6 | 0.00 | 0.00 | 0.00 | 74 | 1010.8 |
| 20260508210034 | 78 | 360 | 5.2 | 9.6 | 0.00 | 0.00 | 0.00 | 74 | 1010.8 |
| 20260508205935 | 78 | 360 | 5.2 | 9.6 | 0.00 | 0.00 | 0.00 | 74 | 1010.8 |
| 20260508205834 | 78 | 360 | 4.3 | 9.6 | 0.00 | 0.00 | 0.00 | 74 | 1010.8 |
| 20260508205736 | 78 | 360 | 5.2 | 9.6 | 0.00 | 0.00 | 0.00 | 74 | 1010.8 |
| 20260508205616 | 78 | 360 | 5.2 | 9.6 | 0.00 | 0.00 | 0.00 | 73 | 1010.8 |
| 20260508205520 | 78 | 360 | 6.1 | 9.6 | 0.00 | 0.00 | 0.00 | 73 | 1010.9 |
| 20260508205420 | 78 | 360 | 6.1 | 11.3 | 0.00 | 0.00 | 0.00 | 73 | 1010.8 |
| 20260508205321 | 78 | 360 | 6.1 | 11.3 | 0.00 | 0.00 | 0.00 | 73 | 1010.8 |
| 20260508205242 | 78 | 360 | 6.1 | 11.3 | 0.00 | 0.00 | 0.00 | 73 | 1010.8 |
| 20260508205122 | 78 | 360 | 6.1 | 11.3 | 0.00 | 0.00 | 0.00 | 74 | 1010.8 |
| 20260508205022 | 78 | 360 | 7.0 | 11.3 | 0.00 | 0.00 | 0.00 | 73 | 1010.8 |
| 20260508204922 | 78 | 360 | 7.0 | 11.3 | 0.00 | 0.00 | 0.00 | 73 | 1010.8 |
| 20260508204828 | 79 | 360 | 7.0 | 11.3 | 0.00 | 0.00 | 0.00 | 73 | 1010.8 |
| 20260508204728 | 79 | 360 | 6.1 | 11.3 | 0.00 | 0.00 | 0.00 | 72 | 1010.8 |
| 20260508204627 | 79 | 360 | 6.1 | 11.3 | 0.00 | 0.00 | 0.00 | 72 | 1010.8 |
| 20260508204528 | 79 | 360 | 6.1 | 10.4 | 0.00 | 0.00 | 0.00 | 72 | 1010.9 |
| 20260508204428 | 79 | 360 | 6.1 | 10.4 | 0.00 | 0.00 | 0.00 | 72 | 1010.8 |
| 20260508204328 | 79 | 360 | 6.1 | 10.4 | 0.00 | 0.00 | 0.00 | 72 | 1010.9 |
| 20260508204228 | 79 | 360 | 6.1 | 9.6 | 0.00 | 0.00 | 0.00 | 72 | 1010.9 |
| 20260508204133 | 79 | 360 | 6.1 | 9.6 | 0.00 | 0.00 | 0.00 | 71 | 1010.8 |
| 20260508204053 | 80 | 360 | 6.1 | 9.6 | 0.00 | 0.00 | 0.00 | 72 | 1010.8 |
| 20260508203933 | 79 | 360 | 5.2 | 9.6 | 0.00 | 0.00 | 0.00 | 72 | 1010.9 |
| 20260508203854 | 79 | 360 | 5.2 | 9.6 | 0.00 | 0.00 | 0.00 | 72 | 1011.0 |
| 20260508203733 | 80 | 360 | 5.2 | 11.3 | 0.00 | 0.00 | 0.00 | 72 | 1010.9 |
| 20260508203654 | 80 | 360 | 5.2 | 11.3 | 0.00 | 0.00 | 0.00 | 72 | 1011.0 |
| 20260508203533 | 80 | 360 | 4.3 | 11.3 | 0.00 | 0.00 | 0.00 | 72 | 1011.0 |
| 20260508203433 | 79 | 360 | 5.2 | 11.3 | 0.00 | 0.00 | 0.00 | 72 | 1010.8 |
| 20260508203317 | 79 | 360 | 5.2 | 11.3 | 0.00 | 0.00 | 0.00 | 72 | 1010.9 |
| 20260508203218 | 79 | 360 | 6.1 | 11.3 | 0.00 | 0.00 | 0.00 | 71 | 1011.0 |
| 20260508203119 | 79 | 360 | 6.1 | 11.3 | 0.00 | 0.00 | 0.00 | 71 | 1011.0 |
| 20260508203019 | 80 | 360 | 6.1 | 11.3 | 0.00 | 0.00 | 0.00 | 71 | 1011.0 |
| 20260508202920 | 80 | 360 | 5.2 | 11.3 | 0.00 | 0.00 | 0.00 | 70 | 1011.0 |
| 20260508202822 | 80 | 360 | 5.2 | 9.6 | 0.00 | 0.00 | 0.00 | 70 | 1011.0 |
| 20260508202725 | 80 | 360 | 5.2 | 8.7 | 0.00 | 0.00 | 0.00 | 71 | 1011.1 |
| 20260508202626 | 80 | 360 | 4.3 | 7.8 | 0.00 | 0.00 | 0.00 | 71 | 1011.1 |
| 20260508202526 | 80 | 360 | 4.3 | 9.6 | 0.00 | 0.00 | 0.00 | 70 | 1011.0 |
| 20260508202426 | 80 | 360 | 4.3 | 9.6 | 0.00 | 0.00 | 0.00 | 70 | 1011.1 |
| 20260508202325 | 80 | 360 | 3.5 | 9.6 | 0.00 | 0.00 | 0.00 | 70 | 1011.0 |
| 20260508202225 | 80 | 360 | 3.5 | 9.6 | 0.00 | 0.00 | 0.00 | 70 | 1011.0 |
| 20260508202126 | 81 | 360 | 2.6 | 9.6 | 0.00 | 0.00 | 0.00 | 70 | 1011.1 |
| 20260508202031 | 81 | 360 | 3.5 | 9.6 | 0.00 | 0.00 | 0.00 | 70 | 1011.1 |
| 20260508201930 | 81 | 360 | 4.3 | 9.6 | 0.00 | 0.00 | 0.00 | 70 | 1011.0 |
| 20260508201851 | 81 | 360 | 4.3 | 9.6 | 0.00 | 0.00 | 0.00 | 69 | 1011.1 |
| 20260508201751 | 81 | 360 | 4.3 | 9.6 | 0.00 | 0.00 | 0.00 | 68 | 1011.2 |
| 20260508201650 | 81 | 360 | 4.3 | 9.6 | 0.00 | 0.00 | 0.00 | 69 | 1011.1 |
| 20260508201529 | 81 | 360 | 3.5 | 8.7 | 0.00 | 0.00 | 0.00 | 68 | 1011.2 |
| 20260508201429 | 81 | 360 | 3.5 | 8.7 | 0.00 | 0.00 | 0.00 | 69 | 1011.2 |
| 20260508201351 | 81 | 360 | 4.3 | 8.7 | 0.00 | 0.00 | 0.00 | 68 | 1011.2 |
| 20260508201231 | 81 | 360 | 3.5 | 8.7 | 0.00 | 0.00 | 0.00 | 68 | 1011.2 |
| 20260508201136 | 81 | 360 | 3.5 | 8.7 | 0.00 | 0.00 | 0.00 | 68 | 1011.2 |
| 20260508201016 | 81 | 360 | 2.6 | 5.2 | 0.00 | 0.00 | 0.00 | 68 | 1011.2 |
| 20260508200917 | 81 | 360 | 2.6 | 5.2 | 0.00 | 0.00 | 0.00 | 69 | 1011.2 |
| 20260508200837 | 81 | 360 | 2.6 | 5.2 | 0.00 | 0.00 | 0.00 | 69 | 1011.2 |
| 20260508200717 | 81 | 360 | 2.6 | 9.6 | 0.00 | 0.00 | 0.00 | 69 | 1011.2 |
| 20260508200617 | 81 | 360 | 2.6 | 9.6 | 0.00 | 0.00 | 0.00 | 69 | 1011.2 |
| 20260508200522 | 81 | 360 | 3.5 | 9.6 | 0.00 | 0.00 | 0.00 | 69 | 1011.2 |
| 20260508200423 | 81 | 360 | 3.5 | 9.6 | 0.00 | 0.00 | 0.00 | 69 | 1011.2 |
| 20260508200324 | 81 | 360 | 3.5 | 9.6 | 0.00 | 0.00 | 0.00 | 70 | 1011.3 |
| 20260508200224 | 81 | 360 | 3.5 | 9.6 | 0.00 | 0.00 | 0.00 | 70 | 1011.2 |
| 20260508200145 | 81 | 360 | 2.6 | 9.6 | 0.00 | 0.00 | 0.00 | 70 | 1011.2 |
| 20260508200022 | 80 | 360 | 3.5 | 9.6 | 0.00 | 0.00 | 0.00 | 70 | 1011.3 |
| 20260508195943 | 80 | 360 | 3.5 | 11.3 | 0.00 | 0.00 | 0.00 | 70 | 1011.3 |
| 20260508195823 | 80 | 360 | 4.3 | 11.3 | 0.00 | 0.00 | 0.00 | 71 | 1011.3 |
| 20260508195729 | 79 | 360 | 5.2 | 11.3 | 0.00 | 0.00 | 0.00 | 71 | 1011.3 |
| 20260508195628 | 79 | 360 | 6.1 | 11.3 | 0.00 | 0.00 | 0.00 | 71 | 1011.3 |
| 20260508195528 | 79 | 360 | 6.1 | 11.3 | 0.00 | 0.00 | 0.00 | 70 | 1011.2 |
| 20260508195430 | 79 | 360 | 6.1 | 11.3 | 0.00 | 0.00 | 0.00 | 70 | 1011.3 |
| 20260508195331 | 79 | 360 | 6.1 | 11.3 | 0.00 | 0.00 | 0.00 | 71 | 1011.3 |
| 20260508195230 | 79 | 360 | 7.0 | 11.3 | 0.00 | 0.00 | 0.00 | 71 | 1011.2 |
| 20260508195130 | 79 | 360 | 6.1 | 11.3 | 0.00 | 0.00 | 0.00 | 71 | 1011.3 |
| 20260508195055 | 79 | 360 | 6.1 | 11.3 | 0.00 | 0.00 | 0.00 | 71 | 1011.2 |
| 20260508194934 | 79 | 360 | 5.2 | 10.4 | 0.00 | 0.00 | 0.00 | 72 | 1011.2 |
| 20260508194834 | 78 | 360 | 6.1 | 10.4 | 0.00 | 0.00 | 0.00 | 72 | 1011.2 |
| 20260508194734 | 78 | 360 | 6.1 | 10.4 | 0.00 | 0.00 | 0.00 | 72 | 1011.2 |
| 20260508194635 | 78 | 360 | 6.1 | 10.4 | 0.00 | 0.00 | 0.00 | 72 | 1011.3 |
| 20260508194555 | 78 | 360 | 7.0 | 10.4 | 0.00 | 0.00 | 0.00 | 71 | 1011.3 |
| 20260508194434 | 78 | 360 | 7.0 | 10.4 | 0.00 | 0.00 | 0.00 | 71 | 1011.3 |
| 20260508194319 | 79 | 360 | 6.1 | 10.4 | 0.00 | 0.00 | 0.00 | 71 | 1011.4 |
| 20260508194218 | 79 | 360 | 5.2 | 9.6 | 0.00 | 0.00 | 0.00 | 71 | 1011.5 |
| 20260508194119 | 79 | 360 | 5.2 | 9.6 | 0.00 | 0.00 | 0.00 | 70 | 1011.5 |
| 20260508194020 | 79 | 360 | 4.3 | 9.6 | 0.00 | 0.00 | 0.00 | 71 | 1011.5 |
| 20260508193920 | 79 | 360 | 4.3 | 9.6 | 0.00 | 0.00 | 0.00 | 71 | 1011.5 |
| 20260508193821 | 79 | 360 | 5.2 | 13.0 | 0.00 | 0.00 | 0.00 | 71 | 1011.6 |
| 20260508193724 | 79 | 360 | 5.2 | 13.0 | 0.00 | 0.00 | 0.00 | 71 | 1011.6 |
| 20260508193626 | 79 | 360 | 5.2 | 13.0 | 0.00 | 0.00 | 0.00 | 71 | 1011.6 |
| 20260508193545 | 79 | 360 | 5.2 | 13.0 | 0.00 | 0.00 | 0.00 | 70 | 1011.6 |
| 20260508193425 | 79 | 360 | 5.2 | 13.0 | 0.00 | 0.00 | 0.00 | 70 | 1011.7 |
| 20260508193326 | 79 | 360 | 5.2 | 13.0 | 0.00 | 0.00 | 0.00 | 70 | 1011.7 |
| 20260508193226 | 79 | 360 | 6.1 | 13.0 | 0.00 | 0.00 | 0.00 | 70 | 1011.6 |
| 20260508193126 | 79 | 360 | 5.2 | 13.0 | 0.00 | 0.00 | 0.00 | 71 | 1011.6 |
| 20260508193030 | 80 | 360 | 6.1 | 13.0 | 0.00 | 0.00 | 0.00 | 71 | 1011.6 |
| 20260508192929 | 80 | 360 | 4.3 | 13.0 | 0.00 | 0.00 | 0.00 | 71 | 1011.6 |
| 20260508192850 | 80 | 360 | 4.3 | 9.6 | 0.00 | 0.00 | 0.00 | 72 | 1011.6 |
| 20260508192727 | 79 | 360 | 5.2 | 9.6 | 0.00 | 0.00 | 0.00 | 72 | 1011.6 |
| 20260508192627 | 79 | 360 | 5.2 | 9.6 | 0.00 | 0.00 | 0.00 | 73 | 1011.6 |
| 20260508192547 | 78 | 360 | 5.2 | 9.6 | 0.00 | 0.00 | 0.00 | 73 | 1011.6 |
| 20260508192426 | 78 | 360 | 7.0 | 9.6 | 0.00 | 0.00 | 0.00 | 73 | 1011.7 |
| 20260508192346 | 78 | 360 | 6.1 | 9.6 | 0.00 | 0.00 | 0.00 | 73 | 1011.6 |
| 20260508192226 | 78 | 360 | 7.0 | 9.6 | 0.00 | 0.00 | 0.00 | 72 | 1011.7 |
| 20260508192130 | 78 | 360 | 6.1 | 9.6 | 0.00 | 0.00 | 0.00 | 73 | 1011.7 |
| 20260508192030 | 77 | 360 | 6.1 | 9.6 | 0.00 | 0.00 | 0.00 | 73 | 1011.6 |
| 20260508191951 | 77 | 360 | 6.1 | 9.6 | 0.00 | 0.00 | 0.00 | 73 | 1011.7 |
| 20260508191850 | 77 | 360 | 5.2 | 8.7 | 0.00 | 0.00 | 0.00 | 72 | 1011.7 |
| 20260508191729 | 78 | 360 | 5.2 | 8.7 | 0.00 | 0.00 | 0.00 | 72 | 1011.7 |
| 20260508191630 | 78 | 360 | 4.3 | 8.7 | 0.00 | 0.00 | 0.00 | 72 | 1011.7 |
| 20260508191529 | 78 | 360 | 3.5 | 7.0 | 0.00 | 0.00 | 0.00 | 72 | 1011.8 |
| 20260508191430 | 78 | 360 | 3.5 | 7.8 | 0.00 | 0.00 | 0.00 | 72 | 1011.7 |
| 20260508191316 | 78 | 360 | 3.5 | 7.8 | 0.00 | 0.00 | 0.00 | 72 | 1011.8 |
| 20260508191216 | 78 | 360 | 3.5 | 7.8 | 0.00 | 0.00 | 0.00 | 72 | 1011.8 |
| 20260508191117 | 78 | 360 | 3.5 | 7.8 | 0.00 | 0.00 | 0.00 | 72 | 1011.8 |
| 20260508191018 | 78 | 360 | 4.3 | 9.6 | 0.00 | 0.00 | 0.00 | 72 | 1011.8 |
| 20260508190917 | 78 | 360 | 4.3 | 9.6 | 0.00 | 0.00 | 0.00 | 71 | 1011.8 |
| 20260508190818 | 78 | 360 | 4.3 | 9.6 | 0.00 | 0.00 | 0.00 | 71 | 1011.8 |
| 20260508190722 | 78 | 360 | 4.3 | 9.6 | 0.00 | 0.00 | 0.00 | 71 | 1011.8 |
| 20260508190622 | 78 | 360 | 3.5 | 9.6 | 0.00 | 0.00 | 0.00 | 71 | 1011.8 |
| 20260508190524 | 78 | 360 | 4.3 | 9.6 | 0.00 | 0.00 | 0.00 | 71 | 1011.8 |
| 20260508190422 | 78 | 360 | 3.5 | 9.6 | 0.00 | 0.00 | 0.00 | 70 | 1011.9 |
| 20260508190322 | 78 | 360 | 5.2 | 9.6 | 0.00 | 0.00 | 0.00 | 71 | 1011.9 |
| 20260508190223 | 78 | 360 | 5.2 | 9.6 | 0.00 | 0.00 | 0.00 | 70 | 1011.8 |
| 20260508190124 | 78 | 360 | 5.2 | 9.6 | 0.00 | 0.00 | 0.00 | 70 | 1011.9 |
| 20260508190029 | 78 | 360 | 5.2 | 9.6 | 0.00 | 0.00 | 0.00 | 70 | 1011.9 |
| 20260508185930 | 78 | 360 | 4.3 | 7.8 | 0.00 | 0.00 | 0.00 | 70 | 1011.8 |
| 20260508185830 | 78 | 360 | 3.5 | 7.0 | 0.00 | 0.00 | 0.00 | 70 | 1011.8 |
| 20260508185731 | 78 | 360 | 3.5 | 7.0 | 0.00 | 0.00 | 0.00 | 70 | 1011.9 |
| 20260508185651 | 78 | 360 | 3.5 | 7.8 | 0.00 | 0.00 | 0.00 | 70 | 1011.9 |
| 20260508185529 | 78 | 360 | 3.5 | 7.8 | 0.00 | 0.00 | 0.00 | 70 | 1012.0 |
| 20260508185447 | 78 | 360 | 3.5 | 7.8 | 0.00 | 0.00 | 0.00 | 70 | 1012.0 |
| 20260508185329 | 78 | 360 | 3.5 | 9.6 | 0.00 | 0.00 | 0.00 | 71 | 1012.0 |
| 20260508185230 | 78 | 360 | 4.3 | 9.6 | 0.00 | 0.00 | 0.00 | 71 | 1012.0 |
| 20260508185131 | 78 | 360 | 4.3 | 9.6 | 0.00 | 0.00 | 0.00 | 71 | 1012.1 |
| 20260508185030 | 78 | 360 | 5.2 | 9.6 | 0.00 | 0.00 | 0.00 | 71 | 1012.0 |
| 20260508184932 | 77 | 360 | 5.2 | 9.6 | 0.00 | 0.00 | 0.00 | 70 | 1011.9 |
| 20260508184852 | 77 | 360 | 6.1 | 9.6 | 0.00 | 0.00 | 0.00 | 71 | 1012.0 |
| 20260508184732 | 77 | 360 | 6.1 | 9.6 | 0.00 | 0.00 | 0.00 | 70 | 1012.0 |
| 20260508184616 | 78 | 360 | 5.2 | 9.6 | 0.00 | 0.00 | 0.00 | 70 | 1011.9 |
| 20260508184516 | 78 | 360 | 4.3 | 9.6 | 0.00 | 0.00 | 0.00 | 70 | 1011.9 |
| 20260508184416 | 78 | 360 | 3.5 | 9.6 | 0.00 | 0.00 | 0.00 | 70 | 1012.0 |
| 20260508184317 | 78 | 360 | 3.5 | 9.6 | 0.00 | 0.00 | 0.00 | 70 | 1012.0 |
| 20260508184217 | 78 | 360 | 3.5 | 9.6 | 0.00 | 0.00 | 0.00 | 70 | 1012.0 |
| 20260508184138 | 78 | 360 | 3.5 | 9.6 | 0.00 | 0.00 | 0.00 | 70 | 1012.0 |
| 20260508184016 | 78 | 360 | 3.5 | 9.6 | 0.00 | 0.00 | 0.00 | 70 | 1012.0 |
| 20260508183922 | 78 | 360 | 4.3 | 9.6 | 0.00 | 0.00 | 0.00 | 70 | 1012.1 |
| 20260508183823 | 78 | 360 | 4.3 | 9.6 | 0.00 | 0.00 | 0.00 | 70 | 1012.0 |
| 20260508183744 | 78 | 360 | 5.2 | 9.6 | 0.00 | 0.00 | 0.00 | 70 | 1012.1 |
| 20260508183643 | 78 | 360 | 5.2 | 9.6 | 0.00 | 0.00 | 0.00 | 70 | 1012.0 |
| 20260508183522 | 78 | 360 | 5.2 | 9.6 | 0.00 | 0.00 | 0.00 | 69 | 1012.0 |
| 20260508183423 | 78 | 360 | 4.3 | 9.6 | 0.00 | 0.00 | 0.00 | 69 | 1012.1 |
| 20260508183323 | 78 | 360 | 4.3 | 10.4 | 0.00 | 0.00 | 0.00 | 69 | 1012.1 |
| 20260508183228 | 78 | 360 | 5.2 | 12.2 | 0.00 | 0.00 | 0.00 | 70 | 1012.1 |
| 20260508183126 | 78 | 360 | 5.2 | 12.2 | 0.00 | 0.00 | 0.00 | 70 | 1012.0 |
| 20260508183028 | 77 | 360 | 5.2 | 12.2 | 0.00 | 0.00 | 0.00 | 70 | 1012.1 |
| 20260508182928 | 77 | 360 | 5.2 | 12.2 | 0.00 | 0.00 | 0.00 | 70 | 1012.1 |
| 20260508182828 | 77 | 360 | 6.1 | 12.2 | 0.00 | 0.00 | 0.00 | 70 | 1012.2 |
| 20260508182729 | 77 | 360 | 6.1 | 12.2 | 0.00 | 0.00 | 0.00 | 70 | 1012.3 |
| 20260508182628 | 77 | 360 | 7.0 | 12.2 | 0.00 | 0.00 | 0.00 | 70 | 1012.3 |
| 20260508182531 | 77 | 360 | 7.8 | 12.2 | 0.00 | 0.00 | 0.00 | 70 | 1012.3 |
| 20260508182432 | 77 | 360 | 7.8 | 12.2 | 0.00 | 0.00 | 0.00 | 70 | 1012.3 |
| 20260508182333 | 77 | 360 | 7.8 | 11.3 | 0.00 | 0.00 | 0.00 | 70 | 1012.3 |
| 20260508182231 | 77 | 360 | 7.0 | 11.3 | 0.00 | 0.00 | 0.00 | 70 | 1012.5 |
| 20260508182132 | 77 | 360 | 5.2 | 9.6 | 0.00 | 0.00 | 0.00 | 69 | 1012.3 |
| 20260508182033 | 77 | 360 | 5.2 | 9.6 | 0.00 | 0.00 | 0.00 | 69 | 1012.4 |
| 20260508181933 | 77 | 360 | 5.2 | 9.6 | 0.00 | 0.00 | 0.00 | 71 | 1012.5 |
| 20260508181817 | 77 | 360 | 5.2 | 9.6 | 0.00 | 0.00 | 0.00 | 70 | 1012.5 |
| 20260508181718 | 77 | 360 | 6.1 | 9.6 | 0.00 | 0.00 | 0.00 | 70 | 1012.5 |
| 20260508181617 | 77 | 360 | 6.1 | 9.6 | 0.00 | 0.00 | 0.00 | 71 | 1012.5 |
| 20260508181518 | 77 | 360 | 6.1 | 9.6 | 0.00 | 0.00 | 0.00 | 71 | 1012.5 |
| 20260508181418 | 77 | 360 | 6.1 | 9.6 | 0.00 | 0.00 | 0.00 | 70 | 1012.4 |
| 20260508181319 | 77 | 360 | 6.1 | 9.6 | 0.00 | 0.00 | 0.00 | 70 | 1012.4 |
| 20260508181239 | 77 | 360 | 5.2 | 9.6 | 0.00 | 0.00 | 0.00 | 70 | 1012.4 |
| 20260508181123 | 77 | 360 | 5.2 | 9.6 | 0.00 | 0.00 | 0.00 | 70 | 1012.5 |
| 20260508181024 | 77 | 360 | 4.3 | 8.7 | 0.00 | 0.00 | 0.00 | 70 | 1012.5 |
| 20260508180924 | 77 | 360 | 4.3 | 8.7 | 0.00 | 0.00 | 0.00 | 70 | 1012.5 |
| 20260508180845 | 77 | 360 | 4.3 | 8.7 | 0.00 | 0.00 | 0.00 | 70 | 1012.5 |
| 20260508180724 | 77 | 360 | 3.5 | 8.7 | 0.00 | 0.00 | 0.00 | 71 | 1012.6 |
| 20260508180624 | 77 | 360 | 4.3 | 8.7 | 0.00 | 0.00 | 0.00 | 71 | 1012.6 |
| 20260508180524 | 77 | 360 | 4.3 | 8.7 | 0.00 | 0.00 | 0.00 | 72 | 1012.7 |
| 20260508180428 | 77 | 360 | 4.3 | 8.7 | 0.00 | 0.00 | 0.00 | 71 | 1012.7 |
| 20260508180349 | 76 | 360 | 4.3 | 8.7 | 0.00 | 0.00 | 0.00 | 71 | 1012.7 |
| 20260508180249 | 76 | 360 | 5.2 | 8.7 | 0.00 | 0.00 | 0.00 | 70 | 1012.7 |
| 20260508180128 | 77 | 360 | 4.3 | 8.7 | 0.00 | 0.00 | 0.00 | 70 | 1012.7 |
| 20260508180028 | 77 | 360 | 4.3 | 8.7 | 0.00 | 0.00 | 0.00 | 70 | 1012.7 |
| 20260508175928 | 77 | 360 | 4.3 | 8.7 | 0.00 | 0.00 | 0.00 | 69 | 1012.7 |
| 20260508175828 | 77 | 360 | 4.3 | 8.7 | 0.00 | 0.00 | 0.00 | 69 | 1012.8 |
| 20260508175729 | 77 | 360 | 4.3 | 8.7 | 0.00 | 0.00 | 0.00 | 69 | 1012.7 |
| 20260508175633 | 78 | 360 | 4.3 | 8.7 | 0.00 | 0.00 | 0.00 | 69 | 1012.7 |
| 20260508175554 | 78 | 360 | 3.5 | 8.7 | 0.00 | 0.00 | 0.00 | 69 | 1012.8 |
| 20260508175433 | 78 | 360 | 3.5 | 7.8 | 0.00 | 0.00 | 0.00 | 69 | 1012.8 |
| 20260508175333 | 78 | 360 | 2.6 | 7.8 | 0.00 | 0.00 | 0.00 | 70 | 1012.7 |
| 20260508175254 | 78 | 360 | 2.6 | 7.8 | 0.00 | 0.00 | 0.00 | 69 | 1012.7 |
| 20260508175133 | 78 | 360 | 3.5 | 7.8 | 0.00 | 0.00 | 0.00 | 69 | 1012.7 |
| 20260508175033 | 78 | 360 | 3.5 | 7.8 | 0.00 | 0.00 | 0.00 | 69 | 1012.7 |
| 20260508174918 | 78 | 360 | 3.5 | 7.8 | 0.00 | 0.00 | 0.00 | 69 | 1012.8 |
| 20260508174819 | 78 | 360 | 2.6 | 7.8 | 0.00 | 0.00 | 0.00 | 69 | 1012.8 |
| 20260508174740 | 78 | 360 | 2.6 | 7.8 | 0.00 | 0.00 | 0.00 | 69 | 1012.8 |
| 20260508174619 | 78 | 360 | 1.7 | 4.3 | 0.00 | 0.00 | 0.00 | 69 | 1012.8 |
| 20260508174520 | 78 | 360 | 2.6 | 4.3 | 0.00 | 0.00 | 0.00 | 68 | 1012.8 |
| 20260508174440 | 78 | 360 | 2.6 | 4.3 | 0.00 | 0.00 | 0.00 | 68 | 1012.8 |
| 20260508174340 | 78 | 360 | 2.6 | 4.3 | 0.00 | 0.00 | 0.00 | 68 | 1012.8 |
| 20260508174218 | 79 | 360 | 2.6 | 4.3 | 0.00 | 0.00 | 0.00 | 67 | 1012.7 |
| 20260508174123 | 79 | 360 | 2.6 | 4.3 | 0.00 | 0.00 | 0.00 | 67 | 1012.8 |
| 20260508174023 | 79 | 360 | 1.7 | 3.5 | 0.00 | 0.00 | 0.00 | 66 | 1012.8 |
| 20260508173923 | 80 | 360 | 1.7 | 4.3 | 0.00 | 0.00 | 0.00 | 66 | 1012.7 |
| 20260508173823 | 80 | 360 | 1.7 | 4.3 | 0.00 | 0.00 | 0.00 | 65 | 1012.7 |
| 20260508173725 | 80 | 91 | 1.7 | 4.3 | 0.00 | 0.00 | 0.00 | 65 | 1012.7 |
| 20260508173625 | 80 | 360 | 1.7 | 4.3 | 0.00 | 0.00 | 0.00 | 66 | 1012.7 |
| 20260508173529 | 79 | 360 | 2.6 | 4.3 | 0.00 | 0.00 | 0.00 | 65 | 1012.7 |
| 20260508173430 | 79 | 360 | 2.6 | 4.3 | 0.00 | 0.00 | 0.00 | 65 | 1012.7 |
| 20260508173330 | 79 | 42 | 2.6 | 4.3 | 0.00 | 0.00 | 0.00 | 65 | 1012.8 |
| 20260508173231 | 79 | 50 | 2.6 | 4.3 | 0.00 | 0.00 | 0.00 | 65 | 1012.8 |
| 20260508173131 | 79 | 64 | 2.6 | 4.3 | 0.00 | 0.00 | 0.00 | 65 | 1012.8 |
| 20260508173032 | 80 | 360 | 2.6 | 4.3 | 0.00 | 0.00 | 0.00 | 65 | 1012.9 |
| 20260508172916 | 80 | 360 | 1.7 | 4.3 | 0.00 | 0.00 | 0.00 | 67 | 1013.0 |
| 20260508172816 | 79 | 360 | 1.7 | 4.3 | 0.00 | 0.00 | 0.00 | 67 | 1013.0 |
| 20260508172737 | 79 | 89 | 1.7 | 4.3 | 0.00 | 0.00 | 0.00 | 67 | 1013.0 |
| 20260508172617 | 78 | 85 | 2.6 | 4.3 | 0.00 | 0.00 | 0.00 | 67 | 1013.0 |
| 20260508172518 | 78 | 360 | 2.6 | 4.3 | 0.00 | 0.00 | 0.00 | 68 | 1013.0 |
| 20260508172418 | 78 | 360 | 2.6 | 4.3 | 0.00 | 0.00 | 0.00 | 67 | 1013.1 |
| 20260508172319 | 78 | 360 | 2.6 | 4.3 | 0.00 | 0.00 | 0.00 | 66 | 1013.0 |
| 20260508172240 | 78 | 360 | 2.6 | 4.3 | 0.00 | 0.00 | 0.00 | 66 | 1013.0 |
| 20260508172143 | 78 | 360 | 2.6 | 3.5 | 0.00 | 0.00 | 0.00 | 65 | 1013.0 |
| 20260508172016 | 79 | 360 | 2.6 | 3.5 | 0.00 | 0.00 | 0.00 | 64 | 1013.0 |
| 20260508171916 | 79 | 360 | 2.6 | 3.5 | 0.00 | 0.00 | 0.00 | 64 | 1013.1 |
| 20260508171816 | 80 | 75 | 1.7 | 3.5 | 0.00 | 0.00 | 0.00 | 64 | 1013.1 |
| 20260508171715 | 80 | 360 | 1.7 | 3.5 | 0.00 | 0.00 | 0.00 | 65 | 1013.1 |
| 20260508171616 | 80 | 360 | 0.9 | 3.5 | 0.00 | 0.00 | 0.00 | 65 | 1013.1 |
| 20260508171516 | 80 | 65 | 0.9 | 3.5 | 0.00 | 0.00 | 0.00 | 65 | 1013.1 |
| 20260508171421 | 80 | 360 | 1.7 | 3.5 | 0.00 | 0.00 | 0.00 | 65 | 1013.1 |
| 20260508171321 | 80 | 360 | 1.7 | 3.5 | 0.00 | 0.00 | 0.00 | 66 | 1013.1 |
| 20260508171240 | 79 | 360 | 1.7 | 4.3 | 0.00 | 0.00 | 0.00 | 66 | 1013.0 |
| 20260508171120 | 79 | 92 | 1.7 | 4.3 | 0.00 | 0.00 | 0.00 | 67 | 1013.1 |
| 20260508171021 | 79 | 360 | 1.7 | 4.3 | 0.00 | 0.00 | 0.00 | 67 | 1013.1 |
| 20260508170921 | 78 | 360 | 1.7 | 4.3 | 0.00 | 0.00 | 0.00 | 68 | 1013.0 |
| 20260508170822 | 79 | 360 | 1.7 | 4.3 | 0.00 | 0.00 | 0.00 | 67 | 1013.0 |
| 20260508170726 | 79 | 360 | 1.7 | 4.3 | 0.00 | 0.00 | 0.00 | 67 | 1013.0 |
| 20260508170627 | 79 | 360 | 1.7 | 4.3 | 0.00 | 0.00 | 0.00 | 67 | 1013.0 |
| 20260508170526 | 79 | 360 | 1.7 | 4.3 | 0.00 | 0.00 | 0.00 | 68 | 1013.0 |
| 20260508170445 | 78 | 360 | 1.7 | 5.2 | 0.00 | 0.00 | 0.00 | 68 | 1013.0 |
| 20260508170325 | 78 | 360 | 1.7 | 5.2 | 0.00 | 0.00 | 0.00 | 69 | 1012.9 |
| 20260508170225 | 77 | 66 | 1.7 | 5.2 | 0.00 | 0.00 | 0.00 | 69 | 1013.0 |
| 20260508170145 | 77 | 360 | 1.7 | 5.2 | 0.00 | 0.00 | 0.00 | 68 | 1013.0 |
| 20260508170025 | 77 | 360 | 1.7 | 5.2 | 0.00 | 0.00 | 0.00 | 68 | 1013.0 |
| 20260508165930 | 77 | 360 | 1.7 | 5.2 | 0.00 | 0.00 | 0.00 | 67 | 1013.0 |
| 20260508165851 | 77 | 42 | 2.6 | 5.2 | 0.00 | 0.00 | 0.00 | 67 | 1013.1 |
| 20260508165732 | 77 | 360 | 2.6 | 5.2 | 0.00 | 0.00 | 0.00 | 67 | 1013.2 |
| 20260508165632 | 78 | 360 | 1.7 | 5.2 | 0.00 | 0.00 | 0.00 | 68 | 1013.2 |
| 20260508165552 | 78 | 360 | 1.7 | 5.2 | 0.00 | 0.00 | 0.00 | 68 | 1013.2 |
| 20260508165431 | 77 | 360 | 0.9 | 3.5 | 0.00 | 0.00 | 0.00 | 70 | 1013.2 |
| 20260508165332 | 77 | 360 | 0.9 | 4.3 | 0.00 | 0.00 | 0.00 | 70 | 1013.3 |
| 20260508165252 | 76 | 360 | 0.9 | 4.3 | 0.00 | 0.00 | 0.00 | 71 | 1013.3 |
| 20260508165135 | 76 | 120 | 0.9 | 5.2 | 0.00 | 0.00 | 0.00 | 71 | 1013.4 |
| 20260508165056 | 75 | 360 | 0.9 | 5.2 | 0.00 | 0.00 | 0.00 | 71 | 1013.3 |
| 20260508164935 | 75 | 360 | 1.7 | 5.2 | 0.00 | 0.00 | 0.00 | 71 | 1013.3 |
| 20260508164856 | 75 | 121 | 1.7 | 5.2 | 0.00 | 0.00 | 0.00 | 71 | 1013.3 |
| 20260508164715 | 74 | 360 | 2.6 | 5.2 | 0.00 | 0.00 | 0.00 | 71 | 1013.2 |
| 20260508164635 | 75 | 360 | 3.5 | 5.2 | 0.00 | 0.00 | 0.00 | 70 | 1013.2 |
| 20260508164556 | 75 | 90 | 3.5 | 5.2 | 0.00 | 0.00 | 0.00 | 70 | 1013.3 |
| 20260508164420 | 75 | 360 | 2.6 | 5.2 | 0.00 | 0.00 | 0.00 | 70 | 1013.3 |
| 20260508164321 | 75 | 360 | 2.6 | 5.2 | 0.00 | 0.00 | 0.00 | 69 | 1013.3 |
| 20260508164222 | 75 | 360 | 1.7 | 4.3 | 0.00 | 0.00 | 0.00 | 70 | 1013.3 |
| 20260508164121 | 75 | 360 | 1.7 | 5.2 | 0.00 | 0.00 | 0.00 | 70 | 1013.3 |
| 20260508164022 | 75 | 360 | 2.6 | 5.2 | 0.00 | 0.00 | 0.00 | 69 | 1013.3 |
| 20260508163923 | 75 | 360 | 2.6 | 5.2 | 0.00 | 0.00 | 0.00 | 70 | 1013.3 |
| 20260508163824 | 75 | 360 | 2.6 | 5.2 | 0.00 | 0.00 | 0.00 | 68 | 1013.3 |
| 20260508163727 | 76 | 360 | 2.6 | 5.2 | 0.00 | 0.00 | 0.00 | 68 | 1013.3 |
| 20260508163628 | 76 | 360 | 2.6 | 3.5 | 0.00 | 0.00 | 0.00 | 68 | 1013.4 |
| 20260508163527 | 77 | 360 | 2.6 | 3.5 | 0.00 | 0.00 | 0.00 | 66 | 1013.4 |
| 20260508163428 | 77 | 360 | 2.6 | 3.5 | 0.00 | 0.00 | 0.00 | 66 | 1013.3 |
| 20260508163328 | 77 | 360 | 1.7 | 3.5 | 0.00 | 0.00 | 0.00 | 66 | 1013.4 |
| 20260508163228 | 78 | 360 | 1.7 | 3.5 | 0.00 | 0.00 | 0.00 | 67 | 1013.4 |
| 20260508163128 | 77 | 360 | 1.7 | 3.5 | 0.00 | 0.00 | 0.00 | 68 | 1013.4 |
| 20260508163053 | 76 | 360 | 1.7 | 3.5 | 0.00 | 0.00 | 0.00 | 68 | 1013.5 |
| 20260508162952 | 76 | 360 | 1.7 | 3.5 | 0.00 | 0.00 | 0.00 | 68 | 1013.6 |
| 20260508162831 | 76 | 360 | 1.7 | 3.5 | 0.00 | 0.00 | 0.00 | 68 | 1013.5 |
| 20260508162733 | 76 | 109 | 1.7 | 3.5 | 0.00 | 0.00 | 0.00 | 68 | 1013.7 |
| 20260508162630 | 76 | 360 | 1.7 | 3.5 | 0.00 | 0.00 | 0.00 | 70 | 1013.7 |
| 20260508162531 | 75 | 360 | 1.7 | 3.5 | 0.00 | 0.00 | 0.00 | 70 | 1013.8 |
| 20260508162431 | 75 | 360 | 1.7 | 3.5 | 0.00 | 0.00 | 0.00 | 70 | 1013.8 |
| 20260508162351 | 75 | 360 | 1.7 | 5.2 | 0.00 | 0.00 | 0.00 | 70 | 1013.8 |
| 20260508162216 | 74 | 360 | 1.7 | 5.2 | 0.00 | 0.00 | 0.00 | 70 | 1013.8 |
| 20260508162117 | 74 | 360 | 1.7 | 5.2 | 0.00 | 0.00 | 0.00 | 70 | 1013.8 |
| 20260508162017 | 74 | 360 | 1.7 | 5.2 | 0.00 | 0.00 | 0.00 | 70 | 1013.8 |
| 20260508161917 | 74 | 360 | 1.7 | 5.2 | 0.00 | 0.00 | 0.00 | 70 | 1013.8 |
| 20260508161818 | 74 | 360 | 1.7 | 5.2 | 0.00 | 0.00 | 0.00 | 70 | 1013.9 |
| 20260508161718 | 74 | 105 | 2.6 | 5.2 | 0.00 | 0.00 | 0.00 | 70 | 1014.0 |
| 20260508161638 | 74 | 360 | 2.6 | 4.3 | 0.00 | 0.00 | 0.00 | 69 | 1013.9 |
| 20260508161522 | 74 | 360 | 2.6 | 4.3 | 0.00 | 0.00 | 0.00 | 69 | 1013.9 |
| 20260508161422 | 74 | 360 | 2.6 | 4.3 | 0.00 | 0.00 | 0.00 | 69 | 1013.9 |
| 20260508161323 | 75 | 360 | 1.7 | 4.3 | 0.00 | 0.00 | 0.00 | 68 | 1013.9 |
| 20260508161224 | 75 | 360 | 1.7 | 4.3 | 0.00 | 0.00 | 0.00 | 68 | 1013.9 |
| 20260508161124 | 75 | 360 | 0.9 | 4.3 | 0.00 | 0.00 | 0.00 | 70 | 1013.9 |
| 20260508161024 | 75 | 360 | 0.9 | 2.6 | 0.00 | 0.00 | 0.00 | 70 | 1014.0 |
| 20260508160945 | 74 | 360 | 0.9 | 3.5 | 0.00 | 0.00 | 0.00 | 71 | 1014.0 |
| 20260508160830 | 73 | 360 | 0.9 | 3.5 | 0.00 | 0.00 | 0.00 | 71 | 1014.0 |
| 20260508160730 | 73 | 360 | 0.9 | 3.5 | 0.00 | 0.00 | 0.00 | 73 | 1014.0 |
| 20260508160630 | 73 | 360 | 0.9 | 3.5 | 0.00 | 0.00 | 0.00 | 74 | 1013.9 |
| 20260508160550 | 72 | 360 | 0.9 | 3.5 | 0.00 | 0.00 | 0.00 | 73 | 1014.0 |
| 20260508160430 | 72 | 360 | 0.9 | 3.5 | 0.00 | 0.00 | 0.00 | 73 | 1013.9 |
| 20260508160330 | 71 | 360 | 0.9 | 3.5 | 0.00 | 0.00 | 0.00 | 73 | 1014.0 |
| 20260508160251 | 71 | 360 | 1.7 | 3.5 | 0.00 | 0.00 | 0.00 | 74 | 1013.9 |
| 20260508160129 | 71 | 360 | 1.7 | 3.5 | 0.00 | 0.00 | 0.00 | 74 | 1014.0 |
| 20260508160033 | 71 | 360 | 1.7 | 2.6 | 0.00 | 0.00 | 0.00 | 74 | 1014.1 |
| 20260508155934 | 70 | 360 | 1.7 | 2.6 | 0.00 | 0.00 | 0.00 | 74 | 1014.1 |
| 20260508155855 | 70 | 360 | 1.7 | 2.6 | 0.00 | 0.00 | 0.00 | 74 | 1014.1 |
| 20260508155735 | 70 | 360 | 1.7 | 2.6 | 0.00 | 0.00 | 0.00 | 74 | 1014.0 |
| 20260508155634 | 70 | 360 | 0.9 | 2.6 | 0.00 | 0.00 | 0.00 | 74 | 1014.0 |
| 20260508155535 | 70 | 360 | 0.9 | 2.6 | 0.00 | 0.00 | 0.00 | 74 | 1014.1 |
| 20260508155455 | 70 | 360 | 0.9 | 2.6 | 0.00 | 0.00 | 0.00 | 74 | 1014.1 |
| 20260508155319 | 70 | 360 | 1.7 | 2.6 | 0.00 | 0.00 | 0.00 | 73 | 1014.2 |
| 20260508155218 | 70 | 360 | 1.7 | 2.6 | 0.00 | 0.00 | 0.00 | 73 | 1014.2 |
| 20260508155119 | 70 | 360 | 1.7 | 2.6 | 0.00 | 0.00 | 0.00 | 73 | 1014.2 |
| 20260508155020 | 70 | 360 | 1.7 | 2.6 | 0.00 | 0.00 | 0.00 | 73 | 1014.1 |
| 20260508154940 | 70 | 360 | 1.7 | 2.6 | 0.00 | 0.00 | 0.00 | 73 | 1014.1 |
| 20260508154820 | 70 | 360 | 1.7 | 2.6 | 0.00 | 0.00 | 0.00 | 73 | 1014.2 |
| 20260508154720 | 70 | 360 | 0.9 | 2.6 | 0.00 | 0.00 | 0.00 | 73 | 1014.3 |
| 20260508154645 | 70 | 360 | 0.9 | 1.7 | 0.00 | 0.00 | 0.00 | 74 | 1014.2 |
| 20260508154524 | 70 | 360 | 0.9 | 1.7 | 0.00 | 0.00 | 0.00 | 74 | 1014.2 |
| 20260508154425 | 70 | 360 | 0.9 | 2.6 | 0.00 | 0.00 | 0.00 | 74 | 1014.1 |
| 20260508154322 | 70 | 360 | 0.9 | 2.6 | 0.00 | 0.00 | 0.00 | 74 | 1014.1 |
| 20260508154222 | 70 | 360 | 0.9 | 2.6 | 0.00 | 0.00 | 0.00 | 74 | 1014.2 |
| 20260508154143 | 70 | 360 | 0.9 | 2.6 | 0.00 | 0.00 | 0.00 | 74 | 1014.1 |
| 20260508154022 | 70 | 360 | 0.9 | 2.6 | 0.00 | 0.00 | 0.00 | 74 | 1014.1 |
| 20260508153922 | 69 | 360 | 0.9 | 2.6 | 0.00 | 0.00 | 0.00 | 74 | 1014.2 |
| 20260508153827 | 69 | 360 | 0.9 | 2.6 | 0.00 | 0.00 | 0.00 | 74 | 1014.2 |
| 20260508153728 | 69 | 360 | 0.9 | 2.6 | 0.00 | 0.00 | 0.00 | 74 | 1014.2 |
| 20260508153628 | 69 | 360 | 0.9 | 2.6 | 0.00 | 0.00 | 0.00 | 74 | 1014.2 |
| 20260508153529 | 69 | 360 | 0.9 | 2.6 | 0.00 | 0.00 | 0.00 | 74 | 1014.2 |
| 20260508153449 | 69 | 360 | 0.9 | 2.6 | 0.00 | 0.00 | 0.00 | 74 | 1014.1 |
| 20260508153328 | 69 | 360 | 0.9 | 2.6 | 0.00 | 0.00 | 0.00 | 75 | 1014.2 |
| 20260508153229 | 69 | 360 | 0.9 | 2.6 | 0.00 | 0.00 | 0.00 | 75 | 1014.2 |
| 20260508153133 | 69 | 360 | 0.9 | 2.6 | 0.00 | 0.00 | 0.00 | 75 | 1014.2 |
| 20260508153033 | 68 | 360 | 0.9 | 2.6 | 0.00 | 0.00 | 0.00 | 75 | 1014.3 |
| 20260508152934 | 68 | 360 | 0.9 | 2.6 | 0.00 | 0.00 | 0.00 | 75 | 1014.3 |
| 20260508152834 | 68 | 360 | 0.9 | 2.6 | 0.00 | 0.00 | 0.00 | 75 | 1014.3 |
| 20260508152736 | 68 | 360 | 1.7 | 2.6 | 0.00 | 0.00 | 0.00 | 75 | 1014.3 |
| 20260508152635 | 68 | 360 | 1.7 | 2.6 | 0.00 | 0.00 | 0.00 | 75 | 1014.4 |
| 20260508152520 | 68 | 360 | 0.9 | 2.6 | 0.00 | 0.00 | 0.00 | 75 | 1014.4 |
| 20260508152421 | 68 | 360 | 1.7 | 2.6 | 0.00 | 0.00 | 0.00 | 75 | 1014.4 |
| 20260508152321 | 68 | 360 | 0.9 | 2.6 | 0.00 | 0.00 | 0.00 | 75 | 1014.5 |
| 20260508152221 | 68 | 360 | 0.9 | 2.6 | 0.00 | 0.00 | 0.00 | 75 | 1014.5 |
| 20260508152121 | 68 | 360 | 0.9 | 2.6 | 0.00 | 0.00 | 0.00 | 76 | 1014.5 |
| 20260508152022 | 68 | 360 | 0.9 | 2.6 | 0.00 | 0.00 | 0.00 | 76 | 1014.5 |
| 20260508151942 | 68 | 360 | 0.9 | 2.6 | 0.00 | 0.00 | 0.00 | 76 | 1014.4 |
| 20260508151826 | 68 | 360 | 0.9 | 2.6 | 0.00 | 0.00 | 0.00 | 76 | 1014.4 |
| 20260508151726 | 68 | 360 | 1.7 | 2.6 | 0.00 | 0.00 | 0.00 | 76 | 1014.5 |
| 20260508151627 | 68 | 360 | 1.7 | 2.6 | 0.00 | 0.00 | 0.00 | 77 | 1014.5 |
| 20260508151549 | 68 | 360 | 1.7 | 2.6 | 0.00 | 0.00 | 0.00 | 77 | 1014.4 |
| 20260508151428 | 68 | 360 | 1.7 | 2.6 | 0.00 | 0.00 | 0.00 | 76 | 1014.5 |
| 20260508151328 | 68 | 360 | 1.7 | 3.5 | 0.00 | 0.00 | 0.00 | 76 | 1014.5 |
| 20260508151229 | 68 | 360 | 1.7 | 5.2 | 0.00 | 0.00 | 0.00 | 76 | 1014.5 |
| 20260508151150 | 67 | 360 | 0.9 | 5.2 | 0.00 | 0.00 | 0.00 | 76 | 1014.5 |
| 20260508151032 | 67 | 360 | 0.9 | 5.2 | 0.00 | 0.00 | 0.00 | 76 | 1014.5 |
| 20260508150933 | 67 | 360 | 1.7 | 5.2 | 0.00 | 0.00 | 0.00 | 76 | 1014.6 |
| 20260508150833 | 67 | 360 | 1.7 | 5.2 | 0.00 | 0.00 | 0.00 | 76 | 1014.5 |
| 20260508150734 | 67 | 360 | 1.7 | 5.2 | 0.00 | 0.00 | 0.00 | 76 | 1014.5 |
| 20260508150634 | 67 | 360 | 2.6 | 5.2 | 0.00 | 0.00 | 0.00 | 76 | 1014.5 |
| 20260508150534 | 67 | 360 | 3.5 | 5.2 | 0.00 | 0.00 | 0.00 | 76 | 1014.5 |
| 20260508150419 | 67 | 360 | 3.5 | 5.2 | 0.00 | 0.00 | 0.00 | 76 | 1014.5 |
| 20260508150319 | 67 | 360 | 2.6 | 5.2 | 0.00 | 0.00 | 0.00 | 76 | 1014.6 |
| 20260508150219 | 67 | 360 | 2.6 | 5.2 | 0.00 | 0.00 | 0.00 | 77 | 1014.5 |
| 20260508150120 | 67 | 360 | 1.7 | 5.2 | 0.00 | 0.00 | 0.00 | 77 | 1014.5 |
| 20260508150040 | 67 | 360 | 0.9 | 5.2 | 0.00 | 0.00 | 0.00 | 77 | 1014.6 |
| 20260508145940 | 67 | 360 | 1.7 | 5.2 | 0.00 | 0.00 | 0.00 | 77 | 1014.6 |
| 20260508145821 | 67 | 360 | 0.9 | 5.2 | 0.00 | 0.00 | 0.00 | 77 | 1014.6 |
| 20260508145724 | 66 | 360 | 1.7 | 5.2 | 0.00 | 0.00 | 0.00 | 77 | 1014.5 |
| 20260508145625 | 66 | 360 | 1.7 | 5.2 | 0.00 | 0.00 | 0.00 | 77 | 1014.6 |
| 20260508145526 | 66 | 360 | 1.7 | 5.2 | 0.00 | 0.00 | 0.00 | 77 | 1014.6 |
| 20260508145427 | 66 | 360 | 2.6 | 5.2 | 0.00 | 0.00 | 0.00 | 77 | 1014.7 |
| 20260508145326 | 66 | 360 | 2.6 | 4.3 | 0.00 | 0.00 | 0.00 | 77 | 1014.6 |
| 20260508145226 | 66 | 360 | 3.5 | 4.3 | 0.00 | 0.00 | 0.00 | 77 | 1014.6 |
| 20260508145126 | 66 | 360 | 3.5 | 5.2 | 0.00 | 0.00 | 0.00 | 77 | 1014.6 |
| 20260508145026 | 66 | 360 | 3.5 | 5.2 | 0.00 | 0.00 | 0.00 | 76 | 1014.6 |
| 20260508144930 | 66 | 360 | 2.6 | 5.2 | 0.00 | 0.00 | 0.00 | 76 | 1014.6 |
| 20260508144830 | 66 | 360 | 2.6 | 5.2 | 0.00 | 0.00 | 0.00 | 76 | 1014.6 |
| 20260508144750 | 66 | 360 | 1.7 | 5.2 | 0.00 | 0.00 | 0.00 | 77 | 1014.5 |
| 20260508144630 | 66 | 360 | 1.7 | 5.2 | 0.00 | 0.00 | 0.00 | 77 | 1014.5 |
| 20260508144530 | 66 | 360 | 2.6 | 5.2 | 0.00 | 0.00 | 0.00 | 78 | 1014.5 |
| 20260508144450 | 66 | 360 | 2.6 | 5.2 | 0.00 | 0.00 | 0.00 | 77 | 1014.5 |
| 20260508144330 | 66 | 360 | 3.5 | 5.2 | 0.00 | 0.00 | 0.00 | 77 | 1014.5 |
| 20260508144250 | 66 | 360 | 3.5 | 5.2 | 0.00 | 0.00 | 0.00 | 77 | 1014.4 |
| 20260508144133 | 66 | 360 | 2.6 | 5.2 | 0.00 | 0.00 | 0.00 | 77 | 1014.4 |
| 20260508144033 | 66 | 360 | 2.6 | 5.2 | 0.00 | 0.00 | 0.00 | 78 | 1014.5 |
| 20260508143934 | 65 | 360 | 2.6 | 5.2 | 0.00 | 0.00 | 0.00 | 78 | 1014.4 |
| 20260508143835 | 65 | 360 | 2.6 | 5.2 | 0.00 | 0.00 | 0.00 | 78 | 1014.5 |
| 20260508143735 | 65 | 360 | 2.6 | 5.2 | 0.00 | 0.00 | 0.00 | 78 | 1014.5 |
| 20260508143656 | 65 | 360 | 2.6 | 5.2 | 0.00 | 0.00 | 0.00 | 78 | 1014.5 |
| 20260508143534 | 65 | 360 | 2.6 | 5.2 | 0.00 | 0.00 | 0.00 | 78 | 1014.5 |
| 20260508143419 | 65 | 360 | 2.6 | 5.2 | 0.00 | 0.00 | 0.00 | 78 | 1014.5 |
| 20260508143339 | 65 | 360 | 2.6 | 5.2 | 0.00 | 0.00 | 0.00 | 78 | 1014.5 |
| 20260508143219 | 65 | 360 | 2.6 | 7.0 | 0.00 | 0.00 | 0.00 | 78 | 1014.5 |
| 20260508143118 | 65 | 360 | 2.6 | 7.8 | 0.00 | 0.00 | 0.00 | 78 | 1014.6 |
| 20260508143019 | 65 | 360 | 2.6 | 7.8 | 0.00 | 0.00 | 0.00 | 78 | 1014.6 |
| 20260508142919 | 65 | 360 | 2.6 | 7.8 | 0.00 | 0.00 | 0.00 | 78 | 1014.5 |
| 20260508142821 | 65 | 360 | 3.5 | 7.8 | 0.00 | 0.00 | 0.00 | 78 | 1014.6 |
| 20260508142724 | 65 | 360 | 3.5 | 7.8 | 0.00 | 0.00 | 0.00 | 78 | 1014.6 |
| 20260508142644 | 65 | 360 | 3.5 | 7.8 | 0.00 | 0.00 | 0.00 | 79 | 1014.6 |
| 20260508142520 | 65 | 360 | 4.3 | 7.8 | 0.00 | 0.00 | 0.00 | 79 | 1014.6 |
| 20260508142421 | 65 | 360 | 3.5 | 7.8 | 0.00 | 0.00 | 0.00 | 79 | 1014.5 |
| 20260508142322 | 65 | 360 | 3.5 | 7.8 | 0.00 | 0.00 | 0.00 | 79 | 1014.5 |
| 20260508142222 | 65 | 360 | 3.5 | 7.8 | 0.00 | 0.00 | 0.00 | 79 | 1014.5 |
| 20260508142122 | 64 | 360 | 3.5 | 7.0 | 0.00 | 0.00 | 0.00 | 79 | 1014.5 |
| 20260508142028 | 64 | 360 | 3.5 | 7.0 | 0.00 | 0.00 | 0.00 | 79 | 1014.5 |
| 20260508141947 | 64 | 360 | 3.5 | 7.0 | 0.00 | 0.00 | 0.00 | 79 | 1014.5 |
| 20260508141847 | 64 | 360 | 3.5 | 7.0 | 0.00 | 0.00 | 0.00 | 79 | 1014.5 |
| 20260508141727 | 64 | 360 | 3.5 | 7.0 | 0.00 | 0.00 | 0.00 | 79 | 1014.5 |
| 20260508141627 | 64 | 360 | 3.5 | 7.0 | 0.00 | 0.00 | 0.00 | 79 | 1014.5 |
| 20260508141527 | 64 | 360 | 3.5 | 7.0 | 0.00 | 0.00 | 0.00 | 79 | 1014.5 |
| 20260508141427 | 64 | 360 | 3.5 | 7.0 | 0.00 | 0.00 | 0.00 | 80 | 1014.6 |
| 20260508141332 | 64 | 360 | 3.5 | 7.0 | 0.00 | 0.00 | 0.00 | 80 | 1014.6 |
| 20260508141232 | 64 | 360 | 2.6 | 5.2 | 0.00 | 0.00 | 0.00 | 80 | 1014.5 |
| 20260508141132 | 64 | 360 | 2.6 | 5.2 | 0.00 | 0.00 | 0.00 | 80 | 1014.6 |
| 20260508141033 | 64 | 360 | 2.6 | 4.3 | 0.00 | 0.00 | 0.00 | 80 | 1014.5 |
| 20260508140933 | 64 | 360 | 2.6 | 4.3 | 0.00 | 0.00 | 0.00 | 80 | 1014.5 |
| 20260508140833 | 64 | 360 | 2.6 | 4.3 | 0.00 | 0.00 | 0.00 | 80 | 1014.6 |
| 20260508140718 | 64 | 360 | 1.7 | 4.3 | 0.00 | 0.00 | 0.00 | 80 | 1014.6 |
| 20260508140618 | 64 | 360 | 1.7 | 4.3 | 0.00 | 0.00 | 0.00 | 80 | 1014.6 |
| 20260508140518 | 64 | 360 | 1.7 | 4.3 | 0.00 | 0.00 | 0.00 | 80 | 1014.5 |
| 20260508140418 | 63 | 360 | 1.7 | 4.3 | 0.00 | 0.00 | 0.00 | 80 | 1014.5 |
| 20260508140319 | 63 | 360 | 2.6 | 4.3 | 0.00 | 0.00 | 0.00 | 80 | 1014.5 |
| 20260508140220 | 63 | 360 | 2.6 | 4.3 | 0.00 | 0.00 | 0.00 | 80 | 1014.4 |
| 20260508140120 | 63 | 360 | 2.6 | 4.3 | 0.00 | 0.00 | 0.00 | 80 | 1014.5 |
| 20260508140024 | 63 | 360 | 2.6 | 4.3 | 0.00 | 0.00 | 0.00 | 80 | 1014.5 |
| 20260508135925 | 63 | 360 | 2.6 | 4.3 | 0.00 | 0.00 | 0.00 | 80 | 1014.5 |
| 20260508135827 | 63 | 360 | 1.7 | 4.3 | 0.00 | 0.00 | 0.00 | 81 | 1014.5 |
| 20260508135725 | 63 | 360 | 1.7 | 3.5 | 0.00 | 0.00 | 0.00 | 81 | 1014.5 |
| 20260508135625 | 63 | 360 | 1.7 | 5.2 | 0.00 | 0.00 | 0.00 | 80 | 1014.5 |
| 20260508135526 | 63 | 101 | 1.7 | 5.2 | 0.00 | 0.00 | 0.00 | 80 | 1014.5 |
| 20260508135431 | 63 | 360 | 1.7 | 5.2 | 0.00 | 0.00 | 0.00 | 80 | 1014.4 |
| 20260508135331 | 63 | 360 | 1.7 | 5.2 | 0.00 | 0.00 | 0.00 | 80 | 1014.6 |
| 20260508135232 | 63 | 360 | 1.7 | 5.2 | 0.00 | 0.00 | 0.00 | 80 | 1014.6 |
| 20260508135132 | 63 | 360 | 1.7 | 5.2 | 0.00 | 0.00 | 0.00 | 81 | 1014.5 |
| 20260508135032 | 63 | 360 | 1.7 | 5.2 | 0.00 | 0.00 | 0.00 | 81 | 1014.6 |
| 20260508134953 | 63 | 360 | 2.6 | 5.2 | 0.00 | 0.00 | 0.00 | 80 | 1014.6 |
| 20260508134833 | 63 | 360 | 2.6 | 5.2 | 0.00 | 0.00 | 0.00 | 80 | 1014.7 |
| 20260508134717 | 63 | 360 | 3.5 | 5.2 | 0.00 | 0.00 | 0.00 | 80 | 1014.6 |
| 20260508134618 | 63 | 360 | 2.6 | 5.2 | 0.00 | 0.00 | 0.00 | 80 | 1014.6 |
| 20260508134519 | 63 | 360 | 2.6 | 5.2 | 0.00 | 0.00 | 0.00 | 80 | 1014.6 |
| 20260508134438 | 63 | 360 | 2.6 | 4.3 | 0.00 | 0.00 | 0.00 | 81 | 1014.7 |
| 20260508134318 | 63 | 65 | 1.7 | 3.5 | 0.00 | 0.00 | 0.00 | 81 | 1014.7 |
| 20260508134219 | 63 | 360 | 2.6 | 3.5 | 0.00 | 0.00 | 0.00 | 81 | 1014.7 |
| 20260508134119 | 63 | 360 | 2.6 | 3.5 | 0.00 | 0.00 | 0.00 | 81 | 1014.7 |
| 20260508134025 | 63 | 360 | 1.7 | 3.5 | 0.00 | 0.00 | 0.00 | 81 | 1014.7 |
| 20260508133925 | 63 | 360 | 2.6 | 3.5 | 0.00 | 0.00 | 0.00 | 81 | 1014.7 |
| 20260508133826 | 63 | 360 | 2.6 | 3.5 | 0.00 | 0.00 | 0.00 | 81 | 1014.7 |
| 20260508133746 | 63 | 360 | 2.6 | 3.5 | 0.00 | 0.00 | 0.00 | 81 | 1014.7 |
| 20260508133646 | 63 | 360 | 1.7 | 3.5 | 0.00 | 0.00 | 0.00 | 81 | 1014.7 |
| 20260508133545 | 63 | 360 | 1.7 | 3.5 | 0.00 | 0.00 | 0.00 | 81 | 1014.7 |
| 20260508133424 | 62 | 84 | 1.7 | 3.5 | 0.00 | 0.00 | 0.00 | 81 | 1014.6 |
| 20260508133325 | 62 | 360 | 0.9 | 3.5 | 0.00 | 0.00 | 0.00 | 81 | 1014.6 |
| 20260508133248 | 62 | 360 | 1.7 | 3.5 | 0.00 | 0.00 | 0.00 | 81 | 1014.6 |
| 20260508133149 | 62 | 360 | 1.7 | 3.5 | 0.00 | 0.00 | 0.00 | 81 | 1014.6 |
| 20260508133048 | 62 | 360 | 1.7 | 3.5 | 0.00 | 0.00 | 0.00 | 81 | 1014.7 |
| 20260508132928 | 62 | 360 | 1.7 | 3.5 | 0.00 | 0.00 | 0.00 | 81 | 1014.6 |
| 20260508132829 | 62 | 360 | 1.7 | 2.6 | 0.00 | 0.00 | 0.00 | 81 | 1014.6 |
| 20260508132730 | 62 | 65 | 1.7 | 2.6 | 0.00 | 0.00 | 0.00 | 81 | 1014.7 |
| 20260508132630 | 62 | 51 | 1.7 | 2.6 | 0.00 | 0.00 | 0.00 | 81 | 1014.8 |
| 20260508132530 | 62 | 46 | 1.7 | 2.6 | 0.00 | 0.00 | 0.00 | 81 | 1014.8 |
| 20260508132435 | 62 | 360 | 1.7 | 2.6 | 0.00 | 0.00 | 0.00 | 81 | 1014.8 |
| 20260508132316 | 62 | 360 | 1.7 | 4.3 | 0.00 | 0.00 | 0.00 | 81 | 1014.8 |
| 20260508132217 | 62 | 360 | 1.7 | 4.3 | 0.00 | 0.00 | 0.00 | 81 | 1014.8 |
| 20260508132117 | 62 | 360 | 1.7 | 4.3 | 0.00 | 0.00 | 0.00 | 81 | 1015.0 |
| 20260508132018 | 62 | 50 | 1.7 | 4.3 | 0.00 | 0.00 | 0.00 | 81 | 1014.9 |
| 20260508131918 | 62 | 50 | 0.9 | 4.3 | 0.00 | 0.00 | 0.00 | 81 | 1015.0 |
| 20260508131822 | 62 | 51 | 0.9 | 4.3 | 0.00 | 0.00 | 0.00 | 81 | 1015.0 |
| 20260508131743 | 62 | 360 | 0.9 | 4.3 | 0.00 | 0.00 | 0.00 | 81 | 1015.0 |
| 20260508131622 | 62 | 360 | 1.7 | 5.2 | 0.00 | 0.00 | 0.00 | 81 | 1014.9 |
| 20260508131542 | 62 | 49 | 1.7 | 5.2 | 0.00 | 0.00 | 0.00 | 81 | 1014.9 |
| 20260508131416 | 62 | 360 | 2.6 | 5.2 | 0.00 | 0.00 | 0.00 | 81 | 1014.8 |
| 20260508131316 | 62 | 360 | 2.6 | 5.2 | 0.00 | 0.00 | 0.00 | 81 | 1014.8 |
| 20260508131216 | 62 | 360 | 2.6 | 7.0 | 0.00 | 0.00 | 0.00 | 81 | 1014.8 |
| 20260508131121 | 62 | 360 | 2.6 | 7.0 | 0.00 | 0.00 | 0.00 | 81 | 1014.8 |
| 20260508131022 | 62 | 360 | 2.6 | 7.0 | 0.00 | 0.00 | 0.00 | 81 | 1014.7 |
| 20260508130943 | 62 | 360 | 3.5 | 7.0 | 0.00 | 0.00 | 0.00 | 81 | 1014.7 |
| 20260508130824 | 62 | 326 | 3.5 | 7.0 | 0.00 | 0.00 | 0.00 | 81 | 1014.7 |
| 20260508130723 | 62 | 360 | 3.5 | 7.0 | 0.00 | 0.00 | 0.00 | 81 | 1014.6 |
| 20260508130624 | 62 | 360 | 3.5 | 7.0 | 0.00 | 0.00 | 0.00 | 81 | 1014.6 |
| 20260508130525 | 62 | 360 | 2.6 | 5.2 | 0.00 | 0.00 | 0.00 | 81 | 1014.6 |
| 20260508130425 | 62 | 360 | 2.6 | 4.3 | 0.00 | 0.00 | 0.00 | 82 | 1014.6 |
| 20260508130329 | 62 | 360 | 1.7 | 4.3 | 0.00 | 0.00 | 0.00 | 82 | 1014.6 |
| 20260508130229 | 62 | 360 | 1.7 | 4.3 | 0.00 | 0.00 | 0.00 | 82 | 1014.6 |
| 20260508130129 | 62 | 360 | 1.7 | 5.2 | 0.00 | 0.00 | 0.00 | 82 | 1014.7 |
| 20260508130029 | 62 | 360 | 2.6 | 5.2 | 0.00 | 0.00 | 0.00 | 82 | 1014.6 |
| 20260508125931 | 62 | 360 | 2.6 | 5.2 | 0.00 | 0.00 | 0.00 | 82 | 1014.8 |
| 20260508125850 | 62 | 360 | 2.6 | 5.2 | 0.00 | 0.00 | 0.00 | 81 | 1014.7 |
| 20260508125732 | 62 | 360 | 3.5 | 5.2 | 0.00 | 0.00 | 0.00 | 81 | 1014.7 |
| 20260508125616 | 62 | 360 | 3.5 | 5.2 | 0.00 | 0.00 | 0.00 | 81 | 1014.7 |
| 20260508125516 | 62 | 360 | 2.6 | 5.2 | 0.00 | 0.00 | 0.00 | 81 | 1014.6 |
| 20260508125417 | 62 | 360 | 2.6 | 5.2 | 0.00 | 0.00 | 0.00 | 81 | 1014.7 |
| 20260508125337 | 62 | 360 | 1.7 | 5.2 | 0.00 | 0.00 | 0.00 | 81 | 1014.8 |
| 20260508125217 | 62 | 360 | 1.7 | 4.3 | 0.00 | 0.00 | 0.00 | 82 | 1014.8 |
| 20260508125137 | 62 | 360 | 1.7 | 3.5 | 0.00 | 0.00 | 0.00 | 82 | 1014.8 |
| 20260508125018 | 62 | 360 | 1.7 | 3.5 | 0.00 | 0.00 | 0.00 | 82 | 1014.9 |
| 20260508124939 | 62 | 360 | 1.7 | 3.5 | 0.00 | 0.00 | 0.00 | 82 | 1014.9 |
| 20260508124821 | 62 | 360 | 1.7 | 3.5 | 0.00 | 0.00 | 0.00 | 82 | 1014.9 |
| 20260508124722 | 62 | 360 | 1.7 | 3.5 | 0.00 | 0.00 | 0.00 | 82 | 1014.9 |
| 20260508124621 | 62 | 360 | 1.7 | 3.5 | 0.00 | 0.00 | 0.00 | 82 | 1015.0 |
| 20260508124522 | 62 | 360 | 1.7 | 3.5 | 0.00 | 0.00 | 0.00 | 82 | 1014.9 |
| 20260508124423 | 62 | 360 | 0.9 | 2.6 | 0.00 | 0.00 | 0.00 | 82 | 1014.9 |
| 20260508124322 | 62 | 360 | 0.9 | 3.5 | 0.00 | 0.00 | 0.00 | 82 | 1015.0 |
| 20260508124243 | 62 | 360 | 0.9 | 3.5 | 0.00 | 0.00 | 0.00 | 82 | 1015.0 |
| 20260508124127 | 62 | 30 | 0.9 | 3.5 | 0.00 | 0.00 | 0.00 | 82 | 1015.0 |
| 20260508124027 | 62 | 29 | 0.9 | 3.5 | 0.00 | 0.00 | 0.00 | 82 | 1015.1 |
| 20260508123927 | 62 | 29 | 1.7 | 4.3 | 0.00 | 0.00 | 0.00 | 82 | 1015.0 |
| 20260508123848 | 62 | 360 | 1.7 | 4.3 | 0.00 | 0.00 | 0.00 | 82 | 1015.0 |
| 20260508123748 | 61 | 360 | 1.7 | 4.3 | 0.00 | 0.00 | 0.00 | 82 | 1015.1 |
| 20260508123627 | 62 | 360 | 1.7 | 4.3 | 0.00 | 0.00 | 0.00 | 82 | 1015.0 |
| 20260508123528 | 61 | 360 | 1.7 | 4.3 | 0.00 | 0.00 | 0.00 | 82 | 1015.0 |
| 20260508123429 | 61 | 360 | 1.7 | 4.3 | 0.00 | 0.00 | 0.00 | 82 | 1015.0 |
| 20260508123335 | 61 | 360 | 2.6 | 4.3 | 0.00 | 0.00 | 0.00 | 82 | 1014.9 |
| 20260508123255 | 61 | 360 | 2.6 | 4.3 | 0.00 | 0.00 | 0.00 | 82 | 1014.8 |
| 20260508123135 | 61 | 360 | 2.6 | 4.3 | 0.00 | 0.00 | 0.00 | 82 | 1014.7 |
| 20260508123034 | 61 | 360 | 2.6 | 4.3 | 0.00 | 0.00 | 0.00 | 82 | 1014.8 |
| 20260508122916 | 61 | 360 | 2.6 | 4.3 | 0.00 | 0.00 | 0.00 | 82 | 1014.7 |
| 20260508122838 | 61 | 360 | 2.6 | 4.3 | 0.00 | 0.00 | 0.00 | 82 | 1014.6 |
| 20260508122717 | 61 | 360 | 2.6 | 4.3 | 0.00 | 0.00 | 0.00 | 82 | 1014.7 |
| 20260508122620 | 61 | 360 | 2.6 | 4.3 | 0.00 | 0.00 | 0.00 | 82 | 1014.7 |
| 20260508122522 | 61 | 360 | 2.6 | 4.3 | 0.00 | 0.00 | 0.00 | 82 | 1014.7 |
| 20260508122423 | 61 | 360 | 2.6 | 4.3 | 0.00 | 0.00 | 0.00 | 82 | 1014.8 |
| 20260508122323 | 61 | 360 | 1.7 | 4.3 | 0.00 | 0.00 | 0.00 | 82 | 1014.8 |
| 20260508122224 | 61 | 360 | 1.7 | 3.5 | 0.00 | 0.00 | 0.00 | 82 | 1015.0 |
| 20260508122144 | 61 | 360 | 1.7 | 3.5 | 0.00 | 0.00 | 0.00 | 82 | 1015.0 |
| 20260508122023 | 61 | 360 | 1.7 | 3.5 | 0.00 | 0.00 | 0.00 | 82 | 1015.0 |
| 20260508121928 | 61 | 360 | 0.9 | 3.5 | 0.00 | 0.00 | 0.00 | 82 | 1015.0 |
| 20260508121829 | 61 | 71 | 0.9 | 3.5 | 0.00 | 0.00 | 0.00 | 82 | 1014.8 |
| 20260508121729 | 61 | 71 | 0.9 | 3.5 | 0.00 | 0.00 | 0.00 | 82 | 1014.8 |
| 20260508121630 | 61 | 360 | 0.9 | 3.5 | 0.00 | 0.00 | 0.00 | 82 | 1014.9 |
| 20260508121530 | 61 | 360 | 1.7 | 3.5 | 0.00 | 0.00 | 0.00 | 82 | 1015.0 |
| 20260508121431 | 61 | 360 | 1.7 | 3.5 | 0.00 | 0.00 | 0.00 | 82 | 1014.9 |
| 20260508121335 | 61 | 360 | 0.9 | 4.3 | 0.00 | 0.00 | 0.00 | 82 | 1014.9 |
| 20260508121216 | 61 | 360 | 0.9 | 4.3 | 0.00 | 0.00 | 0.00 | 82 | 1015.0 |
| 20260508121116 | 61 | 360 | 0.9 | 4.3 | 0.00 | 0.00 | 0.00 | 82 | 1014.9 |
| 20260508121016 | 61 | 59 | 0.9 | 4.3 | 0.00 | 0.00 | 0.00 | 82 | 1015.0 |
| 20260508120917 | 61 | 57 | 1.7 | 4.3 | 0.00 | 0.00 | 0.00 | 82 | 1015.0 |
| 20260508120838 | 61 | 360 | 1.7 | 4.3 | 0.00 | 0.00 | 0.00 | 82 | 1015.0 |
| 20260508120716 | 61 | 360 | 2.6 | 4.3 | 0.00 | 0.00 | 0.00 | 82 | 1015.0 |
| 20260508120621 | 61 | 360 | 2.6 | 4.3 | 0.00 | 0.00 | 0.00 | 82 | 1015.1 |
| 20260508120521 | 61 | 360 | 2.6 | 4.3 | 0.00 | 0.00 | 0.00 | 83 | 1015.1 |
| 20260508120442 | 61 | 360 | 2.6 | 4.3 | 0.00 | 0.00 | 0.00 | 83 | 1015.1 |
| 20260508120321 | 61 | 360 | 2.6 | 4.3 | 0.00 | 0.00 | 0.00 | 83 | 1015.1 |
| 20260508120222 | 61 | 360 | 1.7 | 3.5 | 0.00 | 0.00 | 0.00 | 82 | 1015.1 |
| 20260508120123 | 61 | 360 | 1.7 | 3.5 | 0.00 | 0.00 | 0.00 | 82 | 1015.1 |
| 20260508120023 | 61 | 360 | 1.7 | 2.6 | 0.00 | 0.00 | 0.00 | 82 | 1015.1 |
| 20260508115928 | 61 | 360 | 1.7 | 2.6 | 0.00 | 0.00 | 0.00 | 82 | 1015.1 |
| 20260508115827 | 61 | 360 | 1.7 | 3.5 | 0.00 | 0.00 | 0.00 | 82 | 1015.1 |
| 20260508115729 | 61 | 360 | 1.7 | 3.5 | 0.00 | 0.00 | 0.00 | 82 | 1015.2 |
| 20260508115628 | 61 | 360 | 1.7 | 3.5 | 0.00 | 0.00 | 0.00 | 82 | 1015.2 |
| 20260508115528 | 61 | 360 | 1.7 | 3.5 | 0.00 | 0.00 | 0.00 | 82 | 1015.3 |
| 20260508115429 | 61 | 360 | 1.7 | 3.5 | 0.00 | 0.00 | 0.00 | 82 | 1015.3 |
| 20260508115333 | 61 | 348 | 1.7 | 3.5 | 0.00 | 0.00 | 0.00 | 82 | 1015.2 |
| 20260508115234 | 61 | 360 | 1.7 | 3.5 | 0.00 | 0.00 | 0.00 | 82 | 1015.2 |
| 20260508115154 | 61 | 360 | 1.7 | 3.5 | 0.00 | 0.00 | 0.00 | 82 | 1015.2 |
| 20260508115034 | 61 | 360 | 1.7 | 3.5 | 0.00 | 0.00 | 0.00 | 82 | 1015.3 |
| 20260508114935 | 61 | 360 | 1.7 | 3.5 | 0.00 | 0.00 | 0.00 | 82 | 1015.2 |
| 20260508114835 | 61 | 360 | 1.7 | 3.5 | 0.00 | 0.00 | 0.00 | 82 | 1015.3 |
| 20260508114735 | 62 | 360 | 1.7 | 3.5 | 0.00 | 0.00 | 0.00 | 82 | 1015.4 |
| 20260508114621 | 62 | 360 | 1.7 | 3.5 | 0.00 | 0.00 | 0.00 | 81 | 1015.3 |
| 20260508114521 | 62 | 360 | 1.7 | 3.5 | 0.00 | 0.00 | 0.00 | 81 | 1015.3 |
| 20260508114422 | 62 | 360 | 1.7 | 3.5 | 0.00 | 0.00 | 0.00 | 81 | 1015.3 |
| 20260508114322 | 62 | 360 | 1.7 | 3.5 | 0.00 | 0.00 | 0.00 | 81 | 1015.3 |
| 20260508114243 | 62 | 360 | 1.7 | 3.5 | 0.00 | 0.00 | 0.00 | 81 | 1015.3 |
| 20260508114123 | 62 | 360 | 1.7 | 3.5 | 0.00 | 0.00 | 0.00 | 81 | 1015.3 |
| 20260508114024 | 62 | 360 | 1.7 | 3.5 | 0.00 | 0.00 | 0.00 | 82 | 1015.3 |
| 20260508113927 | 62 | 360 | 1.7 | 2.6 | 0.00 | 0.00 | 0.00 | 82 | 1015.3 |
| 20260508113828 | 62 | 360 | 1.7 | 2.6 | 0.00 | 0.00 | 0.00 | 81 | 1015.3 |
| 20260508113729 | 62 | 360 | 0.9 | 2.6 | 0.00 | 0.00 | 0.00 | 81 | 1015.4 |
| 20260508113629 | 62 | 360 | 0.9 | 2.6 | 0.00 | 0.00 | 0.00 | 82 | 1015.3 |
| 20260508113530 | 62 | 360 | 0.9 | 2.6 | 0.00 | 0.00 | 0.00 | 81 | 1015.4 |
| 20260508113429 | 62 | 360 | 0.0 | 2.6 | 0.00 | 0.00 | 0.00 | 81 | 1015.4 |
| 20260508113334 | 62 | 360 | 0.0 | 1.7 | 0.00 | 0.00 | 0.00 | 81 | 1015.5 |
| 20260508113235 | 62 | 360 | 0.0 | 1.7 | 0.00 | 0.00 | 0.00 | 81 | 1015.5 |
| 20260508113136 | 62 | 360 | 0.0 | 1.7 | 0.00 | 0.00 | 0.00 | 81 | 1015.5 |
| 20260508113036 | 62 | 360 | 0.9 | 1.7 | 0.00 | 0.00 | 0.00 | 81 | 1015.5 |
| 20260508112936 | 62 | 360 | 0.9 | 1.7 | 0.00 | 0.00 | 0.00 | 81 | 1015.5 |
| 20260508112817 | 62 | 360 | 0.9 | 1.7 | 0.00 | 0.00 | 0.00 | 81 | 1015.4 |
| 20260508112717 | 62 | 360 | 0.0 | 1.7 | 0.00 | 0.00 | 0.00 | 81 | 1015.4 |
| 20260508112621 | 62 | 360 | 0.0 | 1.7 | 0.00 | 0.00 | 0.00 | 81 | 1015.4 |
| 20260508112543 | 62 | 360 | 0.0 | 1.7 | 0.00 | 0.00 | 0.00 | 81 | 1015.4 |
| 20260508112422 | 62 | 360 | 0.0 | 1.7 | 0.00 | 0.00 | 0.00 | 81 | 1015.5 |
| 20260508112323 | 62 | 360 | 0.0 | 1.7 | 0.00 | 0.00 | 0.00 | 81 | 1015.4 |
| 20260508112224 | 62 | 360 | 0.0 | 1.7 | 0.00 | 0.00 | 0.00 | 81 | 1015.4 |
| 20260508112124 | 62 | 360 | 0.0 | 1.7 | 0.00 | 0.00 | 0.00 | 81 | 1015.4 |
| 20260508112024 | 61 | 360 | 0.0 | 1.7 | 0.00 | 0.00 | 0.00 | 81 | 1015.4 |
| 20260508111929 | 61 | 360 | 0.0 | 2.6 | 0.00 | 0.00 | 0.00 | 81 | 1015.4 |
| 20260508111829 | 62 | 360 | 0.0 | 2.6 | 0.00 | 0.00 | 0.00 | 81 | 1015.4 |
| 20260508111750 | 62 | 360 | 0.0 | 2.6 | 0.00 | 0.00 | 0.00 | 81 | 1015.4 |
| 20260508111629 | 61 | 360 | 0.0 | 2.6 | 0.00 | 0.00 | 0.00 | 82 | 1015.3 |
| 20260508111529 | 61 | 360 | 0.0 | 2.6 | 0.00 | 0.00 | 0.00 | 82 | 1015.3 |
| 20260508111430 | 62 | 360 | 0.0 | 2.6 | 0.00 | 0.00 | 0.00 | 82 | 1015.4 |
| 20260508111330 | 61 | 360 | 0.0 | 2.6 | 0.00 | 0.00 | 0.00 | 82 | 1015.3 |
| 20260508111235 | 61 | 360 | 0.9 | 2.6 | 0.00 | 0.00 | 0.00 | 82 | 1015.3 |
| 20260508111135 | 61 | 360 | 0.9 | 2.6 | 0.00 | 0.00 | 0.00 | 82 | 1015.2 |
| 20260508111035 | 61 | 360 | 0.9 | 2.6 | 0.00 | 0.00 | 0.00 | 82 | 1015.2 |
| 20260508110955 | 61 | 360 | 0.9 | 2.6 | 0.00 | 0.00 | 0.00 | 82 | 1015.3 |
| 20260508110835 | 61 | 360 | 0.9 | 2.6 | 0.00 | 0.00 | 0.00 | 82 | 1015.2 |
| 20260508110737 | 61 | 360 | 0.9 | 2.6 | 0.00 | 0.00 | 0.00 | 82 | 1015.2 |
| 20260508110657 | 61 | 360 | 1.7 | 2.6 | 0.00 | 0.00 | 0.00 | 82 | 1015.3 |
| 20260508110521 | 61 | 360 | 0.9 | 2.6 | 0.00 | 0.00 | 0.00 | 82 | 1015.2 |
| 20260508110421 | 61 | 360 | 0.9 | 2.6 | 0.00 | 0.00 | 0.00 | 82 | 1015.3 |
| 20260508110321 | 61 | 360 | 0.9 | 2.6 | 0.00 | 0.00 | 0.00 | 82 | 1015.2 |
| 20260508110222 | 61 | 360 | 0.9 | 2.6 | 0.00 | 0.00 | 0.00 | 82 | 1015.2 |
| 20260508110122 | 61 | 360 | 0.0 | 2.6 | 0.00 | 0.00 | 0.00 | 82 | 1015.2 |
| 20260508110022 | 61 | 360 | 0.0 | 1.7 | 0.00 | 0.00 | 0.00 | 82 | 1015.3 |
| 20260508105923 | 61 | 360 | 0.0 | 0.9 | 0.00 | 0.00 | 0.00 | 82 | 1015.3 |
| 20260508105827 | 61 | 360 | 0.0 | 0.0 | 0.00 | 0.00 | 0.00 | 82 | 1015.3 |
| 20260508105728 | 61 | 360 | 0.0 | 0.9 | 0.00 | 0.00 | 0.00 | 82 | 1015.2 |
| 20260508105628 | 61 | 360 | 0.0 | 0.9 | 0.00 | 0.00 | 0.00 | 82 | 1015.2 |
| 20260508105549 | 61 | 360 | 0.0 | 0.9 | 0.00 | 0.00 | 0.00 | 82 | 1015.2 |
| 20260508105429 | 61 | 360 | 0.0 | 0.9 | 0.00 | 0.00 | 0.00 | 82 | 1015.2 |
| 20260508105329 | 61 | 360 | 0.0 | 0.9 | 0.00 | 0.00 | 0.00 | 82 | 1015.1 |
| 20260508105229 | 61 | 360 | 0.0 | 0.9 | 0.00 | 0.00 | 0.00 | 82 | 1015.1 |
| 20260508105134 | 61 | 360 | 0.0 | 0.9 | 0.00 | 0.00 | 0.00 | 82 | 1015.1 |
| 20260508105035 | 61 | 360 | 0.0 | 0.9 | 0.00 | 0.00 | 0.00 | 82 | 1015.1 |
| 20260508104956 | 61 | 360 | 0.0 | 1.7 | 0.00 | 0.00 | 0.00 | 82 | 1015.1 |
| 20260508104836 | 61 | 360 | 0.0 | 4.3 | 0.00 | 0.00 | 0.00 | 82 | 1015.0 |
| 20260508104756 | 61 | 360 | 0.0 | 4.3 | 0.00 | 0.00 | 0.00 | 82 | 1015.1 |
| 20260508104656 | 61 | 360 | 0.0 | 4.3 | 0.00 | 0.00 | 0.00 | 82 | 1015.0 |
| 20260508104556 | 61 | 340 | 0.0 | 4.3 | 0.00 | 0.00 | 0.00 | 82 | 1015.0 |
| 20260508104435 | 61 | 360 | 0.9 | 4.3 | 0.00 | 0.00 | 0.00 | 82 | 1015.0 |
| 20260508104319 | 61 | 360 | 0.9 | 4.3 | 0.00 | 0.00 | 0.00 | 82 | 1015.0 |
| 20260508104220 | 61 | 360 | 1.7 | 4.3 | 0.00 | 0.00 | 0.00 | 82 | 1015.0 |
| 20260508104121 | 61 | 360 | 1.7 | 4.3 | 0.00 | 0.00 | 0.00 | 82 | 1015.1 |
| 20260508104021 | 61 | 360 | 1.7 | 4.3 | 0.00 | 0.00 | 0.00 | 82 | 1015.0 |
| 20260508103922 | 61 | 360 | 1.7 | 4.3 | 0.00 | 0.00 | 0.00 | 82 | 1015.0 |
| 20260508103823 | 61 | 360 | 1.7 | 4.3 | 0.00 | 0.00 | 0.00 | 82 | 1015.0 |
| 20260508103722 | 61 | 360 | 1.7 | 4.3 | 0.00 | 0.00 | 0.00 | 82 | 1015.1 |
| 20260508103627 | 61 | 360 | 1.7 | 4.3 | 0.00 | 0.00 | 0.00 | 82 | 1015.1 |
| 20260508103527 | 61 | 360 | 2.6 | 4.3 | 0.00 | 0.00 | 0.00 | 82 | 1015.1 |
| 20260508103428 | 61 | 360 | 2.6 | 4.3 | 0.00 | 0.00 | 0.00 | 82 | 1015.2 |
| 20260508103329 | 61 | 28 | 1.7 | 5.2 | 0.00 | 0.00 | 0.00 | 82 | 1015.2 |
| 20260508103231 | 61 | 360 | 2.6 | 7.0 | 0.00 | 0.00 | 0.00 | 82 | 1015.3 |
| 20260508103132 | 61 | 360 | 2.6 | 7.0 | 0.00 | 0.00 | 0.00 | 82 | 1015.2 |
| 20260508103016 | 61 | 360 | 2.6 | 7.0 | 0.00 | 0.00 | 0.00 | 82 | 1015.3 |
| 20260508102918 | 61 | 360 | 2.6 | 7.0 | 0.00 | 0.00 | 0.00 | 82 | 1015.2 |
| 20260508102819 | 61 | 360 | 2.6 | 7.0 | 0.00 | 0.00 | 0.00 | 82 | 1015.2 |
| 20260508102719 | 61 | 360 | 3.5 | 7.0 | 0.00 | 0.00 | 0.00 | 82 | 1015.2 |
| 20260508102619 | 61 | 360 | 3.5 | 7.0 | 0.00 | 0.00 | 0.00 | 82 | 1015.3 |
| 20260508102519 | 61 | 360 | 3.5 | 7.0 | 0.00 | 0.00 | 0.00 | 82 | 1015.3 |
| 20260508102439 | 61 | 360 | 3.5 | 7.8 | 0.00 | 0.00 | 0.00 | 82 | 1015.2 |
| 20260508102323 | 61 | 360 | 3.5 | 7.8 | 0.00 | 0.00 | 0.00 | 82 | 1015.2 |
| 20260508102224 | 61 | 360 | 3.5 | 7.8 | 0.00 | 0.00 | 0.00 | 82 | 1015.2 |
| 20260508102144 | 61 | 360 | 3.5 | 7.8 | 0.00 | 0.00 | 0.00 | 82 | 1015.2 |
| 20260508102025 | 61 | 360 | 3.5 | 7.8 | 0.00 | 0.00 | 0.00 | 82 | 1015.1 |
| 20260508101925 | 61 | 360 | 3.5 | 7.8 | 0.00 | 0.00 | 0.00 | 82 | 1015.1 |
| 20260508101825 | 61 | 25 | 3.5 | 7.0 | 0.00 | 0.00 | 0.00 | 82 | 1015.1 |
| 20260508101726 | 61 | 39 | 3.5 | 7.0 | 0.00 | 0.00 | 0.00 | 82 | 1015.1 |
| 20260508101646 | 61 | 360 | 3.5 | 7.0 | 0.00 | 0.00 | 0.00 | 82 | 1015.1 |
| 20260508101549 | 61 | 360 | 3.5 | 7.0 | 0.00 | 0.00 | 0.00 | 82 | 1015.1 |
| 20260508101430 | 61 | 360 | 3.5 | 7.0 | 0.00 | 0.00 | 0.00 | 83 | 1015.1 |
| 20260508101330 | 61 | 360 | 3.5 | 7.0 | 0.00 | 0.00 | 0.00 | 83 | 1015.1 |
| 20260508101231 | 61 | 360 | 3.5 | 7.0 | 0.00 | 0.00 | 0.00 | 83 | 1015.2 |
| 20260508101130 | 61 | 360 | 3.5 | 7.0 | 0.00 | 0.00 | 0.00 | 83 | 1015.1 |
| 20260508101030 | 61 | 360 | 3.5 | 7.0 | 0.00 | 0.00 | 0.00 | 83 | 1015.1 |
| 20260508100931 | 61 | 360 | 3.5 | 7.0 | 0.00 | 0.00 | 0.00 | 83 | 1015.1 |
| 20260508100816 | 61 | 360 | 3.5 | 7.0 | 0.00 | 0.00 | 0.00 | 83 | 1015.0 |
| 20260508100717 | 61 | 360 | 3.5 | 7.0 | 0.00 | 0.00 | 0.00 | 83 | 1015.0 |
| 20260508100616 | 61 | 360 | 3.5 | 7.0 | 0.00 | 0.00 | 0.00 | 83 | 1014.9 |
| 20260508100516 | 61 | 360 | 2.6 | 7.0 | 0.00 | 0.00 | 0.00 | 83 | 1015.0 |
| 20260508100417 | 61 | 360 | 2.6 | 7.0 | 0.00 | 0.00 | 0.00 | 83 | 1015.2 |
| 20260508100317 | 61 | 360 | 2.6 | 7.0 | 0.00 | 0.00 | 0.00 | 83 | 1015.2 |
| 20260508100237 | 61 | 360 | 2.6 | 7.0 | 0.00 | 0.00 | 0.00 | 83 | 1015.3 |
| 20260508100117 | 61 | 360 | 2.6 | 7.0 | 0.00 | 0.00 | 0.00 | 83 | 1015.2 |
| 20260508100022 | 61 | 360 | 2.6 | 7.0 | 0.00 | 0.00 | 0.00 | 83 | 1015.3 |
| 20260508095921 | 61 | 360 | 2.6 | 7.0 | 0.00 | 0.00 | 0.00 | 84 | 1015.3 |
| 20260508095823 | 61 | 360 | 2.6 | 7.0 | 0.00 | 0.00 | 0.00 | 84 | 1015.4 |
| 20260508095723 | 61 | 360 | 2.6 | 7.0 | 0.00 | 0.00 | 0.00 | 84 | 1015.3 |
| 20260508095624 | 61 | 360 | 2.6 | 4.3 | 0.00 | 0.00 | 0.00 | 84 | 1015.4 |
| 20260508095525 | 61 | 360 | 2.6 | 4.3 | 0.00 | 0.00 | 0.00 | 84 | 1015.3 |
| 20260508095428 | 61 | 360 | 2.6 | 4.3 | 0.00 | 0.00 | 0.00 | 84 | 1015.3 |
| 20260508095329 | 61 | 360 | 2.6 | 4.3 | 0.00 | 0.00 | 0.00 | 84 | 1015.4 |
| 20260508095250 | 61 | 360 | 2.6 | 4.3 | 0.00 | 0.00 | 0.00 | 84 | 1015.2 |
| 20260508095130 | 61 | 360 | 2.6 | 3.5 | 0.00 | 0.00 | 0.00 | 84 | 1015.3 |
| 20260508095030 | 61 | 304 | 1.7 | 3.5 | 0.00 | 0.00 | 0.00 | 84 | 1015.2 |
| 20260508094930 | 61 | 360 | 1.7 | 3.5 | 0.00 | 0.00 | 0.00 | 84 | 1015.2 |
| 20260508094831 | 61 | 360 | 1.7 | 2.6 | 0.00 | 0.00 | 0.00 | 84 | 1015.3 |
| 20260508094716 | 61 | 360 | 0.9 | 2.6 | 0.00 | 0.00 | 0.00 | 84 | 1015.2 |
| 20260508094636 | 61 | 360 | 0.9 | 2.6 | 0.00 | 0.00 | 0.00 | 83 | 1015.2 |
| 20260508094516 | 61 | 360 | 1.7 | 2.6 | 0.00 | 0.00 | 0.00 | 83 | 1015.2 |
| 20260508094417 | 61 | 360 | 1.7 | 2.6 | 0.00 | 0.00 | 0.00 | 83 | 1015.2 |
| 20260508094316 | 61 | 360 | 1.7 | 2.6 | 0.00 | 0.00 | 0.00 | 83 | 1015.1 |
| 20260508094218 | 61 | 360 | 0.9 | 2.6 | 0.00 | 0.00 | 0.00 | 83 | 1015.1 |
| 20260508094117 | 61 | 360 | 1.7 | 2.6 | 0.00 | 0.00 | 0.00 | 83 | 1015.2 |
| 20260508094021 | 61 | 360 | 1.7 | 2.6 | 0.00 | 0.00 | 0.00 | 83 | 1015.3 |
| 20260508093922 | 61 | 360 | 0.9 | 2.6 | 0.00 | 0.00 | 0.00 | 83 | 1015.1 |
| 20260508093843 | 61 | 360 | 0.9 | 2.6 | 0.00 | 0.00 | 0.00 | 83 | 1015.2 |
| 20260508093721 | 61 | 360 | 0.9 | 2.6 | 0.00 | 0.00 | 0.00 | 83 | 1015.3 |
| 20260508093621 | 61 | 360 | 1.7 | 2.6 | 0.00 | 0.00 | 0.00 | 83 | 1015.3 |
| 20260508093542 | 61 | 360 | 1.7 | 2.6 | 0.00 | 0.00 | 0.00 | 83 | 1015.2 |
| 20260508093422 | 61 | 360 | 1.7 | 2.6 | 0.00 | 0.00 | 0.00 | 83 | 1015.4 |
| 20260508093342 | 61 | 360 | 1.7 | 2.6 | 0.00 | 0.00 | 0.00 | 83 | 1015.3 |
| 20260508093242 | 61 | 360 | 1.7 | 2.6 | 0.00 | 0.00 | 0.00 | 82 | 1015.4 |
| 20260508093125 | 61 | 302 | 1.7 | 2.6 | 0.00 | 0.00 | 0.00 | 82 | 1015.4 |
| 20260508093026 | 62 | 360 | 1.7 | 3.5 | 0.00 | 0.00 | 0.00 | 82 | 1015.4 |
| 20260508092946 | 62 | 360 | 1.7 | 3.5 | 0.00 | 0.00 | 0.00 | 82 | 1015.5 |
| 20260508092826 | 62 | 360 | 1.7 | 3.5 | 0.00 | 0.00 | 0.00 | 82 | 1015.5 |
| 20260508092725 | 62 | 360 | 1.7 | 3.5 | 0.00 | 0.00 | 0.00 | 82 | 1015.5 |
| 20260508092626 | 62 | 302 | 1.7 | 3.5 | 0.00 | 0.00 | 0.00 | 82 | 1015.5 |
| 20260508092527 | 62 | 360 | 1.7 | 3.5 | 0.00 | 0.00 | 0.00 | 82 | 1015.6 |
| 20260508092432 | 62 | 360 | 1.7 | 3.5 | 0.00 | 0.00 | 0.00 | 82 | 1015.6 |
| 20260508092353 | 62 | 360 | 1.7 | 3.5 | 0.00 | 0.00 | 0.00 | 82 | 1015.5 |
| 20260508092253 | 62 | 360 | 1.7 | 3.5 | 0.00 | 0.00 | 0.00 | 82 | 1015.4 |
| 20260508092132 | 62 | 360 | 1.7 | 3.5 | 0.00 | 0.00 | 0.00 | 82 | 1015.5 |
| 20260508092033 | 62 | 360 | 1.7 | 2.6 | 0.00 | 0.00 | 0.00 | 82 | 1015.5 |
| 20260508091933 | 62 | 360 | 1.7 | 2.6 | 0.00 | 0.00 | 0.00 | 82 | 1015.5 |
| 20260508091835 | 62 | 301 | 1.7 | 2.6 | 0.00 | 0.00 | 0.00 | 82 | 1015.5 |
| 20260508091719 | 62 | 360 | 1.7 | 2.6 | 0.00 | 0.00 | 0.00 | 82 | 1015.5 |
| 20260508091620 | 62 | 360 | 1.7 | 2.6 | 0.00 | 0.00 | 0.00 | 82 | 1015.4 |
| 20260508091521 | 62 | 360 | 1.7 | 2.6 | 0.00 | 0.00 | 0.00 | 82 | 1015.4 |
| 20260508091441 | 62 | 360 | 1.7 | 2.6 | 0.00 | 0.00 | 0.00 | 81 | 1015.4 |
| 20260508091341 | 62 | 360 | 1.7 | 2.6 | 0.00 | 0.00 | 0.00 | 81 | 1015.4 |
| 20260508091220 | 62 | 360 | 1.7 | 2.6 | 0.00 | 0.00 | 0.00 | 81 | 1015.4 |
| 20260508091120 | 62 | 360 | 1.7 | 2.6 | 0.00 | 0.00 | 0.00 | 81 | 1015.3 |
| 20260508091022 | 62 | 360 | 1.7 | 2.6 | 0.00 | 0.00 | 0.00 | 81 | 1015.4 |
| 20260508090925 | 62 | 360 | 1.7 | 2.6 | 0.00 | 0.00 | 0.00 | 81 | 1015.3 |
| 20260508090826 | 62 | 360 | 1.7 | 2.6 | 0.00 | 0.00 | 0.00 | 80 | 1015.3 |
| 20260508090725 | 62 | 360 | 1.7 | 2.6 | 0.00 | 0.00 | 0.00 | 80 | 1015.2 |
| 20260508090627 | 62 | 360 | 1.7 | 2.6 | 0.00 | 0.00 | 0.00 | 80 | 1015.3 |
| 20260508090527 | 62 | 360 | 0.9 | 2.6 | 0.00 | 0.00 | 0.00 | 80 | 1015.4 |